<?xml version="1.0" encoding="UTF-8" standalone="no" ?>
<gpx xmlns="http://www.topografix.com/GPX/1/1" creator="MapSource 6.16.3" version="1.1" xmlns:xsi="http://www.w3.org/2001/XMLSchema-instance" xsi:schemaLocation="http://www.topografix.com/GPX/1/1 http://www.topografix.com/GPX/1/1/gpx.xsd">

  <metadata>
    <link href="http://www.garmin.com">
      <text>Garmin International</text>
    </link>
    <time>2016-09-17T08:23:19Z</time>
    <bounds maxlat="45.846069725230336" maxlon="9.194494234398007" minlat="45.801995247602463" minlon="9.093071362003684"/>
  </metadata>

  <wpt lat="45.838421573862433" lon="9.158306960016489">
    <ele>1119</ele>
    <name>001 DOWN SX</name>
    <cmt>11-NOV-07 14:36:13</cmt>
    <desc>11-NOV-07 14:36:13</desc>
    <sym>Waypoint</sym>
    <extensions>
      <gpxx:WaypointExtension xmlns:gpxx="http://www.garmin.com/xmlschemas/GpxExtensions/v3">
        <gpxx:DisplayMode>SymbolAndName</gpxx:DisplayMode>
      </gpxx:WaypointExtension>
    </extensions>
  </wpt>

  <wpt lat="45.826513152569532" lon="9.173232698813081">
    <ele>923</ele>
    <name>002 SX</name>
    <cmt>11-NOV-07 12:31:53</cmt>
    <desc>11-NOV-07 12:31:53</desc>
    <sym>Waypoint</sym>
    <extensions>
      <gpxx:WaypointExtension xmlns:gpxx="http://www.garmin.com/xmlschemas/GpxExtensions/v3">
        <gpxx:DisplayMode>SymbolAndName</gpxx:DisplayMode>
      </gpxx:WaypointExtension>
    </extensions>
  </wpt>

  <wpt lat="45.827199295163155" lon="9.172817124053836">
    <ele>926</ele>
    <name>003 PATRIZI</name>
    <cmt>11-NOV-07 12:33:44</cmt>
    <desc>11-NOV-07 12:33:44</desc>
    <sym>Waypoint</sym>
    <extensions>
      <gpxx:WaypointExtension xmlns:gpxx="http://www.garmin.com/xmlschemas/GpxExtensions/v3">
        <gpxx:DisplayMode>SymbolAndName</gpxx:DisplayMode>
      </gpxx:WaypointExtension>
    </extensions>
  </wpt>

  <wpt lat="45.828802501782775" lon="9.190468657761812">
    <ele>917</ele>
    <name>004 CACCIATORI</name>
    <cmt>11-NOV-07 12:56:07</cmt>
    <desc>11-NOV-07 12:56:07</desc>
    <sym>Waypoint</sym>
    <extensions>
      <gpxx:WaypointExtension xmlns:gpxx="http://www.garmin.com/xmlschemas/GpxExtensions/v3">
        <gpxx:DisplayMode>SymbolAndName</gpxx:DisplayMode>
      </gpxx:WaypointExtension>
    </extensions>
  </wpt>

  <wpt lat="45.838462309911847" lon="9.158512400463224">
    <name>005 DOWN DX</name>
    <sym>Waypoint</sym>
    <extensions>
      <gpxx:WaypointExtension xmlns:gpxx="http://www.garmin.com/xmlschemas/GpxExtensions/v3">
        <gpxx:DisplayMode>SymbolAndName</gpxx:DisplayMode>
      </gpxx:WaypointExtension>
    </extensions>
  </wpt>

  <wpt lat="45.808813506737351" lon="9.094222700223327">
    <name>PARTENZA</name>
    <cmt>Como</cmt>
    <desc>Como</desc>
    <sym>Parking Area</sym>
    <extensions>
      <gpxx:WaypointExtension xmlns:gpxx="http://www.garmin.com/xmlschemas/GpxExtensions/v3">
        <gpxx:DisplayMode>SymbolAndName</gpxx:DisplayMode>
      </gpxx:WaypointExtension>
    </extensions>
  </wpt>

  <trk>
    <name>ACTIVE LOG</name>
    <extensions>
      <gpxx:TrackExtension xmlns:gpxx="http://www.garmin.com/xmlschemas/GpxExtensions/v3">
        <gpxx:DisplayColor>Blue</gpxx:DisplayColor>
      </gpxx:TrackExtension>
    </extensions>
    <trkseg>
      <trkpt lat="45.808908389881253" lon="9.094302831217647">
        <ele>263.53857421875</ele>
        <time>2007-11-11T07:24:34Z</time>
      </trkpt>
      <trkpt lat="45.809102179482579" lon="9.094414645805955">
        <ele>263.53857421875</ele>
        <time>2007-11-11T07:30:23Z</time>
      </trkpt>
      <trkpt lat="45.80928691662848" lon="9.094291683286429">
        <ele>264.4998779296875</ele>
        <time>2007-11-11T07:30:37Z</time>
      </trkpt>
      <trkpt lat="45.809468636289239" lon="9.093905361369252">
        <ele>264.4998779296875</ele>
        <time>2007-11-11T07:30:50Z</time>
      </trkpt>
      <trkpt lat="45.809615487232804" lon="9.093672428280115">
        <ele>264.9805908203125</ele>
        <time>2007-11-11T07:31:00Z</time>
      </trkpt>
      <trkpt lat="45.809802822768688" lon="9.093500766903162">
        <ele>265.4613037109375</ele>
        <time>2007-11-11T07:31:08Z</time>
      </trkpt>
      <trkpt lat="45.809978172183037" lon="9.093324327841401">
        <ele>265.4613037109375</ele>
        <time>2007-11-11T07:31:15Z</time>
      </trkpt>
      <trkpt lat="45.810148492455482" lon="9.093200275674462">
        <ele>266.4224853515625</ele>
        <time>2007-11-11T07:31:21Z</time>
      </trkpt>
      <trkpt lat="45.810299785807729" lon="9.093071362003684">
        <ele>266.4224853515625</ele>
        <time>2007-11-11T07:31:27Z</time>
      </trkpt>
      <trkpt lat="45.810520481318235" lon="9.093165742233396">
        <ele>268.8258056640625</ele>
        <time>2007-11-11T07:31:38Z</time>
      </trkpt>
      <trkpt lat="45.810688035562634" lon="9.09331452101469">
        <ele>271.2291259765625</ele>
        <time>2007-11-11T07:31:49Z</time>
      </trkpt>
      <trkpt lat="45.810861624777317" lon="9.093511747196317">
        <ele>273.6324462890625</ele>
        <time>2007-11-11T07:32:02Z</time>
      </trkpt>
      <trkpt lat="45.810891380533576" lon="9.093818021938205">
        <ele>276.03564453125</ele>
        <time>2007-11-11T07:32:17Z</time>
      </trkpt>
      <trkpt lat="45.810974780470133" lon="9.094051960855722">
        <ele>277.958251953125</ele>
        <time>2007-11-11T07:32:31Z</time>
      </trkpt>
      <trkpt lat="45.811090786010027" lon="9.094265196472406">
        <ele>280.3616943359375</ele>
        <time>2007-11-11T07:32:45Z</time>
      </trkpt>
      <trkpt lat="45.811154823750257" lon="9.094525286927819">
        <ele>282.7650146484375</ele>
        <time>2007-11-11T07:32:59Z</time>
      </trkpt>
      <trkpt lat="45.811221040785313" lon="9.09478965215385">
        <ele>284.6876220703125</ele>
        <time>2007-11-11T07:33:14Z</time>
      </trkpt>
      <trkpt lat="45.811350625008345" lon="9.094949997961521">
        <ele>286.6102294921875</ele>
        <time>2007-11-11T07:33:30Z</time>
      </trkpt>
      <trkpt lat="45.811184328049421" lon="9.095299020409584">
        <ele>288.05224609375</ele>
        <time>2007-11-11T07:33:43Z</time>
      </trkpt>
      <trkpt lat="45.810988442972302" lon="9.095513932406902">
        <ele>288.532958984375</ele>
        <time>2007-11-11T07:33:53Z</time>
      </trkpt>
      <trkpt lat="45.810770932585001" lon="9.095655838027597">
        <ele>290.9361572265625</ele>
        <time>2007-11-11T07:34:04Z</time>
      </trkpt>
      <trkpt lat="45.810571778565645" lon="9.095673523843288">
        <ele>292.378173828125</ele>
        <time>2007-11-11T07:34:16Z</time>
      </trkpt>
      <trkpt lat="45.810433058068156" lon="9.095777459442616">
        <ele>294.7813720703125</ele>
        <time>2007-11-11T07:34:30Z</time>
      </trkpt>
      <trkpt lat="45.810309927910566" lon="9.095900254324079">
        <ele>297.1846923828125</ele>
        <time>2007-11-11T07:34:44Z</time>
      </trkpt>
      <trkpt lat="45.810168525204062" lon="9.096065377816558">
        <ele>299.1072998046875</ele>
        <time>2007-11-11T07:34:58Z</time>
      </trkpt>
      <trkpt lat="45.810063248500228" lon="9.096265453845263">
        <ele>301.5106201171875</ele>
        <time>2007-11-11T07:35:12Z</time>
      </trkpt>
      <trkpt lat="45.809928551316261" lon="9.096429236233234">
        <ele>303.4332275390625</ele>
        <time>2007-11-11T07:35:26Z</time>
      </trkpt>
      <trkpt lat="45.809812294319272" lon="9.096619673073292">
        <ele>306.3172607421875</ele>
        <time>2007-11-11T07:35:40Z</time>
      </trkpt>
      <trkpt lat="45.809680027887225" lon="9.096805667504668">
        <ele>308.2398681640625</ele>
        <time>2007-11-11T07:35:55Z</time>
      </trkpt>
      <trkpt lat="45.809559244662523" lon="9.096999792382121">
        <ele>310.64306640625</ele>
        <time>2007-11-11T07:36:09Z</time>
      </trkpt>
      <trkpt lat="45.809451034292579" lon="9.097215458750725">
        <ele>311.6044921875</ele>
        <time>2007-11-11T07:36:23Z</time>
      </trkpt>
      <trkpt lat="45.809313068166375" lon="9.097387623041868">
        <ele>313.5272216796875</ele>
        <time>2007-11-11T07:36:38Z</time>
      </trkpt>
      <trkpt lat="45.809138221666217" lon="9.09747026860714">
        <ele>314.9691162109375</ele>
        <time>2007-11-11T07:36:53Z</time>
      </trkpt>
      <trkpt lat="45.808952478691936" lon="9.097563978284597">
        <ele>317.3724365234375</ele>
        <time>2007-11-11T07:37:07Z</time>
      </trkpt>
      <trkpt lat="45.808801352977753" lon="9.097712421789765">
        <ele>318.8143310546875</ele>
        <time>2007-11-11T07:37:22Z</time>
      </trkpt>
      <trkpt lat="45.808619046583772" lon="9.097823230549693">
        <ele>320.25634765625</ele>
        <time>2007-11-11T07:37:37Z</time>
      </trkpt>
      <trkpt lat="45.808445457369089" lon="9.097945941612124">
        <ele>322.178955078125</ele>
        <time>2007-11-11T07:37:52Z</time>
      </trkpt>
      <trkpt lat="45.808271197602153" lon="9.098060438409448">
        <ele>324.582275390625</ele>
        <time>2007-11-11T07:38:06Z</time>
      </trkpt>
      <trkpt lat="45.808092327788472" lon="9.098196560516954">
        <ele>326.024169921875</ele>
        <time>2007-11-11T07:38:21Z</time>
      </trkpt>
      <trkpt lat="45.807903818786144" lon="9.098385823890567">
        <ele>328.4276123046875</ele>
        <time>2007-11-11T07:38:36Z</time>
      </trkpt>
      <trkpt lat="45.807757889851928" lon="9.098570058122277">
        <ele>329.8695068359375</ele>
        <time>2007-11-11T07:38:50Z</time>
      </trkpt>
      <trkpt lat="45.807667532935739" lon="9.098767368122935">
        <ele>332.7535400390625</ele>
        <time>2007-11-11T07:39:05Z</time>
      </trkpt>
      <trkpt lat="45.807568291202188" lon="9.099016981199384">
        <ele>334.6761474609375</ele>
        <time>2007-11-11T07:39:20Z</time>
      </trkpt>
      <trkpt lat="45.807510036975145" lon="9.099265839904547">
        <ele>337.0794677734375</ele>
        <time>2007-11-11T07:39:34Z</time>
      </trkpt>
      <trkpt lat="45.807453542947769" lon="9.099505478516221">
        <ele>338.521484375</ele>
        <time>2007-11-11T07:39:48Z</time>
      </trkpt>
      <trkpt lat="45.807397132739425" lon="9.09975903108716">
        <ele>341.4052734375</ele>
        <time>2007-11-11T07:40:02Z</time>
      </trkpt>
      <trkpt lat="45.807338543236256" lon="9.099996238946915">
        <ele>343.327880859375</ele>
        <time>2007-11-11T07:40:17Z</time>
      </trkpt>
      <trkpt lat="45.80730794928968" lon="9.10024618729949">
        <ele>345.2506103515625</ele>
        <time>2007-11-11T07:40:32Z</time>
      </trkpt>
      <trkpt lat="45.80736611969769" lon="9.100493369624019">
        <ele>347.1732177734375</ele>
        <time>2007-11-11T07:40:47Z</time>
      </trkpt>
      <trkpt lat="45.807500816881657" lon="9.100683052092791">
        <ele>349.5765380859375</ele>
        <time>2007-11-11T07:41:02Z</time>
      </trkpt>
      <trkpt lat="45.807652696967125" lon="9.100854629650712">
        <ele>351.0184326171875</ele>
        <time>2007-11-11T07:41:17Z</time>
      </trkpt>
      <trkpt lat="45.807733833789825" lon="9.100668551400304">
        <ele>352.4605712890625</ele>
        <time>2007-11-11T07:41:31Z</time>
      </trkpt>
      <trkpt lat="45.807676753029227" lon="9.100375855341554">
        <ele>355.344482421875</ele>
        <time>2007-11-11T07:41:46Z</time>
      </trkpt>
      <trkpt lat="45.807778928428888" lon="9.100150968879461">
        <ele>357.747802734375</ele>
        <time>2007-11-11T07:42:02Z</time>
      </trkpt>
      <trkpt lat="45.807916726917028" lon="9.099957095459104">
        <ele>358.708984375</ele>
        <time>2007-11-11T07:42:18Z</time>
      </trkpt>
      <trkpt lat="45.808054190129042" lon="9.099729359149933">
        <ele>361.5931396484375</ele>
        <time>2007-11-11T07:42:34Z</time>
      </trkpt>
      <trkpt lat="45.808213362470269" lon="9.099555853754282">
        <ele>363.996337890625</ele>
        <time>2007-11-11T07:42:50Z</time>
      </trkpt>
      <trkpt lat="45.808385023847222" lon="9.099438423290849">
        <ele>366.3995361328125</ele>
        <time>2007-11-11T07:43:05Z</time>
      </trkpt>
      <trkpt lat="45.808575544506311" lon="9.09937103278935">
        <ele>367.841552734375</ele>
        <time>2007-11-11T07:43:19Z</time>
      </trkpt>
      <trkpt lat="45.808771932497621" lon="9.099336583167315">
        <ele>368.802978515625</ele>
        <time>2007-11-11T07:43:30Z</time>
      </trkpt>
      <trkpt lat="45.808943258598447" lon="9.099451247602701">
        <ele>370.244873046875</ele>
        <time>2007-11-11T07:43:42Z</time>
      </trkpt>
      <trkpt lat="45.808920124545693" lon="9.099697759374976">
        <ele>372.16748046875</ele>
        <time>2007-11-11T07:43:53Z</time>
      </trkpt>
      <trkpt lat="45.808839742094278" lon="9.099940834566951">
        <ele>373.6094970703125</ele>
        <time>2007-11-11T07:44:04Z</time>
      </trkpt>
      <trkpt lat="45.808758772909641" lon="9.100171755999327">
        <ele>375.051513671875</ele>
        <time>2007-11-11T07:44:13Z</time>
      </trkpt>
      <trkpt lat="45.808669338002801" lon="9.100414160639048">
        <ele>375.5321044921875</ele>
        <time>2007-11-11T07:44:23Z</time>
      </trkpt>
      <trkpt lat="45.808576717972755" lon="9.100650865584612">
        <ele>376.9742431640625</ele>
        <time>2007-11-11T07:44:33Z</time>
      </trkpt>
      <trkpt lat="45.808489881455898" lon="9.100874327123165">
        <ele>378.8968505859375</ele>
        <time>2007-11-11T07:44:43Z</time>
      </trkpt>
      <trkpt lat="45.808383682742715" lon="9.101110026240349">
        <ele>380.8194580078125</ele>
        <time>2007-11-11T07:44:54Z</time>
      </trkpt>
      <trkpt lat="45.80829206854105" lon="9.101328458636999">
        <ele>381.7806396484375</ele>
        <time>2007-11-11T07:45:04Z</time>
      </trkpt>
      <trkpt lat="45.808215960860252" lon="9.101561056450009">
        <ele>382.7420654296875</ele>
        <time>2007-11-11T07:45:14Z</time>
      </trkpt>
      <trkpt lat="45.808139685541391" lon="9.101787954568863">
        <ele>384.664794921875</ele>
        <time>2007-11-11T07:45:24Z</time>
      </trkpt>
      <trkpt lat="45.808062320575118" lon="9.10203848965466">
        <ele>385.6259765625</ele>
        <time>2007-11-11T07:45:35Z</time>
      </trkpt>
      <trkpt lat="45.808011358603835" lon="9.102276619523764">
        <ele>387.548583984375</ele>
        <time>2007-11-11T07:45:47Z</time>
      </trkpt>
      <trkpt lat="45.807957127690315" lon="9.102529333904386">
        <ele>390.4326171875</ele>
        <time>2007-11-11T07:45:58Z</time>
      </trkpt>
      <trkpt lat="45.807936759665608" lon="9.102807696908712">
        <ele>393.7972412109375</ele>
        <time>2007-11-11T07:46:09Z</time>
      </trkpt>
      <trkpt lat="45.808025440201163" lon="9.10305923782289">
        <ele>397.6424560546875</ele>
        <time>2007-11-11T07:46:21Z</time>
      </trkpt>
      <trkpt lat="45.808114036917686" lon="9.103301055729389">
        <ele>399.5650634765625</ele>
        <time>2007-11-11T07:46:33Z</time>
      </trkpt>
      <trkpt lat="45.808198694139719" lon="9.10354295745492">
        <ele>403.410400390625</ele>
        <time>2007-11-11T07:46:46Z</time>
      </trkpt>
      <trkpt lat="45.808296091854572" lon="9.103794079273939">
        <ele>406.2943115234375</ele>
        <time>2007-11-11T07:46:58Z</time>
      </trkpt>
      <trkpt lat="45.808407990261912" lon="9.103601463139057">
        <ele>407.736328125</ele>
        <time>2007-11-11T07:47:10Z</time>
      </trkpt>
      <trkpt lat="45.808505387976766" lon="9.103349167853594">
        <ele>411.5816650390625</ele>
        <time>2007-11-11T07:47:31Z</time>
      </trkpt>
      <trkpt lat="45.8086555916816" lon="9.103192677721381">
        <ele>414.4654541015625</ele>
        <time>2007-11-11T07:47:53Z</time>
      </trkpt>
      <trkpt lat="45.808812081813812" lon="9.10303233191371">
        <ele>416.868896484375</ele>
        <time>2007-11-11T07:48:11Z</time>
      </trkpt>
      <trkpt lat="45.808937391266227" lon="9.102820940315723">
        <ele>417.8302001953125</ele>
        <time>2007-11-11T07:48:28Z</time>
      </trkpt>
      <trkpt lat="45.809060856699944" lon="9.102594293653965">
        <ele>419.272216796875</ele>
        <time>2007-11-11T07:48:45Z</time>
      </trkpt>
      <trkpt lat="45.809199074283242" lon="9.102407461032271">
        <ele>419.7528076171875</ele>
        <time>2007-11-11T07:49:03Z</time>
      </trkpt>
      <trkpt lat="45.809330921620131" lon="9.102192297577858">
        <ele>421.19482421875</ele>
        <time>2007-11-11T07:49:24Z</time>
      </trkpt>
      <trkpt lat="45.809411974623799" lon="9.101927261799574">
        <ele>422.156005859375</ele>
        <time>2007-11-11T07:49:46Z</time>
      </trkpt>
      <trkpt lat="45.809527477249503" lon="9.101709751412273">
        <ele>425.0401611328125</ele>
        <time>2007-11-11T07:50:08Z</time>
      </trkpt>
      <trkpt lat="45.809682123363018" lon="9.101564744487405">
        <ele>426.4820556640625</ele>
        <time>2007-11-11T07:50:29Z</time>
      </trkpt>
      <trkpt lat="45.809852946549654" lon="9.101442955434322">
        <ele>427.9239501953125</ele>
        <time>2007-11-11T07:50:54Z</time>
      </trkpt>
      <trkpt lat="45.810050591826439" lon="9.101317562162876">
        <ele>429.8465576171875</ele>
        <time>2007-11-11T07:51:18Z</time>
      </trkpt>
      <trkpt lat="45.810148492455482" lon="9.101051855832338">
        <ele>431.7691650390625</ele>
        <time>2007-11-11T07:51:39Z</time>
      </trkpt>
      <trkpt lat="45.810231976211071" lon="9.100786484777927">
        <ele>432.730712890625</ele>
        <time>2007-11-11T07:52:00Z</time>
      </trkpt>
      <trkpt lat="45.810368098318577" lon="9.100606022402644">
        <ele>434.172607421875</ele>
        <time>2007-11-11T07:52:19Z</time>
      </trkpt>
      <trkpt lat="45.810478739440441" lon="9.100791681557894">
        <ele>437.0565185546875</ele>
        <time>2007-11-11T07:52:30Z</time>
      </trkpt>
      <trkpt lat="45.810437416657805" lon="9.101045820862055">
        <ele>438.017822265625</ele>
        <time>2007-11-11T07:52:39Z</time>
      </trkpt>
      <trkpt lat="45.810357872396708" lon="9.101311694830656">
        <ele>439.459716796875</ele>
        <time>2007-11-11T07:52:48Z</time>
      </trkpt>
      <trkpt lat="45.810242537409067" lon="9.10155426710844">
        <ele>440.4212646484375</ele>
        <time>2007-11-11T07:52:57Z</time>
      </trkpt>
      <trkpt lat="45.810092836618423" lon="9.101738082244992">
        <ele>442.3438720703125</ele>
        <time>2007-11-11T07:53:06Z</time>
      </trkpt>
      <trkpt lat="45.809962330386043" lon="9.101930279284716">
        <ele>444.2664794921875</ele>
        <time>2007-11-11T07:53:15Z</time>
      </trkpt>
      <trkpt lat="45.809863926842809" lon="9.102172935381532">
        <ele>445.7083740234375</ele>
        <time>2007-11-11T07:53:25Z</time>
      </trkpt>
      <trkpt lat="45.809807348996401" lon="9.10243134945631">
        <ele>448.5924072265625</ele>
        <time>2007-11-11T07:53:35Z</time>
      </trkpt>
      <trkpt lat="45.809755297377706" lon="9.102686243131757">
        <ele>451.95703125</ele>
        <time>2007-11-11T07:53:45Z</time>
      </trkpt>
      <trkpt lat="45.809698132798076" lon="9.102962762117386">
        <ele>454.3602294921875</ele>
        <time>2007-11-11T07:53:55Z</time>
      </trkpt>
      <trkpt lat="45.809660833328962" lon="9.103243388235569">
        <ele>458.20556640625</ele>
        <time>2007-11-11T07:54:11Z</time>
      </trkpt>
      <trkpt lat="45.809599980711937" lon="9.103522254154086">
        <ele>460.6087646484375</ele>
        <time>2007-11-11T07:54:32Z</time>
      </trkpt>
      <trkpt lat="45.80954298377037" lon="9.103768598288298">
        <ele>463.0120849609375</ele>
        <time>2007-11-11T07:54:52Z</time>
      </trkpt>
      <trkpt lat="45.809495458379388" lon="9.10401108674705">
        <ele>464.4541015625</ele>
        <time>2007-11-11T07:55:09Z</time>
      </trkpt>
      <trkpt lat="45.80944231711328" lon="9.104261454194784">
        <ele>467.8187255859375</ele>
        <time>2007-11-11T07:55:26Z</time>
      </trkpt>
      <trkpt lat="45.809414489194751" lon="9.104516096413136">
        <ele>470.221923828125</ele>
        <time>2007-11-11T07:55:43Z</time>
      </trkpt>
      <trkpt lat="45.809564776718616" lon="9.104541158303618">
        <ele>471.6639404296875</ele>
        <time>2007-11-11T07:55:57Z</time>
      </trkpt>
      <trkpt lat="45.809592185541987" lon="9.104282325133681">
        <ele>471.183349609375</ele>
        <time>2007-11-11T07:57:57Z</time>
      </trkpt>
      <trkpt lat="45.809735767543316" lon="9.104035729542375">
        <ele>473.586669921875</ele>
        <time>2007-11-11T07:58:15Z</time>
      </trkpt>
      <trkpt lat="45.809850851073861" lon="9.103806484490633">
        <ele>476.4705810546875</ele>
        <time>2007-11-11T07:58:32Z</time>
      </trkpt>
      <trkpt lat="45.809970293194056" lon="9.103535832837224">
        <ele>478.8739013671875</ele>
        <time>2007-11-11T07:58:50Z</time>
      </trkpt>
      <trkpt lat="45.81012787297368" lon="9.103335840627551">
        <ele>481.2772216796875</ele>
        <time>2007-11-11T07:59:09Z</time>
      </trkpt>
      <trkpt lat="45.810374887660146" lon="9.103183960542083">
        <ele>483.680419921875</ele>
        <time>2007-11-11T07:59:36Z</time>
      </trkpt>
      <trkpt lat="45.810591476038098" lon="9.10308756865561">
        <ele>486.564453125</ele>
        <time>2007-11-11T07:59:59Z</time>
      </trkpt>
      <trkpt lat="45.810784930363297" lon="9.102971898391843">
        <ele>489.9290771484375</ele>
        <time>2007-11-11T08:00:18Z</time>
      </trkpt>
      <trkpt lat="45.810735477134585" lon="9.103129394352436">
        <ele>491.8516845703125</ele>
        <time>2007-11-11T08:00:37Z</time>
      </trkpt>
      <trkpt lat="45.810594325885177" lon="9.103299798443914">
        <ele>493.2935791015625</ele>
        <time>2007-11-11T08:00:59Z</time>
      </trkpt>
      <trkpt lat="45.810460969805717" lon="9.103486631065607">
        <ele>494.2550048828125</ele>
        <time>2007-11-11T08:01:22Z</time>
      </trkpt>
      <trkpt lat="45.81035703420639" lon="9.103692322969437">
        <ele>496.177734375</ele>
        <time>2007-11-11T08:01:45Z</time>
      </trkpt>
      <trkpt lat="45.810306575149298" lon="9.10392701625824">
        <ele>498.100341796875</ele>
        <time>2007-11-11T08:02:08Z</time>
      </trkpt>
      <trkpt lat="45.810282099992037" lon="9.104186184704304">
        <ele>499.542236328125</ele>
        <time>2007-11-11T08:02:32Z</time>
      </trkpt>
      <trkpt lat="45.810299450531602" lon="9.104404784739018">
        <ele>502.4261474609375</ele>
        <time>2007-11-11T08:02:53Z</time>
      </trkpt>
      <trkpt lat="45.810418389737606" lon="9.10421728156507">
        <ele>504.348876953125</ele>
        <time>2007-11-11T08:03:15Z</time>
      </trkpt>
      <trkpt lat="45.810556523501873" lon="9.103940846398473">
        <ele>506.271484375</ele>
        <time>2007-11-11T08:03:35Z</time>
      </trkpt>
      <trkpt lat="45.810721982270479" lon="9.103767089545727">
        <ele>510.11669921875</ele>
        <time>2007-11-11T08:03:52Z</time>
      </trkpt>
      <trkpt lat="45.81091015599668" lon="9.103618059307337">
        <ele>512.52001953125</ele>
        <time>2007-11-11T08:04:09Z</time>
      </trkpt>
      <trkpt lat="45.811068154871464" lon="9.103412283584476">
        <ele>514.92333984375</ele>
        <time>2007-11-11T08:04:25Z</time>
      </trkpt>
      <trkpt lat="45.811220537871122" lon="9.103232491761446">
        <ele>517.32666015625</ele>
        <time>2007-11-11T08:04:40Z</time>
      </trkpt>
      <trkpt lat="45.811367472633719" lon="9.103029146790505">
        <ele>519.7298583984375</ele>
        <time>2007-11-11T08:04:55Z</time>
      </trkpt>
      <trkpt lat="45.811460679396987" lon="9.103014394640923">
        <ele>522.1331787109375</ele>
        <time>2007-11-11T08:05:10Z</time>
      </trkpt>
      <trkpt lat="45.811333190649748" lon="9.10322729498148">
        <ele>524.0557861328125</ele>
        <time>2007-11-11T08:05:23Z</time>
      </trkpt>
      <trkpt lat="45.81124484539032" lon="9.1034628264606">
        <ele>525.9783935546875</ele>
        <time>2007-11-11T08:05:36Z</time>
      </trkpt>
      <trkpt lat="45.811154069378972" lon="9.103695256635547">
        <ele>528.3818359375</ele>
        <time>2007-11-11T08:05:49Z</time>
      </trkpt>
      <trkpt lat="45.811070837080479" lon="9.103920897468925">
        <ele>530.78515625</ele>
        <time>2007-11-11T08:06:02Z</time>
      </trkpt>
      <trkpt lat="45.810974277555943" lon="9.104154668748379">
        <ele>533.1883544921875</ele>
        <time>2007-11-11T08:06:16Z</time>
      </trkpt>
      <trkpt lat="45.810910742729902" lon="9.104403862729669">
        <ele>535.591552734375</ele>
        <time>2007-11-11T08:06:30Z</time>
      </trkpt>
      <trkpt lat="45.810948545113206" lon="9.104666132479906">
        <ele>537.9949951171875</ele>
        <time>2007-11-11T08:06:44Z</time>
      </trkpt>
      <trkpt lat="45.811044350266457" lon="9.104890851303935">
        <ele>538.4757080078125</ele>
        <time>2007-11-11T08:06:58Z</time>
      </trkpt>
      <trkpt lat="45.811129929497838" lon="9.105169549584389">
        <ele>542.3209228515625</ele>
        <time>2007-11-11T08:07:14Z</time>
      </trkpt>
      <trkpt lat="45.81115834414959" lon="9.10544715821743">
        <ele>545.204833984375</ele>
        <time>2007-11-11T08:07:29Z</time>
      </trkpt>
      <trkpt lat="45.811181226745248" lon="9.105726862326264">
        <ele>547.608154296875</ele>
        <time>2007-11-11T08:07:43Z</time>
      </trkpt>
      <trkpt lat="45.811286838725209" lon="9.105618065223098">
        <ele>550.011474609375</ele>
        <time>2007-11-11T08:07:55Z</time>
      </trkpt>
      <trkpt lat="45.811256244778633" lon="9.105350766330957">
        <ele>550.97265625</ele>
        <time>2007-11-11T08:08:05Z</time>
      </trkpt>
      <trkpt lat="45.811254819855094" lon="9.105058824643493">
        <ele>553.856689453125</ele>
        <time>2007-11-11T08:08:17Z</time>
      </trkpt>
      <trkpt lat="45.811247359961271" lon="9.104783060029149">
        <ele>554.81787109375</ele>
        <time>2007-11-11T08:08:29Z</time>
      </trkpt>
      <trkpt lat="45.811279378831387" lon="9.104507379233837">
        <ele>557.221435546875</ele>
        <time>2007-11-11T08:08:41Z</time>
      </trkpt>
      <trkpt lat="45.811379039660096" lon="9.104255838319659">
        <ele>559.14404296875</ele>
        <time>2007-11-11T08:08:52Z</time>
      </trkpt>
      <trkpt lat="45.81154533661902" lon="9.104062970727682">
        <ele>561.54736328125</ele>
        <time>2007-11-11T08:09:03Z</time>
      </trkpt>
      <trkpt lat="45.811717249453068" lon="9.103869432583451">
        <ele>564.43115234375</ele>
        <time>2007-11-11T08:09:14Z</time>
      </trkpt>
      <trkpt lat="45.811850186437368" lon="9.103672541677952">
        <ele>565.873291015625</ele>
        <time>2007-11-11T08:09:24Z</time>
      </trkpt>
      <trkpt lat="45.811971891671419" lon="9.103449331596494">
        <ele>568.2763671875</ele>
        <time>2007-11-11T08:09:35Z</time>
      </trkpt>
      <trkpt lat="45.812083370983601" lon="9.10322142764926">
        <ele>568.757080078125</ele>
        <time>2007-11-11T08:09:45Z</time>
      </trkpt>
      <trkpt lat="45.812206417322159" lon="9.102971646934748">
        <ele>570.198974609375</ele>
        <time>2007-11-11T08:09:56Z</time>
      </trkpt>
      <trkpt lat="45.812337091192603" lon="9.102765116840601">
        <ele>572.6025390625</ele>
        <time>2007-11-11T08:10:07Z</time>
      </trkpt>
      <trkpt lat="45.812495928257704" lon="9.10257987678051">
        <ele>575.486328125</ele>
        <time>2007-11-11T08:10:17Z</time>
      </trkpt>
      <trkpt lat="45.812652837485075" lon="9.102384578436613">
        <ele>576.928466796875</ele>
        <time>2007-11-11T08:10:27Z</time>
      </trkpt>
      <trkpt lat="45.81276792101562" lon="9.102156925946474">
        <ele>578.85107421875</ele>
        <time>2007-11-11T08:10:38Z</time>
      </trkpt>
      <trkpt lat="45.812907731160522" lon="9.101891554892063">
        <ele>581.73486328125</ele>
        <time>2007-11-11T08:10:49Z</time>
      </trkpt>
      <trkpt lat="45.813106633722782" lon="9.101745542138815">
        <ele>584.13818359375</ele>
        <time>2007-11-11T08:11:00Z</time>
      </trkpt>
      <trkpt lat="45.813306961208582" lon="9.101626686751843">
        <ele>586.54150390625</ele>
        <time>2007-11-11T08:11:11Z</time>
      </trkpt>
      <trkpt lat="45.813496895134449" lon="9.101523924618959">
        <ele>588.46435546875</ele>
        <time>2007-11-11T08:11:21Z</time>
      </trkpt>
      <trkpt lat="45.813712226226926" lon="9.101332146674395">
        <ele>590.386962890625</ele>
        <time>2007-11-11T08:11:40Z</time>
      </trkpt>
      <trkpt lat="45.813868464902043" lon="9.101071888580918">
        <ele>592.790283203125</ele>
        <time>2007-11-11T08:12:04Z</time>
      </trkpt>
      <trkpt lat="45.814006682485342" lon="9.100851025432348">
        <ele>594.232177734375</ele>
        <time>2007-11-11T08:12:27Z</time>
      </trkpt>
      <trkpt lat="45.814131489023566" lon="9.100600322708488">
        <ele>597.115966796875</ele>
        <time>2007-11-11T08:12:50Z</time>
      </trkpt>
      <trkpt lat="45.814292756840587" lon="9.100411897525191">
        <ele>598.557861328125</ele>
        <time>2007-11-11T08:13:15Z</time>
      </trkpt>
      <trkpt lat="45.814498448744416" lon="9.100296646356583">
        <ele>599.519287109375</ele>
        <time>2007-11-11T08:13:38Z</time>
      </trkpt>
      <trkpt lat="45.81473222002387" lon="9.100358756259084">
        <ele>602.8837890625</ele>
        <time>2007-11-11T08:14:14Z</time>
      </trkpt>
      <trkpt lat="45.814981916919351" lon="9.100333191454411">
        <ele>604.326171875</ele>
        <time>2007-11-11T08:14:53Z</time>
      </trkpt>
      <trkpt lat="45.815240833908319" lon="9.100299496203661">
        <ele>606.729248046875</ele>
        <time>2007-11-11T08:15:28Z</time>
      </trkpt>
      <trkpt lat="45.815231362357736" lon="9.100295472890139">
        <ele>608.17138671875</ele>
        <time>2007-11-11T08:15:57Z</time>
      </trkpt>
      <trkpt lat="45.815071184188128" lon="9.100388679653406">
        <ele>610.574462890625</ele>
        <time>2007-11-11T08:16:28Z</time>
      </trkpt>
      <trkpt lat="45.814852165058255" lon="9.100449196994305">
        <ele>612.977783203125</ele>
        <time>2007-11-11T08:17:02Z</time>
      </trkpt>
      <trkpt lat="45.814649658277631" lon="9.100551037117839">
        <ele>614.419677734375</ele>
        <time>2007-11-11T08:17:24Z</time>
      </trkpt>
      <trkpt lat="45.814732471480966" lon="9.100657571107149">
        <ele>615.381103515625</ele>
        <time>2007-11-11T08:17:34Z</time>
      </trkpt>
      <trkpt lat="45.814927853643894" lon="9.100607950240374">
        <ele>618.264892578125</ele>
        <time>2007-11-11T08:17:47Z</time>
      </trkpt>
      <trkpt lat="45.815134299919009" lon="9.10063267685473">
        <ele>619.70703125</ele>
        <time>2007-11-11T08:18:02Z</time>
      </trkpt>
      <trkpt lat="45.815350636839867" lon="9.100633347406983">
        <ele>622.1103515625</ele>
        <time>2007-11-11T08:18:17Z</time>
      </trkpt>
      <trkpt lat="45.815593544393778" lon="9.100630162283778">
        <ele>625.95556640625</ele>
        <time>2007-11-11T08:18:34Z</time>
      </trkpt>
      <trkpt lat="45.81576126627624" lon="9.100794028490782">
        <ele>628.35888671875</ele>
        <time>2007-11-11T08:18:47Z</time>
      </trkpt>
      <trkpt lat="45.81588045693934" lon="9.101002067327499">
        <ele>629.80078125</ele>
        <time>2007-11-11T08:18:59Z</time>
      </trkpt>
      <trkpt lat="45.816047256812453" lon="9.101152857765555">
        <ele>631.242919921875</ele>
        <time>2007-11-11T08:19:11Z</time>
      </trkpt>
      <trkpt lat="45.816254792734981" lon="9.101092675700784">
        <ele>632.684814453125</ele>
        <time>2007-11-11T08:19:22Z</time>
      </trkpt>
      <trkpt lat="45.816462244838476" lon="9.101036852225661">
        <ele>636.049560546875</ele>
        <time>2007-11-11T08:19:33Z</time>
      </trkpt>
      <trkpt lat="45.816677743569016" lon="9.101009191945195">
        <ele>637.97216796875</ele>
        <time>2007-11-11T08:19:44Z</time>
      </trkpt>
      <trkpt lat="45.816879076883197" lon="9.101041378453374">
        <ele>639.894775390625</ele>
        <time>2007-11-11T08:19:57Z</time>
      </trkpt>
      <trkpt lat="45.817094575613737" lon="9.101070547476411">
        <ele>641.8173828125</ele>
        <time>2007-11-11T08:20:09Z</time>
      </trkpt>
      <trkpt lat="45.81735223531723" lon="9.101116228848696">
        <ele>644.701171875</ele>
        <time>2007-11-11T08:20:22Z</time>
      </trkpt>
      <trkpt lat="45.81755792722106" lon="9.101189067587256">
        <ele>647.1044921875</ele>
        <time>2007-11-11T08:20:32Z</time>
      </trkpt>
      <trkpt lat="45.817758338525891" lon="9.101299624890089">
        <ele>649.027099609375</ele>
        <time>2007-11-11T08:20:43Z</time>
      </trkpt>
      <trkpt lat="45.817946428433061" lon="9.101441279053688">
        <ele>651.430419921875</ele>
        <time>2007-11-11T08:20:55Z</time>
      </trkpt>
      <trkpt lat="45.818111887201667" lon="9.101563822478056">
        <ele>652.87255859375</ele>
        <time>2007-11-11T08:21:05Z</time>
      </trkpt>
      <trkpt lat="45.8183519449085" lon="9.101565834134817">
        <ele>655.27587890625</ele>
        <time>2007-11-11T08:21:14Z</time>
      </trkpt>
      <trkpt lat="45.818512123078108" lon="9.101474639028311">
        <ele>656.7177734375</ele>
        <time>2007-11-11T08:21:24Z</time>
      </trkpt>
      <trkpt lat="45.818658638745546" lon="9.101346144452691">
        <ele>658.640380859375</ele>
        <time>2007-11-11T08:21:35Z</time>
      </trkpt>
      <trkpt lat="45.818846393376589" lon="9.101221337914467">
        <ele>660.56298828125</ele>
        <time>2007-11-11T08:21:46Z</time>
      </trkpt>
      <trkpt lat="45.819030124694109" lon="9.101065183058381">
        <ele>662.96630859375</ele>
        <time>2007-11-11T08:21:58Z</time>
      </trkpt>
      <trkpt lat="45.819191727787256" lon="9.100880781188607">
        <ele>664.408203125</ele>
        <time>2007-11-11T08:22:08Z</time>
      </trkpt>
      <trkpt lat="45.819340422749519" lon="9.100707527250052">
        <ele>666.8115234375</ele>
        <time>2007-11-11T08:22:18Z</time>
      </trkpt>
      <trkpt lat="45.819430444389582" lon="9.100462440401316">
        <ele>669.215087890625</ele>
        <time>2007-11-11T08:22:28Z</time>
      </trkpt>
      <trkpt lat="45.819396497681737" lon="9.100173348560929">
        <ele>670.656982421875</ele>
        <time>2007-11-11T08:22:38Z</time>
      </trkpt>
      <trkpt lat="45.81938493065536" lon="9.099905798211694">
        <ele>671.6181640625</ele>
        <time>2007-11-11T08:22:47Z</time>
      </trkpt>
      <trkpt lat="45.819354169070721" lon="9.099593488499522">
        <ele>673.541015625</ele>
        <time>2007-11-11T08:22:57Z</time>
      </trkpt>
      <trkpt lat="45.819440754130483" lon="9.099343959242106">
        <ele>675.944091796875</ele>
        <time>2007-11-11T08:23:06Z</time>
      </trkpt>
      <trkpt lat="45.819583581760526" lon="9.099127370864153">
        <ele>677.38623046875</ele>
        <time>2007-11-11T08:23:15Z</time>
      </trkpt>
      <trkpt lat="45.819752058014274" lon="9.098947243764997">
        <ele>679.30859375</ele>
        <time>2007-11-11T08:23:24Z</time>
      </trkpt>
      <trkpt lat="45.819921623915434" lon="9.098823694512248">
        <ele>682.67333984375</ele>
        <time>2007-11-11T08:23:35Z</time>
      </trkpt>
      <trkpt lat="45.820122370496392" lon="9.098796453326941">
        <ele>684.59619140625</ele>
        <time>2007-11-11T08:23:46Z</time>
      </trkpt>
      <trkpt lat="45.820220354944468" lon="9.098532842472196">
        <ele>685.557373046875</ele>
        <time>2007-11-11T08:23:54Z</time>
      </trkpt>
      <trkpt lat="45.820145085453987" lon="9.098266549408436">
        <ele>686.518798828125</ele>
        <time>2007-11-11T08:24:05Z</time>
      </trkpt>
      <trkpt lat="45.820076772943139" lon="9.098017858341336">
        <ele>687.47998046875</ele>
        <time>2007-11-11T08:24:18Z</time>
      </trkpt>
      <trkpt lat="45.819851132109761" lon="9.097800431773067">
        <ele>686.999267578125</ele>
        <time>2007-11-11T08:24:30Z</time>
      </trkpt>
      <trkpt lat="45.819727331399918" lon="9.097516285255551">
        <ele>684.59619140625</ele>
        <time>2007-11-11T08:24:39Z</time>
      </trkpt>
      <trkpt lat="45.819599758833647" lon="9.097323166206479">
        <ele>685.076904296875</ele>
        <time>2007-11-11T08:24:44Z</time>
      </trkpt>
      <trkpt lat="45.819383589550853" lon="9.097211770713329">
        <ele>685.557373046875</ele>
        <time>2007-11-11T08:24:52Z</time>
      </trkpt>
      <trkpt lat="45.819189129397273" lon="9.097131974995136">
        <ele>685.076904296875</ele>
        <time>2007-11-11T08:24:59Z</time>
      </trkpt>
      <trkpt lat="45.819044876843691" lon="9.097015047445893">
        <ele>685.557373046875</ele>
        <time>2007-11-11T08:25:05Z</time>
      </trkpt>
      <trkpt lat="45.818886123597622" lon="9.096864173188806">
        <ele>684.59619140625</ele>
        <time>2007-11-11T08:25:12Z</time>
      </trkpt>
      <trkpt lat="45.818729633465409" lon="9.09674565307796">
        <ele>684.115478515625</ele>
        <time>2007-11-11T08:25:19Z</time>
      </trkpt>
      <trkpt lat="45.818528970703483" lon="9.096611039713025">
        <ele>685.557373046875</ele>
        <time>2007-11-11T08:25:28Z</time>
      </trkpt>
      <trkpt lat="45.818356722593307" lon="9.096433343365789">
        <ele>687.47998046875</ele>
        <time>2007-11-11T08:25:45Z</time>
      </trkpt>
      <trkpt lat="45.818150863051414" lon="9.096067724749446">
        <ele>690.364013671875</ele>
        <time>2007-11-11T08:26:24Z</time>
      </trkpt>
      <trkpt lat="45.818057572469115" lon="9.095791792497039">
        <ele>693.728515625</ele>
        <time>2007-11-11T08:26:44Z</time>
      </trkpt>
      <trkpt lat="45.818044161424041" lon="9.09550697542727">
        <ele>693.728515625</ele>
        <time>2007-11-11T08:26:57Z</time>
      </trkpt>
      <trkpt lat="45.81814918667078" lon="9.095289716497064">
        <ele>693.247802734375</ele>
        <time>2007-11-11T08:27:07Z</time>
      </trkpt>
      <trkpt lat="45.818317327648401" lon="9.095153259113431">
        <ele>691.805908203125</ele>
        <time>2007-11-11T08:27:14Z</time>
      </trkpt>
      <trkpt lat="45.818508435040712" lon="9.095122162252665">
        <ele>691.805908203125</ele>
        <time>2007-11-11T08:27:21Z</time>
      </trkpt>
      <trkpt lat="45.81869937479496" lon="9.095117636024952">
        <ele>691.3251953125</ele>
        <time>2007-11-11T08:27:27Z</time>
      </trkpt>
      <trkpt lat="45.81889727152884" lon="9.095122497528791">
        <ele>690.844482421875</ele>
        <time>2007-11-11T08:27:34Z</time>
      </trkpt>
      <trkpt lat="45.819106567651033" lon="9.095140434801579">
        <ele>690.844482421875</ele>
        <time>2007-11-11T08:27:40Z</time>
      </trkpt>
      <trkpt lat="45.8193379919976" lon="9.095110846683383">
        <ele>688.922119140625</ele>
        <time>2007-11-11T08:27:46Z</time>
      </trkpt>
      <trkpt lat="45.819534799084067" lon="9.095140099525452">
        <ele>690.364013671875</ele>
        <time>2007-11-11T08:27:51Z</time>
      </trkpt>
      <trkpt lat="45.819770582020283" lon="9.095151834189892">
        <ele>691.805908203125</ele>
        <time>2007-11-11T08:28:01Z</time>
      </trkpt>
      <trkpt lat="45.819990355521441" lon="9.095124257728458">
        <ele>694.209228515625</ele>
        <time>2007-11-11T08:28:14Z</time>
      </trkpt>
      <trkpt lat="45.820196298882365" lon="9.095102464780211">
        <ele>696.612548828125</ele>
        <time>2007-11-11T08:28:28Z</time>
      </trkpt>
      <trkpt lat="45.820412049070001" lon="9.095058459788561">
        <ele>698.534912109375</ele>
        <time>2007-11-11T08:28:41Z</time>
      </trkpt>
      <trkpt lat="45.820618746802211" lon="9.095015879720449">
        <ele>700.4580078125</ele>
        <time>2007-11-11T08:28:53Z</time>
      </trkpt>
      <trkpt lat="45.820823516696692" lon="9.095001462846994">
        <ele>701.89990234375</ele>
        <time>2007-11-11T08:29:06Z</time>
      </trkpt>
      <trkpt lat="45.821014372631907" lon="9.094911776483059">
        <ele>704.30322265625</ele>
        <time>2007-11-11T08:29:19Z</time>
      </trkpt>
      <trkpt lat="45.821178825572133" lon="9.09477548673749">
        <ele>707.18701171875</ele>
        <time>2007-11-11T08:29:33Z</time>
      </trkpt>
      <trkpt lat="45.821109255775809" lon="9.095002384856343">
        <ele>708.62890625</ele>
        <time>2007-11-11T08:29:45Z</time>
      </trkpt>
      <trkpt lat="45.821088720113039" lon="9.095285022631288">
        <ele>711.0322265625</ele>
        <time>2007-11-11T08:29:57Z</time>
      </trkpt>
      <trkpt lat="45.820899624377489" lon="9.095401028171182">
        <ele>714.396728515625</ele>
        <time>2007-11-11T08:30:11Z</time>
      </trkpt>
      <trkpt lat="45.820680940523744" lon="9.095378061756492">
        <ele>716.319580078125</ele>
        <time>2007-11-11T08:30:23Z</time>
      </trkpt>
      <trkpt lat="45.820513386279345" lon="9.095468251034617">
        <ele>717.761474609375</ele>
        <time>2007-11-11T08:30:34Z</time>
      </trkpt>
      <trkpt lat="45.820312639698386" lon="9.095609150826931">
        <ele>719.20361328125</ele>
        <time>2007-11-11T08:30:46Z</time>
      </trkpt>
      <trkpt lat="45.820198897272348" lon="9.095820290967822">
        <ele>720.6455078125</ele>
        <time>2007-11-11T08:30:56Z</time>
      </trkpt>
      <trkpt lat="45.820153634995222" lon="9.096058420836926">
        <ele>721.606689453125</ele>
        <time>2007-11-11T08:31:05Z</time>
      </trkpt>
      <trkpt lat="45.820304173976183" lon="9.096264783293009">
        <ele>722.568115234375</ele>
        <time>2007-11-11T08:31:16Z</time>
      </trkpt>
      <trkpt lat="45.820490587502718" lon="9.096398893743753">
        <ele>725.451904296875</ele>
        <time>2007-11-11T08:31:27Z</time>
      </trkpt>
      <trkpt lat="45.820710444822907" lon="9.096538368612528">
        <ele>727.855224609375</ele>
        <time>2007-11-11T08:31:41Z</time>
      </trkpt>
      <trkpt lat="45.820911694318056" lon="9.096642723307014">
        <ele>730.7392578125</ele>
        <time>2007-11-11T08:31:53Z</time>
      </trkpt>
      <trkpt lat="45.821213694289327" lon="9.09680281765759">
        <ele>734.10400390625</ele>
        <time>2007-11-11T08:32:13Z</time>
      </trkpt>
      <trkpt lat="45.821413518860936" lon="9.096886971965432">
        <ele>736.50732421875</ele>
        <time>2007-11-11T08:32:24Z</time>
      </trkpt>
      <trkpt lat="45.821625916287303" lon="9.097051676362753">
        <ele>739.39111328125</ele>
        <time>2007-11-11T08:32:36Z</time>
      </trkpt>
      <trkpt lat="45.821795398369431" lon="9.097071876749396">
        <ele>740.3525390625</ele>
        <time>2007-11-11T08:32:45Z</time>
      </trkpt>
      <trkpt lat="45.821647960692644" lon="9.096858389675617">
        <ele>741.313720703125</ele>
        <time>2007-11-11T08:32:54Z</time>
      </trkpt>
      <trkpt lat="45.821488033980131" lon="9.096670551225543">
        <ele>743.236328125</ele>
        <time>2007-11-11T08:33:03Z</time>
      </trkpt>
      <trkpt lat="45.821381919085979" lon="9.096440887078643">
        <ele>745.6396484375</ele>
        <time>2007-11-11T08:33:12Z</time>
      </trkpt>
      <trkpt lat="45.821578474715352" lon="9.096489418298006">
        <ele>746.60107421875</ele>
        <time>2007-11-11T08:33:20Z</time>
      </trkpt>
      <trkpt lat="45.821790788322687" lon="9.096572231501341">
        <ele>749.485107421875</ele>
        <time>2007-11-11T08:33:32Z</time>
      </trkpt>
      <trkpt lat="45.822020871564746" lon="9.096631659194827">
        <ele>750.927001953125</ele>
        <time>2007-11-11T08:33:44Z</time>
      </trkpt>
      <trkpt lat="45.822226563468575" lon="9.096663342788816">
        <ele>752.368896484375</ele>
        <time>2007-11-11T08:34:04Z</time>
      </trkpt>
      <trkpt lat="45.82247843965888" lon="9.096713634207845">
        <ele>757.65625</ele>
        <time>2007-11-11T08:34:35Z</time>
      </trkpt>
      <trkpt lat="45.82305503077805" lon="9.096855539828539">
        <ele>763.424072265625</ele>
        <time>2007-11-11T08:36:03Z</time>
      </trkpt>
      <trkpt lat="45.823319563642144" lon="9.096946064382792">
        <ele>765.82763671875</ele>
        <time>2007-11-11T08:36:49Z</time>
      </trkpt>
      <trkpt lat="45.823592897504568" lon="9.097050838172436">
        <ele>769.192138671875</ele>
        <time>2007-11-11T08:37:30Z</time>
      </trkpt>
      <trkpt lat="45.823927754536271" lon="9.097238760441542">
        <ele>772.075927734375</ele>
        <time>2007-11-11T08:38:45Z</time>
      </trkpt>
      <trkpt lat="45.824083657935262" lon="9.097303552553058">
        <ele>774.479248046875</ele>
        <time>2007-11-11T08:38:58Z</time>
      </trkpt>
      <trkpt lat="45.824276022613049" lon="9.097318472340703">
        <ele>776.40185546875</ele>
        <time>2007-11-11T08:39:10Z</time>
      </trkpt>
      <trkpt lat="45.82445883192122" lon="9.097279161214829">
        <ele>778.324462890625</ele>
        <time>2007-11-11T08:39:22Z</time>
      </trkpt>
      <trkpt lat="45.82464256323874" lon="9.097187966108322">
        <ele>780.247314453125</ele>
        <time>2007-11-11T08:39:33Z</time>
      </trkpt>
      <trkpt lat="45.824810033664107" lon="9.097191737964749">
        <ele>782.650634765625</ele>
        <time>2007-11-11T08:39:43Z</time>
      </trkpt>
      <trkpt lat="45.82464843057096" lon="9.097293997183442">
        <ele>784.092529296875</ele>
        <time>2007-11-11T08:39:53Z</time>
      </trkpt>
      <trkpt lat="45.824502250179648" lon="9.097443027421832">
        <ele>786.01513671875</ele>
        <time>2007-11-11T08:40:04Z</time>
      </trkpt>
      <trkpt lat="45.824430752545595" lon="9.097697334364057">
        <ele>787.937744140625</ele>
        <time>2007-11-11T08:40:15Z</time>
      </trkpt>
      <trkpt lat="45.824415665119886" lon="9.09795306622982">
        <ele>788.41845703125</ele>
        <time>2007-11-11T08:40:25Z</time>
      </trkpt>
      <trkpt lat="45.824362523853779" lon="9.098212737590075">
        <ele>791.30224609375</ele>
        <time>2007-11-11T08:40:36Z</time>
      </trkpt>
      <trkpt lat="45.824380964040756" lon="9.098483053967357">
        <ele>793.70556640625</ele>
        <time>2007-11-11T08:40:48Z</time>
      </trkpt>
      <trkpt lat="45.824327655136585" lon="9.098751777783036">
        <ele>796.109130859375</ele>
        <time>2007-11-11T08:41:00Z</time>
      </trkpt>
      <trkpt lat="45.823991624638438" lon="9.09880181774497">
        <ele>797.551025390625</ele>
        <time>2007-11-11T08:41:13Z</time>
      </trkpt>
      <trkpt lat="45.823786184191704" lon="9.098910866305232">
        <ele>800.43505859375</ele>
        <time>2007-11-11T08:41:25Z</time>
      </trkpt>
      <trkpt lat="45.823582168668509" lon="9.098980687558651">
        <ele>801.876953125</ele>
        <time>2007-11-11T08:41:37Z</time>
      </trkpt>
      <trkpt lat="45.823394330218434" lon="9.099107841029763">
        <ele>804.2802734375</ele>
        <time>2007-11-11T08:41:49Z</time>
      </trkpt>
      <trkpt lat="45.823257872834802" lon="9.099320825189352">
        <ele>807.1640625</ele>
        <time>2007-11-11T08:42:01Z</time>
      </trkpt>
      <trkpt lat="45.823224848136306" lon="9.099571192637086">
        <ele>808.12548828125</ele>
        <time>2007-11-11T08:42:12Z</time>
      </trkpt>
      <trkpt lat="45.823313863947988" lon="9.099815189838409">
        <ele>810.0478515625</ele>
        <time>2007-11-11T08:42:23Z</time>
      </trkpt>
      <trkpt lat="45.823459792882204" lon="9.099938571453095">
        <ele>812.93212890625</ele>
        <time>2007-11-11T08:42:35Z</time>
      </trkpt>
      <trkpt lat="45.823637740686536" lon="9.09987679682672">
        <ele>814.854736328125</ele>
        <time>2007-11-11T08:42:48Z</time>
      </trkpt>
      <trkpt lat="45.823927670717239" lon="9.099893560633063">
        <ele>819.1806640625</ele>
        <time>2007-11-11T08:43:08Z</time>
      </trkpt>
      <trkpt lat="45.824079299345613" lon="9.100027084350586">
        <ele>820.62255859375</ele>
        <time>2007-11-11T08:43:22Z</time>
      </trkpt>
      <trkpt lat="45.824215253815055" lon="9.100231770426035">
        <ele>824.4677734375</ele>
        <time>2007-11-11T08:43:34Z</time>
      </trkpt>
      <trkpt lat="45.824156496673822" lon="9.100443832576275">
        <ele>825.90966796875</ele>
        <time>2007-11-11T08:43:45Z</time>
      </trkpt>
      <trkpt lat="45.824284739792347" lon="9.100802578032017">
        <ele>827.351806640625</ele>
        <time>2007-11-11T08:44:12Z</time>
      </trkpt>
      <trkpt lat="45.824448019266129" lon="9.100564029067755">
        <ele>829.2744140625</ele>
        <time>2007-11-11T08:44:09Z</time>
      </trkpt>
      <trkpt lat="45.824440727010369" lon="9.100281139835715">
        <ele>831.677734375</ele>
        <time>2007-11-11T08:44:19Z</time>
      </trkpt>
      <trkpt lat="45.824438547715545" lon="9.10000478848815">
        <ele>834.561767578125</ele>
        <time>2007-11-11T08:44:30Z</time>
      </trkpt>
      <trkpt lat="45.82452286966145" lon="9.099750816822052">
        <ele>836.003662109375</ele>
        <time>2007-11-11T08:44:41Z</time>
      </trkpt>
      <trkpt lat="45.824687322601676" lon="9.099578149616718">
        <ele>837.92626953125</ele>
        <time>2007-11-11T08:44:53Z</time>
      </trkpt>
      <trkpt lat="45.82487122155726" lon="9.099422497674823">
        <ele>840.81005859375</ele>
        <time>2007-11-11T08:45:07Z</time>
      </trkpt>
      <trkpt lat="45.825069285929203" lon="9.099309677258134">
        <ele>843.694091796875</ele>
        <time>2007-11-11T08:45:17Z</time>
      </trkpt>
      <trkpt lat="45.825190991163254" lon="9.099082024767995">
        <ele>846.09765625</ele>
        <time>2007-11-11T08:45:27Z</time>
      </trkpt>
      <trkpt lat="45.825301632285118" lon="9.098997786641121">
        <ele>848.020263671875</ele>
        <time>2007-11-11T08:45:37Z</time>
      </trkpt>
      <trkpt lat="45.825210772454739" lon="9.09922594204545">
        <ele>848.9814453125</ele>
        <time>2007-11-11T08:45:46Z</time>
      </trkpt>
      <trkpt lat="45.825094934552908" lon="9.099455857649446">
        <ele>851.384765625</ele>
        <time>2007-11-11T08:45:56Z</time>
      </trkpt>
      <trkpt lat="45.824990076944232" lon="9.099704716354609">
        <ele>852.82666015625</ele>
        <time>2007-11-11T08:46:07Z</time>
      </trkpt>
      <trkpt lat="45.82494992762804" lon="9.09997595474124">
        <ele>855.710693359375</ele>
        <time>2007-11-11T08:46:17Z</time>
      </trkpt>
      <trkpt lat="45.825052270665765" lon="9.10019489005208">
        <ele>858.594482421875</ele>
        <time>2007-11-11T08:46:27Z</time>
      </trkpt>
      <trkpt lat="45.82517514936626" lon="9.100367473438382">
        <ele>859.555908203125</ele>
        <time>2007-11-11T08:46:36Z</time>
      </trkpt>
      <trkpt lat="45.825255447998643" lon="9.100620271638036">
        <ele>861.478759765625</ele>
        <time>2007-11-11T08:46:45Z</time>
      </trkpt>
      <trkpt lat="45.82513072527945" lon="9.10083887167275">
        <ele>864.362548828125</ele>
        <time>2007-11-11T08:46:58Z</time>
      </trkpt>
      <trkpt lat="45.825124271214008" lon="9.101118324324489">
        <ele>866.765869140625</ele>
        <time>2007-11-11T08:47:17Z</time>
      </trkpt>
      <trkpt lat="45.825035339221358" lon="9.1013318952173">
        <ele>867.72705078125</ele>
        <time>2007-11-11T08:47:36Z</time>
      </trkpt>
      <trkpt lat="45.825105998665094" lon="9.101552339270711">
        <ele>870.13037109375</ele>
        <time>2007-11-11T08:47:56Z</time>
      </trkpt>
      <trkpt lat="45.825215885415673" lon="9.101753421127796">
        <ele>873.014404296875</ele>
        <time>2007-11-11T08:48:16Z</time>
      </trkpt>
      <trkpt lat="45.825301967561245" lon="9.102029521018267">
        <ele>874.456298828125</ele>
        <time>2007-11-11T08:48:38Z</time>
      </trkpt>
      <trkpt lat="45.825373381376266" lon="9.102288940921426">
        <ele>876.85986328125</ele>
        <time>2007-11-11T08:48:57Z</time>
      </trkpt>
      <trkpt lat="45.825386457145214" lon="9.102551965042949">
        <ele>877.821044921875</ele>
        <time>2007-11-11T08:49:21Z</time>
      </trkpt>
      <trkpt lat="45.825558453798294" lon="9.102823035791516">
        <ele>879.262939453125</ele>
        <time>2007-11-11T08:49:47Z</time>
      </trkpt>
      <trkpt lat="45.825697090476751" lon="9.102959493175149">
        <ele>882.14697265625</ele>
        <time>2007-11-11T08:50:08Z</time>
      </trkpt>
      <trkpt lat="45.825833044946194" lon="9.10274357534945">
        <ele>882.14697265625</ele>
        <time>2007-11-11T08:50:32Z</time>
      </trkpt>
      <trkpt lat="45.825819382444024" lon="9.102772828191519">
        <ele>882.627685546875</ele>
        <time>2007-11-11T08:50:53Z</time>
      </trkpt>
      <trkpt lat="45.825668340548873" lon="9.102965276688337">
        <ele>882.627685546875</ele>
        <time>2007-11-11T08:51:17Z</time>
      </trkpt>
      <trkpt lat="45.825652750208974" lon="9.103235257789493">
        <ele>885.031005859375</ele>
        <time>2007-11-11T08:51:33Z</time>
      </trkpt>
      <trkpt lat="45.825692731887102" lon="9.103463077917695">
        <ele>886.472900390625</ele>
        <time>2007-11-11T08:52:08Z</time>
      </trkpt>
      <trkpt lat="45.825472874566913" lon="9.103619484230876">
        <ele>888.3955078125</ele>
        <time>2007-11-11T08:52:21Z</time>
      </trkpt>
      <trkpt lat="45.82531395368278" lon="9.103783685714006">
        <ele>889.356689453125</ele>
        <time>2007-11-11T08:52:31Z</time>
      </trkpt>
      <trkpt lat="45.82518151961267" lon="9.104023827239871">
        <ele>891.760009765625</ele>
        <time>2007-11-11T08:52:43Z</time>
      </trkpt>
      <trkpt lat="45.825025532394648" lon="9.104186939075589">
        <ele>893.682861328125</ele>
        <time>2007-11-11T08:52:55Z</time>
      </trkpt>
      <trkpt lat="45.824832078069448" lon="9.104348458349705">
        <ele>897.528076171875</ele>
        <time>2007-11-11T08:53:09Z</time>
      </trkpt>
      <trkpt lat="45.824644239619374" lon="9.104511821642518">
        <ele>899.931396484375</ele>
        <time>2007-11-11T08:53:22Z</time>
      </trkpt>
      <trkpt lat="45.824558576568961" lon="9.104762272909284">
        <ele>902.815185546875</ele>
        <time>2007-11-11T08:53:35Z</time>
      </trkpt>
      <trkpt lat="45.824585817754269" lon="9.105011550709605">
        <ele>905.218505859375</ele>
        <time>2007-11-11T08:53:48Z</time>
      </trkpt>
      <trkpt lat="45.824619932100177" lon="9.105256972834468">
        <ele>906.660400390625</ele>
        <time>2007-11-11T08:54:01Z</time>
      </trkpt>
      <trkpt lat="45.824636276811361" lon="9.105560230091214">
        <ele>908.583251953125</ele>
        <time>2007-11-11T08:54:14Z</time>
      </trkpt>
      <trkpt lat="45.824678521603346" lon="9.105864744633436">
        <ele>909.544677734375</ele>
        <time>2007-11-11T08:54:25Z</time>
      </trkpt>
      <trkpt lat="45.824665362015367" lon="9.106171522289515">
        <ele>910.025146484375</ele>
        <time>2007-11-11T08:54:34Z</time>
      </trkpt>
      <trkpt lat="45.824583722278476" lon="9.106476791203022">
        <ele>910.986572265625</ele>
        <time>2007-11-11T08:54:44Z</time>
      </trkpt>
      <trkpt lat="45.824402589350939" lon="9.106639316305518">
        <ele>912.428466796875</ele>
        <time>2007-11-11T08:54:52Z</time>
      </trkpt>
      <trkpt lat="45.824288092553616" lon="9.106713831424713">
        <ele>914.35107421875</ele>
        <time>2007-11-11T08:55:04Z</time>
      </trkpt>
      <trkpt lat="45.824108887463808" lon="9.10677719861269">
        <ele>917.235107421875</ele>
        <time>2007-11-11T08:55:17Z</time>
      </trkpt>
      <trkpt lat="45.823891125619411" lon="9.106743168085814">
        <ele>920.118896484375</ele>
        <time>2007-11-11T08:55:30Z</time>
      </trkpt>
      <trkpt lat="45.823712842538953" lon="9.106758674606681">
        <ele>922.522216796875</ele>
        <time>2007-11-11T08:55:43Z</time>
      </trkpt>
      <trkpt lat="45.823536738753319" lon="9.106803517788649">
        <ele>925.40625</ele>
        <time>2007-11-11T08:55:57Z</time>
      </trkpt>
      <trkpt lat="45.823310259729624" lon="9.106853976845741">
        <ele>928.77099609375</ele>
        <time>2007-11-11T08:56:12Z</time>
      </trkpt>
      <trkpt lat="45.823105070739985" lon="9.106967635452747">
        <ele>931.65478515625</ele>
        <time>2007-11-11T08:56:27Z</time>
      </trkpt>
      <trkpt lat="45.822986885905266" lon="9.107181541621685">
        <ele>933.577392578125</ele>
        <time>2007-11-11T08:56:39Z</time>
      </trkpt>
      <trkpt lat="45.822965931147337" lon="9.107453031465411">
        <ele>935.980712890625</ele>
        <time>2007-11-11T08:56:50Z</time>
      </trkpt>
      <trkpt lat="45.823062658309937" lon="9.107695939019322">
        <ele>937.9033203125</ele>
        <time>2007-11-11T08:57:01Z</time>
      </trkpt>
      <trkpt lat="45.823194421827793" lon="9.107905067503452">
        <ele>939.34521484375</ele>
        <time>2007-11-11T08:57:12Z</time>
      </trkpt>
      <trkpt lat="45.823310846462846" lon="9.108119644224644">
        <ele>942.710205078125</ele>
        <time>2007-11-11T08:57:30Z</time>
      </trkpt>
      <trkpt lat="45.823425175622106" lon="9.108337154611945">
        <ele>945.593994140625</ele>
        <time>2007-11-11T08:57:54Z</time>
      </trkpt>
      <trkpt lat="45.823511173948646" lon="9.108581319451332">
        <ele>947.5166015625</ele>
        <time>2007-11-11T08:58:18Z</time>
      </trkpt>
      <trkpt lat="45.823653833940625" lon="9.108738983049989">
        <ele>949.919921875</ele>
        <time>2007-11-11T09:01:38Z</time>
      </trkpt>
      <trkpt lat="45.823745029047132" lon="9.109026566147804">
        <ele>952.322998046875</ele>
        <time>2007-11-11T09:01:54Z</time>
      </trkpt>
      <trkpt lat="45.823846869170666" lon="9.10929755307734">
        <ele>954.245849609375</ele>
        <time>2007-11-11T09:02:09Z</time>
      </trkpt>
      <trkpt lat="45.823971088975668" lon="9.109551860019565">
        <ele>957.1298828125</ele>
        <time>2007-11-11T09:02:23Z</time>
      </trkpt>
      <trkpt lat="45.824135290458798" lon="9.109761994332075">
        <ele>959.533203125</ele>
        <time>2007-11-11T09:02:39Z</time>
      </trkpt>
      <trkpt lat="45.824319273233414" lon="9.109963830560446">
        <ele>962.4169921875</ele>
        <time>2007-11-11T09:02:55Z</time>
      </trkpt>
      <trkpt lat="45.824509458616376" lon="9.11017656326294">
        <ele>965.301025390625</ele>
        <time>2007-11-11T09:03:08Z</time>
      </trkpt>
      <trkpt lat="45.82466209307313" lon="9.110393235459924">
        <ele>968.184814453125</ele>
        <time>2007-11-11T09:03:20Z</time>
      </trkpt>
      <trkpt lat="45.824837442487478" lon="9.110592724755406">
        <ele>970.588134765625</ele>
        <time>2007-11-11T09:03:33Z</time>
      </trkpt>
      <trkpt lat="45.824974151328206" lon="9.110796572640538">
        <ele>971.06884765625</ele>
        <time>2007-11-11T09:03:42Z</time>
      </trkpt>
      <trkpt lat="45.825030393898487" lon="9.111073594540358">
        <ele>968.184814453125</ele>
        <time>2007-11-11T09:03:47Z</time>
      </trkpt>
      <trkpt lat="45.825091581791639" lon="9.11139277741313">
        <ele>965.301025390625</ele>
        <time>2007-11-11T09:03:51Z</time>
      </trkpt>
      <trkpt lat="45.825141621753573" lon="9.111676421016455">
        <ele>965.78173828125</ele>
        <time>2007-11-11T09:03:56Z</time>
      </trkpt>
      <trkpt lat="45.825193673372269" lon="9.11196299828589">
        <ele>965.78173828125</ele>
        <time>2007-11-11T09:04:04Z</time>
      </trkpt>
      <trkpt lat="45.825260225683451" lon="9.112234571948648">
        <ele>965.301025390625</ele>
        <time>2007-11-11T09:04:11Z</time>
      </trkpt>
      <trkpt lat="45.825335495173931" lon="9.112520143389702">
        <ele>965.301025390625</ele>
        <time>2007-11-11T09:04:18Z</time>
      </trkpt>
      <trkpt lat="45.82547128200531" lon="9.112764559686184">
        <ele>965.78173828125</ele>
        <time>2007-11-11T09:04:30Z</time>
      </trkpt>
      <trkpt lat="45.825657360255718" lon="9.112973939627409">
        <ele>965.78173828125</ele>
        <time>2007-11-11T09:04:50Z</time>
      </trkpt>
      <trkpt lat="45.82581577822566" lon="9.113156078383327">
        <ele>965.78173828125</ele>
        <time>2007-11-11T09:04:57Z</time>
      </trkpt>
      <trkpt lat="45.825995318591595" lon="9.113330086693168">
        <ele>966.26220703125</ele>
        <time>2007-11-11T09:05:04Z</time>
      </trkpt>
      <trkpt lat="45.826153317466378" lon="9.113482469692826">
        <ele>967.7041015625</ele>
        <time>2007-11-11T09:05:10Z</time>
      </trkpt>
      <trkpt lat="45.826342664659023" lon="9.113571485504508">
        <ele>968.184814453125</ele>
        <time>2007-11-11T09:05:16Z</time>
      </trkpt>
      <trkpt lat="45.826564868912101" lon="9.113661674782634">
        <ele>969.146240234375</ele>
        <time>2007-11-11T09:05:22Z</time>
      </trkpt>
      <trkpt lat="45.826777517795563" lon="9.113740548491478">
        <ele>970.107421875</ele>
        <time>2007-11-11T09:05:29Z</time>
      </trkpt>
      <trkpt lat="45.827008439227939" lon="9.11381933838129">
        <ele>970.588134765625</ele>
        <time>2007-11-11T09:05:37Z</time>
      </trkpt>
      <trkpt lat="45.827242378145456" lon="9.113718336448073">
        <ele>971.54931640625</ele>
        <time>2007-11-11T09:05:44Z</time>
      </trkpt>
      <trkpt lat="45.827445890754461" lon="9.113607276231051">
        <ele>971.54931640625</ele>
        <time>2007-11-11T09:05:50Z</time>
      </trkpt>
      <trkpt lat="45.8276735432446" lon="9.113490181043744">
        <ele>971.54931640625</ele>
        <time>2007-11-11T09:05:56Z</time>
      </trkpt>
      <trkpt lat="45.827858783304691" lon="9.113423880189657">
        <ele>972.510986328125</ele>
        <time>2007-11-11T09:06:01Z</time>
      </trkpt>
      <trkpt lat="45.827957941219211" lon="9.113633930683136">
        <ele>972.510986328125</ele>
        <time>2007-11-11T09:06:07Z</time>
      </trkpt>
      <trkpt lat="45.827934723347425" lon="9.113937942311168">
        <ele>972.510986328125</ele>
        <time>2007-11-11T09:06:14Z</time>
      </trkpt>
      <trkpt lat="45.827998258173466" lon="9.114312948659062">
        <ele>973.952880859375</ele>
        <time>2007-11-11T09:06:27Z</time>
      </trkpt>
      <trkpt lat="45.828135134652257" lon="9.114661384373903">
        <ele>975.87548828125</ele>
        <time>2007-11-11T09:06:42Z</time>
      </trkpt>
      <trkpt lat="45.828254157677293" lon="9.114925330504775">
        <ele>978.759521484375</ele>
        <time>2007-11-11T09:06:55Z</time>
      </trkpt>
      <trkpt lat="45.828362954780459" lon="9.115200843662024">
        <ele>980.68212890625</ele>
        <time>2007-11-11T09:07:08Z</time>
      </trkpt>
      <trkpt lat="45.828507039695978" lon="9.115523882210255">
        <ele>982.1240234375</ele>
        <time>2007-11-11T09:07:19Z</time>
      </trkpt>
      <trkpt lat="45.828623631969094" lon="9.11585446447134">
        <ele>983.085205078125</ele>
        <time>2007-11-11T09:07:28Z</time>
      </trkpt>
      <trkpt lat="45.828744666650891" lon="9.116136264055967">
        <ele>985.008056640625</ele>
        <time>2007-11-11T09:07:36Z</time>
      </trkpt>
      <trkpt lat="45.828820019960403" lon="9.116473384201527">
        <ele>986.449951171875</ele>
        <time>2007-11-11T09:07:47Z</time>
      </trkpt>
      <trkpt lat="45.8289151545614" lon="9.116758033633232">
        <ele>988.853515625</ele>
        <time>2007-11-11T09:07:56Z</time>
      </trkpt>
      <trkpt lat="45.829029818996787" lon="9.117008568719029">
        <ele>989.814697265625</ele>
        <time>2007-11-11T09:08:04Z</time>
      </trkpt>
      <trkpt lat="45.82913308404386" lon="9.117249380797148">
        <ele>991.7373046875</ele>
        <time>2007-11-11T09:08:18Z</time>
      </trkpt>
      <trkpt lat="45.829245736822486" lon="9.117472255602479">
        <ele>993.17919921875</ele>
        <time>2007-11-11T09:08:34Z</time>
      </trkpt>
      <trkpt lat="45.829348918050528" lon="9.11767409183085">
        <ele>996.063232421875</ele>
        <time>2007-11-11T09:08:50Z</time>
      </trkpt>
      <trkpt lat="45.829502725973725" lon="9.117843993008137">
        <ele>997.505126953125</ele>
        <time>2007-11-11T09:09:06Z</time>
      </trkpt>
      <trkpt lat="45.829659383744001" lon="9.118035854771733">
        <ele>999.908447265625</ele>
        <time>2007-11-11T09:09:25Z</time>
      </trkpt>
      <trkpt lat="45.829817969352007" lon="9.118213634938002">
        <ele>1004.234619140625</ele>
        <time>2007-11-11T09:09:46Z</time>
      </trkpt>
      <trkpt lat="45.830016536638141" lon="9.118275325745344">
        <ele>1007.118408203125</ele>
        <time>2007-11-11T09:10:08Z</time>
      </trkpt>
      <trkpt lat="45.830225916579366" lon="9.118335843086243">
        <ele>1009.521728515625</ele>
        <time>2007-11-11T09:10:30Z</time>
      </trkpt>
      <trkpt lat="45.830457592383027" lon="9.118400383740664">
        <ele>1014.328125</ele>
        <time>2007-11-11T09:10:51Z</time>
      </trkpt>
      <trkpt lat="45.830622632056475" lon="9.118572128936648">
        <ele>1015.770263671875</ele>
        <time>2007-11-11T09:11:07Z</time>
      </trkpt>
      <trkpt lat="45.830738721415401" lon="9.118846468627453">
        <ele>1018.17333984375</ele>
        <time>2007-11-11T09:11:22Z</time>
      </trkpt>
      <trkpt lat="45.830866461619735" lon="9.119166070595384">
        <ele>1022.49951171875</ele>
        <time>2007-11-11T09:11:41Z</time>
      </trkpt>
      <trkpt lat="45.831035943701863" lon="9.11951475776732">
        <ele>1026.825439453125</ele>
        <time>2007-11-11T09:12:12Z</time>
      </trkpt>
      <trkpt lat="45.831157146021724" lon="9.119823630899191">
        <ele>1030.18994140625</ele>
        <time>2007-11-11T09:12:39Z</time>
      </trkpt>
      <trkpt lat="45.83128304220736" lon="9.120088582858443">
        <ele>1032.112548828125</ele>
        <time>2007-11-11T09:13:02Z</time>
      </trkpt>
      <trkpt lat="45.831388318911195" lon="9.120328053832054">
        <ele>1035.957763671875</ele>
        <time>2007-11-11T09:13:24Z</time>
      </trkpt>
      <trkpt lat="45.831476496532559" lon="9.120570961385965">
        <ele>1039.322509765625</ele>
        <time>2007-11-11T09:13:45Z</time>
      </trkpt>
      <trkpt lat="45.831546736881137" lon="9.120840020477772">
        <ele>1040.764404296875</ele>
        <time>2007-11-11T09:14:05Z</time>
      </trkpt>
      <trkpt lat="45.83162016235292" lon="9.121093573048711">
        <ele>1041.725830078125</ele>
        <time>2007-11-11T09:14:20Z</time>
      </trkpt>
      <trkpt lat="45.831695850938559" lon="9.121348718181253">
        <ele>1042.20654296875</ele>
        <time>2007-11-11T09:14:31Z</time>
      </trkpt>
      <trkpt lat="45.831749495118856" lon="9.121610820293427">
        <ele>1041.725830078125</ele>
        <time>2007-11-11T09:14:42Z</time>
      </trkpt>
      <trkpt lat="45.831823591142893" lon="9.121871329843998">
        <ele>1041.725830078125</ele>
        <time>2007-11-11T09:14:50Z</time>
      </trkpt>
      <trkpt lat="45.831913193687797" lon="9.122127899900079">
        <ele>1041.2451171875</ele>
        <time>2007-11-11T09:14:57Z</time>
      </trkpt>
      <trkpt lat="45.832035485655069" lon="9.122349517419934">
        <ele>1041.2451171875</ele>
        <time>2007-11-11T09:15:06Z</time>
      </trkpt>
      <trkpt lat="45.832146881148219" lon="9.122607931494713">
        <ele>1043.167724609375</ele>
        <time>2007-11-11T09:15:19Z</time>
      </trkpt>
      <trkpt lat="45.832270095124841" lon="9.12285503000021">
        <ele>1043.6484375</ele>
        <time>2007-11-11T09:15:33Z</time>
      </trkpt>
      <trkpt lat="45.832395572215319" lon="9.123071366921067">
        <ele>1045.09033203125</ele>
        <time>2007-11-11T09:15:48Z</time>
      </trkpt>
      <trkpt lat="45.832540579140186" lon="9.123303042724729">
        <ele>1046.0517578125</ele>
        <time>2007-11-11T09:16:03Z</time>
      </trkpt>
      <trkpt lat="45.83266781643033" lon="9.123547542840242">
        <ele>1048.454833984375</ele>
        <time>2007-11-11T09:16:16Z</time>
      </trkpt>
      <trkpt lat="45.832821959629655" lon="9.123769998550415">
        <ele>1049.89697265625</ele>
        <time>2007-11-11T09:16:30Z</time>
      </trkpt>
      <trkpt lat="45.832960261031985" lon="9.124003686010838">
        <ele>1051.819580078125</ele>
        <time>2007-11-11T09:16:41Z</time>
      </trkpt>
      <trkpt lat="45.833067884668708" lon="9.124281881377101">
        <ele>1052.30029296875</ele>
        <time>2007-11-11T09:16:53Z</time>
      </trkpt>
      <trkpt lat="45.833169389516115" lon="9.124534260481596">
        <ele>1053.742431640625</ele>
        <time>2007-11-11T09:17:04Z</time>
      </trkpt>
      <trkpt lat="45.833292352035642" lon="9.124756632372737">
        <ele>1055.6650390625</ele>
        <time>2007-11-11T09:17:16Z</time>
      </trkpt>
      <trkpt lat="45.833441633731127" lon="9.124963162466884">
        <ele>1057.10693359375</ele>
        <time>2007-11-11T09:17:27Z</time>
      </trkpt>
      <trkpt lat="45.833616647869349" lon="9.125137757509947">
        <ele>1057.10693359375</ele>
        <time>2007-11-11T09:17:38Z</time>
      </trkpt>
      <trkpt lat="45.833780681714416" lon="9.125312268733978">
        <ele>1058.068359375</ele>
        <time>2007-11-11T09:17:48Z</time>
      </trkpt>
      <trkpt lat="45.833945050835609" lon="9.125501029193401">
        <ele>1058.068359375</ele>
        <time>2007-11-11T09:17:57Z</time>
      </trkpt>
      <trkpt lat="45.834114281460643" lon="9.125711666420102">
        <ele>1058.068359375</ele>
        <time>2007-11-11T09:18:07Z</time>
      </trkpt>
      <trkpt lat="45.834302455186844" lon="9.125882321968675">
        <ele>1061.432861328125</ele>
        <time>2007-11-11T09:18:19Z</time>
      </trkpt>
      <trkpt lat="45.834483671933413" lon="9.12601693533361">
        <ele>1063.35546875</ele>
        <time>2007-11-11T09:18:30Z</time>
      </trkpt>
      <trkpt lat="45.834666229784489" lon="9.126127576455474">
        <ele>1066.719970703125</ele>
        <time>2007-11-11T09:18:41Z</time>
      </trkpt>
      <trkpt lat="45.834831688553095" lon="9.126282641664147">
        <ele>1067.68115234375</ele>
        <time>2007-11-11T09:18:54Z</time>
      </trkpt>
      <trkpt lat="45.834901761263609" lon="9.126540217548609">
        <ele>1070.084716796875</ele>
        <time>2007-11-11T09:19:06Z</time>
      </trkpt>
      <trkpt lat="45.834983484819531" lon="9.12680072709918">
        <ele>1072.00732421875</ele>
        <time>2007-11-11T09:19:20Z</time>
      </trkpt>
      <trkpt lat="45.835063196718693" lon="9.127074899151921">
        <ele>1073.929931640625</ele>
        <time>2007-11-11T09:19:33Z</time>
      </trkpt>
      <trkpt lat="45.835146848112345" lon="9.1273298766464">
        <ele>1074.891357421875</ele>
        <time>2007-11-11T09:19:45Z</time>
      </trkpt>
      <trkpt lat="45.835184399038553" lon="9.127589799463749">
        <ele>1075.371826171875</ele>
        <time>2007-11-11T09:20:05Z</time>
      </trkpt>
      <trkpt lat="45.835159085690975" lon="9.127924488857389">
        <ele>1075.371826171875</ele>
        <time>2007-11-11T09:22:13Z</time>
      </trkpt>
      <trkpt lat="45.83541096188128" lon="9.127894397825003">
        <ele>1074.41064453125</ele>
        <time>2007-11-11T09:27:30Z</time>
      </trkpt>
      <trkpt lat="45.835383636876941" lon="9.12815323099494">
        <ele>1076.81396484375</ele>
        <time>2007-11-11T09:27:44Z</time>
      </trkpt>
      <trkpt lat="45.835328316316009" lon="9.128408543765545">
        <ele>1080.6591796875</ele>
        <time>2007-11-11T09:28:02Z</time>
      </trkpt>
      <trkpt lat="45.83531029522419" lon="9.128664275631309">
        <ele>1084.504638671875</ele>
        <time>2007-11-11T09:28:20Z</time>
      </trkpt>
      <trkpt lat="45.835279366001487" lon="9.128928976133466">
        <ele>1087.388427734375</ele>
        <time>2007-11-11T09:28:38Z</time>
      </trkpt>
      <trkpt lat="45.835236450657248" lon="9.129198119044304">
        <ele>1090.2724609375</ele>
        <time>2007-11-11T09:28:59Z</time>
      </trkpt>
      <trkpt lat="45.835187416523695" lon="9.129462987184525">
        <ele>1093.15625</ele>
        <time>2007-11-11T09:29:18Z</time>
      </trkpt>
      <trkpt lat="45.835191188380122" lon="9.129745038226247">
        <ele>1095.5595703125</ele>
        <time>2007-11-11T09:29:36Z</time>
      </trkpt>
      <trkpt lat="45.835242820903659" lon="9.130008816719055">
        <ele>1097.482177734375</ele>
        <time>2007-11-11T09:29:51Z</time>
      </trkpt>
      <trkpt lat="45.835300991311669" lon="9.130262788385153">
        <ele>1100.366455078125</ele>
        <time>2007-11-11T09:30:06Z</time>
      </trkpt>
      <trkpt lat="45.835324041545391" lon="9.130542073398829">
        <ele>1101.32763671875</ele>
        <time>2007-11-11T09:30:20Z</time>
      </trkpt>
      <trkpt lat="45.835339883342385" lon="9.13081088103354">
        <ele>1102.76953125</ele>
        <time>2007-11-11T09:30:34Z</time>
      </trkpt>
      <trkpt lat="45.835342146456242" lon="9.131079521030188">
        <ele>1105.653564453125</ele>
        <time>2007-11-11T09:30:49Z</time>
      </trkpt>
      <trkpt lat="45.835313647985458" lon="9.131342293694615">
        <ele>1108.056884765625</ele>
        <time>2007-11-11T09:31:06Z</time>
      </trkpt>
      <trkpt lat="45.835273917764425" lon="9.131601378321648">
        <ele>1110.4599609375</ele>
        <time>2007-11-11T09:31:22Z</time>
      </trkpt>
      <trkpt lat="45.835182974115014" lon="9.131839340552688">
        <ele>1112.86328125</ele>
        <time>2007-11-11T09:31:39Z</time>
      </trkpt>
      <trkpt lat="45.835086749866605" lon="9.132055342197418">
        <ele>1113.824462890625</ele>
        <time>2007-11-11T09:31:55Z</time>
      </trkpt>
      <trkpt lat="45.834969067946076" lon="9.132273187860847">
        <ele>1117.669921875</ele>
        <time>2007-11-11T09:32:12Z</time>
      </trkpt>
      <trkpt lat="45.834833448752761" lon="9.132464043796063">
        <ele>1119.112060546875</ele>
        <time>2007-11-11T09:32:28Z</time>
      </trkpt>
      <trkpt lat="45.834693135693669" lon="9.132649535313249">
        <ele>1121.51513671875</ele>
        <time>2007-11-11T09:32:45Z</time>
      </trkpt>
      <trkpt lat="45.834541171789169" lon="9.132821448147297">
        <ele>1124.399169921875</ele>
        <time>2007-11-11T09:33:01Z</time>
      </trkpt>
      <trkpt lat="45.834561623632908" lon="9.133073324337602">
        <ele>1124.8798828125</ele>
        <time>2007-11-11T09:33:17Z</time>
      </trkpt>
      <trkpt lat="45.834632618352771" lon="9.133309023454785">
        <ele>1125.3603515625</ele>
        <time>2007-11-11T09:33:31Z</time>
      </trkpt>
      <trkpt lat="45.834722891449928" lon="9.133534161373973">
        <ele>1127.283203125</ele>
        <time>2007-11-11T09:33:46Z</time>
      </trkpt>
      <trkpt lat="45.834817858412862" lon="9.13376466371119">
        <ele>1131.60888671875</ele>
        <time>2007-11-11T09:34:02Z</time>
      </trkpt>
      <trkpt lat="45.834854487329721" lon="9.134022826328874">
        <ele>1133.53173828125</ele>
        <time>2007-11-11T09:34:18Z</time>
      </trkpt>
      <trkpt lat="45.834848368540406" lon="9.134295154362917">
        <ele>1133.051025390625</ele>
        <time>2007-11-11T09:34:30Z</time>
      </trkpt>
      <trkpt lat="45.834819199517369" lon="9.134555663913488">
        <ele>1134.4931640625</ele>
        <time>2007-11-11T09:34:40Z</time>
      </trkpt>
      <trkpt lat="45.834769075736403" lon="9.134821118786931">
        <ele>1135.93505859375</ele>
        <time>2007-11-11T09:34:50Z</time>
      </trkpt>
      <trkpt lat="45.834731860086322" lon="9.135070145130158">
        <ele>1136.415771484375</ele>
        <time>2007-11-11T09:34:59Z</time>
      </trkpt>
      <trkpt lat="45.834698332473636" lon="9.135338952764869">
        <ele>1137.376953125</ele>
        <time>2007-11-11T09:35:07Z</time>
      </trkpt>
      <trkpt lat="45.834636390209198" lon="9.135600971058011">
        <ele>1138.33837890625</ele>
        <time>2007-11-11T09:35:15Z</time>
      </trkpt>
      <trkpt lat="45.834583081305027" lon="9.135876568034291">
        <ele>1137.857666015625</ele>
        <time>2007-11-11T09:35:23Z</time>
      </trkpt>
      <trkpt lat="45.834529520943761" lon="9.136136993765831">
        <ele>1138.33837890625</ele>
        <time>2007-11-11T09:35:29Z</time>
      </trkpt>
      <trkpt lat="45.834476295858622" lon="9.136409992352128">
        <ele>1139.299560546875</ele>
        <time>2007-11-11T09:35:35Z</time>
      </trkpt>
      <trkpt lat="45.834395997226238" lon="9.136688020080328">
        <ele>1140.260986328125</ele>
        <time>2007-11-11T09:35:41Z</time>
      </trkpt>
      <trkpt lat="45.834302036091685" lon="9.136949786916375">
        <ele>1141.22216796875</ele>
        <time>2007-11-11T09:35:47Z</time>
      </trkpt>
      <trkpt lat="45.834232047200203" lon="9.137199064716697">
        <ele>1141.702880859375</ele>
        <time>2007-11-11T09:35:53Z</time>
      </trkpt>
      <trkpt lat="45.834172870963812" lon="9.137466195970774">
        <ele>1143.62548828125</ele>
        <time>2007-11-11T09:36:01Z</time>
      </trkpt>
      <trkpt lat="45.83410388790071" lon="9.137727627530694">
        <ele>1144.586669921875</ele>
        <time>2007-11-11T09:36:11Z</time>
      </trkpt>
      <trkpt lat="45.834050662815571" lon="9.137987047433853">
        <ele>1146.989990234375</ele>
        <time>2007-11-11T09:36:19Z</time>
      </trkpt>
      <trkpt lat="45.833973046392202" lon="9.138229452073574">
        <ele>1148.43212890625</ele>
        <time>2007-11-11T09:36:30Z</time>
      </trkpt>
      <trkpt lat="45.833894172683358" lon="9.138463139533997">
        <ele>1151.316162109375</ele>
        <time>2007-11-11T09:36:43Z</time>
      </trkpt>
      <trkpt lat="45.833835247904062" lon="9.13865827023983">
        <ele>1150.83544921875</ele>
        <time>2007-11-11T09:37:04Z</time>
      </trkpt>
      <trkpt lat="45.833816137164831" lon="9.138844348490238">
        <ele>1150.83544921875</ele>
        <time>2007-11-11T09:41:50Z</time>
      </trkpt>
      <trkpt lat="45.833689654245973" lon="9.139039060100913">
        <ele>1155.64208984375</ele>
        <time>2007-11-11T09:42:06Z</time>
      </trkpt>
      <trkpt lat="45.833648331463337" lon="9.139290433377028">
        <ele>1159.9677734375</ele>
        <time>2007-11-11T09:42:24Z</time>
      </trkpt>
      <trkpt lat="45.833668783307076" lon="9.139538956806064">
        <ele>1163.33251953125</ele>
        <time>2007-11-11T09:42:44Z</time>
      </trkpt>
      <trkpt lat="45.833683451637626" lon="9.13979284465313">
        <ele>1167.177978515625</ele>
        <time>2007-11-11T09:43:06Z</time>
      </trkpt>
      <trkpt lat="45.833693342283368" lon="9.140042290091515">
        <ele>1171.984375</ele>
        <time>2007-11-11T09:43:26Z</time>
      </trkpt>
      <trkpt lat="45.833734078332782" lon="9.140272792428732">
        <ele>1176.791015625</ele>
        <time>2007-11-11T09:44:13Z</time>
      </trkpt>
      <trkpt lat="45.83382242359221" lon="9.140480160713196">
        <ele>1176.310302734375</ele>
        <time>2007-11-11T09:59:09Z</time>
      </trkpt>
      <trkpt lat="45.8339265268296" lon="9.140711920335889">
        <ele>1171.984375</ele>
        <time>2007-11-11T09:59:15Z</time>
      </trkpt>
      <trkpt lat="45.834032725542784" lon="9.140931274741888">
        <ele>1169.581298828125</ele>
        <time>2007-11-11T09:59:20Z</time>
      </trkpt>
      <trkpt lat="45.834150994196534" lon="9.141161860898137">
        <ele>1165.25537109375</ele>
        <time>2007-11-11T09:59:24Z</time>
      </trkpt>
      <trkpt lat="45.834268759936094" lon="9.141380460932851">
        <ele>1164.2939453125</ele>
        <time>2007-11-11T09:59:27Z</time>
      </trkpt>
      <trkpt lat="45.834401026368141" lon="9.141606520861387">
        <ele>1165.25537109375</ele>
        <time>2007-11-11T09:59:31Z</time>
      </trkpt>
      <trkpt lat="45.834479983896017" lon="9.14184263907373">
        <ele>1165.736083984375</ele>
        <time>2007-11-11T09:59:38Z</time>
      </trkpt>
      <trkpt lat="45.834552654996514" lon="9.142090659588575">
        <ele>1165.736083984375</ele>
        <time>2007-11-11T09:59:45Z</time>
      </trkpt>
      <trkpt lat="45.834679221734405" lon="9.142315126955509">
        <ele>1165.736083984375</ele>
        <time>2007-11-11T09:59:50Z</time>
      </trkpt>
      <trkpt lat="45.834796568378806" lon="9.142561387270689">
        <ele>1165.25537109375</ele>
        <time>2007-11-11T09:59:55Z</time>
      </trkpt>
      <trkpt lat="45.83493797108531" lon="9.142769677564502">
        <ele>1163.81298828125</ele>
        <time>2007-11-11T09:59:59Z</time>
      </trkpt>
      <trkpt lat="45.835122624412179" lon="9.142981823533773">
        <ele>1163.33251953125</ele>
        <time>2007-11-11T10:00:03Z</time>
      </trkpt>
      <trkpt lat="45.835247430950403" lon="9.143176870420575">
        <ele>1165.25537109375</ele>
        <time>2007-11-11T10:00:08Z</time>
      </trkpt>
      <trkpt lat="45.835261596366763" lon="9.14346294477582">
        <ele>1164.774658203125</ele>
        <time>2007-11-11T10:00:15Z</time>
      </trkpt>
      <trkpt lat="45.835227817296982" lon="9.143745834007859">
        <ele>1162.37109375</ele>
        <time>2007-11-11T10:00:19Z</time>
      </trkpt>
      <trkpt lat="45.835183896124363" lon="9.144075578078628">
        <ele>1161.409912109375</ele>
        <time>2007-11-11T10:00:23Z</time>
      </trkpt>
      <trkpt lat="45.835196385160089" lon="9.144367687404156">
        <ele>1161.409912109375</ele>
        <time>2007-11-11T10:00:27Z</time>
      </trkpt>
      <trkpt lat="45.8352907653898" lon="9.144636327400804">
        <ele>1162.37109375</ele>
        <time>2007-11-11T10:00:31Z</time>
      </trkpt>
      <trkpt lat="45.835439963266253" lon="9.144863141700625">
        <ele>1160.92919921875</ele>
        <time>2007-11-11T10:00:35Z</time>
      </trkpt>
      <trkpt lat="45.835572397336364" lon="9.145066989585757">
        <ele>1161.890625</ele>
        <time>2007-11-11T10:00:39Z</time>
      </trkpt>
      <trkpt lat="45.835677087306976" lon="9.1453617811203">
        <ele>1160.448486328125</ele>
        <time>2007-11-11T10:00:44Z</time>
      </trkpt>
      <trkpt lat="45.835751937702298" lon="9.145632516592741">
        <ele>1159.9677734375</ele>
        <time>2007-11-11T10:00:49Z</time>
      </trkpt>
      <trkpt lat="45.835904823616147" lon="9.145881878212094">
        <ele>1158.52587890625</ele>
        <time>2007-11-11T10:00:55Z</time>
      </trkpt>
      <trkpt lat="45.836127530783415" lon="9.145982461050153">
        <ele>1158.04541015625</ele>
        <time>2007-11-11T10:01:00Z</time>
      </trkpt>
      <trkpt lat="45.83623724989593" lon="9.146194774657488">
        <ele>1158.04541015625</ele>
        <time>2007-11-11T10:01:06Z</time>
      </trkpt>
      <trkpt lat="45.836545452475548" lon="9.14643575437367">
        <ele>1157.083984375</ele>
        <time>2007-11-11T10:01:10Z</time>
      </trkpt>
      <trkpt lat="45.836610076949" lon="9.146706657484174">
        <ele>1157.564697265625</ele>
        <time>2007-11-11T10:01:15Z</time>
      </trkpt>
      <trkpt lat="45.836639665067196" lon="9.146996168419719">
        <ele>1159.006591796875</ele>
        <time>2007-11-11T10:01:20Z</time>
      </trkpt>
      <trkpt lat="45.836636228486896" lon="9.147282745689154">
        <ele>1157.083984375</ele>
        <time>2007-11-11T10:01:26Z</time>
      </trkpt>
      <trkpt lat="45.836661625653505" lon="9.147610059008002">
        <ele>1155.64208984375</ele>
        <time>2007-11-11T10:01:30Z</time>
      </trkpt>
      <trkpt lat="45.836811074987054" lon="9.147919937968254">
        <ele>1155.64208984375</ele>
        <time>2007-11-11T10:01:34Z</time>
      </trkpt>
      <trkpt lat="45.836934624239802" lon="9.148161336779594">
        <ele>1159.006591796875</ele>
        <time>2007-11-11T10:01:43Z</time>
      </trkpt>
      <trkpt lat="45.837067561224103" lon="9.148422181606293">
        <ele>1161.409912109375</ele>
        <time>2007-11-11T10:01:56Z</time>
      </trkpt>
      <trkpt lat="45.83717929199338" lon="9.148665759712458">
        <ele>1164.2939453125</ele>
        <time>2007-11-11T10:02:13Z</time>
      </trkpt>
      <trkpt lat="45.837237797677517" lon="9.148944038897753">
        <ele>1165.736083984375</ele>
        <time>2007-11-11T10:02:23Z</time>
      </trkpt>
      <trkpt lat="45.83725699223578" lon="9.149220054969192">
        <ele>1168.619873046875</ele>
        <time>2007-11-11T10:02:39Z</time>
      </trkpt>
      <trkpt lat="45.837265122681856" lon="9.149469919502735">
        <ele>1165.25537109375</ele>
        <time>2007-11-11T10:02:54Z</time>
      </trkpt>
      <trkpt lat="45.837351456284523" lon="9.149735290557146">
        <ele>1164.2939453125</ele>
        <time>2007-11-11T10:03:05Z</time>
      </trkpt>
      <trkpt lat="45.837439633905888" lon="9.150026477873325">
        <ele>1161.890625</ele>
        <time>2007-11-11T10:03:12Z</time>
      </trkpt>
      <trkpt lat="45.837532756850123" lon="9.150259494781494">
        <ele>1160.92919921875</ele>
        <time>2007-11-11T10:03:16Z</time>
      </trkpt>
      <trkpt lat="45.837631747126579" lon="9.150502234697342">
        <ele>1157.564697265625</ele>
        <time>2007-11-11T10:03:20Z</time>
      </trkpt>
      <trkpt lat="45.837754374369979" lon="9.150776993483305">
        <ele>1155.64208984375</ele>
        <time>2007-11-11T10:03:24Z</time>
      </trkpt>
      <trkpt lat="45.837837774306536" lon="9.15101177059114">
        <ele>1152.758056640625</ele>
        <time>2007-11-11T10:03:27Z</time>
      </trkpt>
      <trkpt lat="45.837909271940589" lon="9.151263562962413">
        <ele>1151.316162109375</ele>
        <time>2007-11-11T10:03:30Z</time>
      </trkpt>
      <trkpt lat="45.83793617784977" lon="9.151589032262564">
        <ele>1151.796875</ele>
        <time>2007-11-11T10:03:34Z</time>
      </trkpt>
      <trkpt lat="45.837924275547266" lon="9.151878291741014">
        <ele>1150.83544921875</ele>
        <time>2007-11-11T10:03:38Z</time>
      </trkpt>
      <trkpt lat="45.837928634136915" lon="9.152192948386073">
        <ele>1147.951416015625</ele>
        <time>2007-11-11T10:03:42Z</time>
      </trkpt>
      <trkpt lat="45.837927544489503" lon="9.15249427780509">
        <ele>1147.951416015625</ele>
        <time>2007-11-11T10:03:46Z</time>
      </trkpt>
      <trkpt lat="45.837898626923561" lon="9.152764258906245">
        <ele>1146.02880859375</ele>
        <time>2007-11-11T10:03:52Z</time>
      </trkpt>
      <trkpt lat="45.837849425151944" lon="9.153052177280188">
        <ele>1141.22216796875</ele>
        <time>2007-11-11T10:03:58Z</time>
      </trkpt>
      <trkpt lat="45.837859399616718" lon="9.153322745114565">
        <ele>1137.857666015625</ele>
        <time>2007-11-11T10:04:04Z</time>
      </trkpt>
      <trkpt lat="45.837902398779988" lon="9.153604544699192">
        <ele>1133.53173828125</ele>
        <time>2007-11-11T10:04:11Z</time>
      </trkpt>
      <trkpt lat="45.837904997169971" lon="9.153866060078144">
        <ele>1131.60888671875</ele>
        <time>2007-11-11T10:04:18Z</time>
      </trkpt>
      <trkpt lat="45.837873397395015" lon="9.154081055894494">
        <ele>1128.72509765625</ele>
        <time>2007-11-11T10:05:43Z</time>
      </trkpt>
      <trkpt lat="45.83788001909852" lon="9.154325975105166">
        <ele>1125.841064453125</ele>
        <time>2007-11-11T10:05:57Z</time>
      </trkpt>
      <trkpt lat="45.8379000518471" lon="9.154622778296471">
        <ele>1123.91845703125</ele>
        <time>2007-11-11T10:06:02Z</time>
      </trkpt>
      <trkpt lat="45.837942631915212" lon="9.154928382486105">
        <ele>1123.43798828125</ele>
        <time>2007-11-11T10:06:06Z</time>
      </trkpt>
      <trkpt lat="45.838008262217045" lon="9.155245553702116">
        <ele>1123.43798828125</ele>
        <time>2007-11-11T10:06:10Z</time>
      </trkpt>
      <trkpt lat="45.838093757629395" lon="9.15550664998591">
        <ele>1123.43798828125</ele>
        <time>2007-11-11T10:06:14Z</time>
      </trkpt>
      <trkpt lat="45.838169446215034" lon="9.155784426257014">
        <ele>1123.43798828125</ele>
        <time>2007-11-11T10:06:19Z</time>
      </trkpt>
      <trkpt lat="45.838232394307852" lon="9.156078631058335">
        <ele>1123.43798828125</ele>
        <time>2007-11-11T10:06:25Z</time>
      </trkpt>
      <trkpt lat="45.838282853364944" lon="9.156342493370175">
        <ele>1121.995849609375</ele>
        <time>2007-11-11T10:06:35Z</time>
      </trkpt>
      <trkpt lat="45.838291570544243" lon="9.156624376773834">
        <ele>1121.03466796875</ele>
        <time>2007-11-11T10:06:41Z</time>
      </trkpt>
      <trkpt lat="45.838304562494159" lon="9.156902572140098">
        <ele>1121.03466796875</ele>
        <time>2007-11-11T10:06:46Z</time>
      </trkpt>
      <trkpt lat="45.838326858356595" lon="9.157178672030568">
        <ele>1120.0732421875</ele>
        <time>2007-11-11T10:06:51Z</time>
      </trkpt>
      <trkpt lat="45.838379161432385" lon="9.157445719465613">
        <ele>1119.112060546875</ele>
        <time>2007-11-11T10:06:58Z</time>
      </trkpt>
      <trkpt lat="45.838411850854754" lon="9.157713437452912">
        <ele>1119.112060546875</ele>
        <time>2007-11-11T10:07:13Z</time>
      </trkpt>
      <trkpt lat="45.838466081768274" lon="9.157974282279611">
        <ele>1118.150634765625</ele>
        <time>2007-11-11T10:07:27Z</time>
      </trkpt>
      <trkpt lat="45.838477984070778" lon="9.158220291137695">
        <ele>1117.189453125</ele>
        <time>2007-11-11T10:07:39Z</time>
      </trkpt>
      <trkpt lat="45.838453425094485" lon="9.158350126817823">
        <ele>1114.30517578125</ele>
        <time>2007-11-11T10:11:35Z</time>
      </trkpt>
      <trkpt lat="45.838469266891479" lon="9.158584233373404">
        <ele>1112.86328125</ele>
        <time>2007-11-11T10:11:45Z</time>
      </trkpt>
      <trkpt lat="45.838455520570278" lon="9.158872487023473">
        <ele>1110.4599609375</ele>
        <time>2007-11-11T10:11:50Z</time>
      </trkpt>
      <trkpt lat="45.838464740663767" lon="9.159199381247163">
        <ele>1108.537353515625</ele>
        <time>2007-11-11T10:11:55Z</time>
      </trkpt>
      <trkpt lat="45.838508242741227" lon="9.1594875510782">
        <ele>1104.211669921875</ele>
        <time>2007-11-11T10:11:59Z</time>
      </trkpt>
      <trkpt lat="45.838540932163596" lon="9.159801369532943">
        <ele>1102.288818359375</ele>
        <time>2007-11-11T10:12:03Z</time>
      </trkpt>
      <trkpt lat="45.83858409896493" lon="9.16009247303009">
        <ele>1101.32763671875</ele>
        <time>2007-11-11T10:12:07Z</time>
      </trkpt>
      <trkpt lat="45.838592480868101" lon="9.160364298149943">
        <ele>1098.924072265625</ele>
        <time>2007-11-11T10:12:11Z</time>
      </trkpt>
      <trkpt lat="45.838575297966599" lon="9.160644169896841">
        <ele>1098.924072265625</ele>
        <time>2007-11-11T10:12:15Z</time>
      </trkpt>
      <trkpt lat="45.838563228026032" lon="9.160927562043071">
        <ele>1098.443359375</ele>
        <time>2007-11-11T10:12:19Z</time>
      </trkpt>
      <trkpt lat="45.838549984619021" lon="9.161190753802657">
        <ele>1097.482177734375</ele>
        <time>2007-11-11T10:12:23Z</time>
      </trkpt>
      <trkpt lat="45.838532717898488" lon="9.161480683833361">
        <ele>1097.482177734375</ele>
        <time>2007-11-11T10:12:28Z</time>
      </trkpt>
      <trkpt lat="45.838506147265434" lon="9.161758543923497">
        <ele>1096.52099609375</ele>
        <time>2007-11-11T10:12:32Z</time>
      </trkpt>
      <trkpt lat="45.838469853624701" lon="9.162057694047689">
        <ele>1096.52099609375</ele>
        <time>2007-11-11T10:12:36Z</time>
      </trkpt>
      <trkpt lat="45.838415371254086" lon="9.16232792660594">
        <ele>1096.52099609375</ele>
        <time>2007-11-11T10:12:40Z</time>
      </trkpt>
      <trkpt lat="45.838350662961602" lon="9.162617018446326">
        <ele>1096.52099609375</ele>
        <time>2007-11-11T10:12:46Z</time>
      </trkpt>
      <trkpt lat="45.838244967162609" lon="9.162867050617933">
        <ele>1096.52099609375</ele>
        <time>2007-11-11T10:12:52Z</time>
      </trkpt>
      <trkpt lat="45.838147569447756" lon="9.163117585703731">
        <ele>1097.482177734375</ele>
        <time>2007-11-11T10:12:59Z</time>
      </trkpt>
      <trkpt lat="45.838074730709195" lon="9.163377424702048">
        <ele>1097.482177734375</ele>
        <time>2007-11-11T10:13:06Z</time>
      </trkpt>
      <trkpt lat="45.837967442348599" lon="9.163605747744441">
        <ele>1095.078857421875</ele>
        <time>2007-11-11T10:13:20Z</time>
      </trkpt>
      <trkpt lat="45.837851436808705" lon="9.16382803581655">
        <ele>1092.67578125</ele>
        <time>2007-11-11T10:13:33Z</time>
      </trkpt>
      <trkpt lat="45.837725792080164" lon="9.164034062996507">
        <ele>1090.2724609375</ele>
        <time>2007-11-11T10:13:50Z</time>
      </trkpt>
      <trkpt lat="45.837608026340604" lon="9.16425702162087">
        <ele>1088.83056640625</ele>
        <time>2007-11-11T10:14:04Z</time>
      </trkpt>
      <trkpt lat="45.837454972788692" lon="9.164327345788479">
        <ele>1087.388427734375</ele>
        <time>2007-11-11T10:14:18Z</time>
      </trkpt>
      <trkpt lat="45.837271828204393" lon="9.164340924471617">
        <ele>1086.90771484375</ele>
        <time>2007-11-11T10:14:34Z</time>
      </trkpt>
      <trkpt lat="45.837081056088209" lon="9.164314940571785">
        <ele>1084.504638671875</ele>
        <time>2007-11-11T10:14:51Z</time>
      </trkpt>
      <trkpt lat="45.836902689188719" lon="9.164267750456929">
        <ele>1081.620361328125</ele>
        <time>2007-11-11T10:15:06Z</time>
      </trkpt>
      <trkpt lat="45.836720550432801" lon="9.164169263094664">
        <ele>1076.333251953125</ele>
        <time>2007-11-11T10:15:27Z</time>
      </trkpt>
      <trkpt lat="45.836537489667535" lon="9.164071697741747">
        <ele>1072.488037109375</ele>
        <time>2007-11-11T10:15:39Z</time>
      </trkpt>
      <trkpt lat="45.836363481357694" lon="9.163997350260615">
        <ele>1070.084716796875</ele>
        <time>2007-11-11T10:15:49Z</time>
      </trkpt>
      <trkpt lat="45.836186371743679" lon="9.163932558149099">
        <ele>1066.719970703125</ele>
        <time>2007-11-11T10:16:19Z</time>
      </trkpt>
      <trkpt lat="45.835985792800784" lon="9.163901377469301">
        <ele>1063.35546875</ele>
        <time>2007-11-11T10:16:31Z</time>
      </trkpt>
      <trkpt lat="45.835793847218156" lon="9.163896767422557">
        <ele>1061.432861328125</ele>
        <time>2007-11-11T10:16:46Z</time>
      </trkpt>
      <trkpt lat="45.835606679320335" lon="9.163883021101356">
        <ele>1059.029541015625</ele>
        <time>2007-11-11T10:17:08Z</time>
      </trkpt>
      <trkpt lat="45.835407022386789" lon="9.163921158760786">
        <ele>1053.742431640625</ele>
        <time>2007-11-11T10:17:35Z</time>
      </trkpt>
      <trkpt lat="45.835160342976451" lon="9.163886625319719">
        <ele>1047.974365234375</ele>
        <time>2007-11-11T10:18:10Z</time>
      </trkpt>
      <trkpt lat="45.834966721013188" lon="9.163887295871973">
        <ele>1045.09033203125</ele>
        <time>2007-11-11T10:18:22Z</time>
      </trkpt>
      <trkpt lat="45.834780726581812" lon="9.163806075230241">
        <ele>1042.687255859375</ele>
        <time>2007-11-11T10:18:30Z</time>
      </trkpt>
      <trkpt lat="45.834612585604191" lon="9.163799453526735">
        <ele>1037.880615234375</ele>
        <time>2007-11-11T10:18:40Z</time>
      </trkpt>
      <trkpt lat="45.834601186215878" lon="9.164081169292331">
        <ele>1033.554443359375</ele>
        <time>2007-11-11T10:18:49Z</time>
      </trkpt>
      <trkpt lat="45.834623984992504" lon="9.164372691884637">
        <ele>1027.78662109375</ele>
        <time>2007-11-11T10:19:17Z</time>
      </trkpt>
      <trkpt lat="45.834510745480657" lon="9.164710398763418">
        <ele>1023.4609375</ele>
        <time>2007-11-11T10:19:45Z</time>
      </trkpt>
      <trkpt lat="45.834379987791181" lon="9.165080543607473">
        <ele>1018.17333984375</ele>
        <time>2007-11-11T10:20:28Z</time>
      </trkpt>
      <trkpt lat="45.834350483492017" lon="9.165374664589763">
        <ele>1014.328125</ele>
        <time>2007-11-11T10:20:39Z</time>
      </trkpt>
      <trkpt lat="45.83412635140121" lon="9.165431326255202">
        <ele>1011.4443359375</ele>
        <time>2007-11-11T10:21:15Z</time>
      </trkpt>
      <trkpt lat="45.833901632577181" lon="9.165477175265551">
        <ele>1009.521728515625</ele>
        <time>2007-11-11T10:21:22Z</time>
      </trkpt>
      <trkpt lat="45.833724942058325" lon="9.165423028171063">
        <ele>1009.521728515625</ele>
        <time>2007-11-11T10:21:27Z</time>
      </trkpt>
      <trkpt lat="45.833517573773861" lon="9.165362846106291">
        <ele>1008.079833984375</ele>
        <time>2007-11-11T10:21:33Z</time>
      </trkpt>
      <trkpt lat="45.83330886438489" lon="9.165367288514972">
        <ele>1008.079833984375</ele>
        <time>2007-11-11T10:21:39Z</time>
      </trkpt>
      <trkpt lat="45.833111051470041" lon="9.165367288514972">
        <ele>1010.48291015625</ele>
        <time>2007-11-11T10:21:48Z</time>
      </trkpt>
      <trkpt lat="45.832923296838999" lon="9.165444150567055">
        <ele>1011.925048828125</ele>
        <time>2007-11-11T10:22:37Z</time>
      </trkpt>
      <trkpt lat="45.832732692360878" lon="9.165555462241173">
        <ele>1010.48291015625</ele>
        <time>2007-11-11T10:22:48Z</time>
      </trkpt>
      <trkpt lat="45.832531861960888" lon="9.165657386183739">
        <ele>1009.041015625</ele>
        <time>2007-11-11T10:22:57Z</time>
      </trkpt>
      <trkpt lat="45.832312759011984" lon="9.16570289991796">
        <ele>1007.59912109375</ele>
        <time>2007-11-11T10:23:05Z</time>
      </trkpt>
      <trkpt lat="45.832159537822008" lon="9.165483126416802">
        <ele>1005.19580078125</ele>
        <time>2007-11-11T10:23:12Z</time>
      </trkpt>
      <trkpt lat="45.832041185349226" lon="9.165230495855212">
        <ele>1005.19580078125</ele>
        <time>2007-11-11T10:23:17Z</time>
      </trkpt>
      <trkpt lat="45.831925850361586" lon="9.165003262460232">
        <ele>1006.6376953125</ele>
        <time>2007-11-11T10:23:23Z</time>
      </trkpt>
      <trkpt lat="45.831768354400992" lon="9.164829757064581">
        <ele>1008.079833984375</ele>
        <time>2007-11-11T10:23:33Z</time>
      </trkpt>
      <trkpt lat="45.831574564799666" lon="9.164752224460244">
        <ele>1008.560302734375</ele>
        <time>2007-11-11T10:23:42Z</time>
      </trkpt>
      <trkpt lat="45.831383876502514" lon="9.164872672408819">
        <ele>1008.079833984375</ele>
        <time>2007-11-11T10:23:52Z</time>
      </trkpt>
      <trkpt lat="45.831195199862123" lon="9.164984738454223">
        <ele>1005.676513671875</ele>
        <time>2007-11-11T10:24:00Z</time>
      </trkpt>
      <trkpt lat="45.830998476594687" lon="9.165095882490277">
        <ele>1005.19580078125</ele>
        <time>2007-11-11T10:24:08Z</time>
      </trkpt>
      <trkpt lat="45.830749869346619" lon="9.16523233987391">
        <ele>1002.792236328125</ele>
        <time>2007-11-11T10:24:58Z</time>
      </trkpt>
      <trkpt lat="45.830559683963656" lon="9.165345579385757">
        <ele>998.46630859375</ele>
        <time>2007-11-11T10:25:10Z</time>
      </trkpt>
      <trkpt lat="45.830381149426103" lon="9.165495783090591">
        <ele>997.0244140625</ele>
        <time>2007-11-11T10:25:17Z</time>
      </trkpt>
      <trkpt lat="45.830220133066177" lon="9.165700133889914">
        <ele>995.101806640625</ele>
        <time>2007-11-11T10:25:26Z</time>
      </trkpt>
      <trkpt lat="45.830044196918607" lon="9.165890738368034">
        <ele>993.17919921875</ele>
        <time>2007-11-11T10:25:36Z</time>
      </trkpt>
      <trkpt lat="45.829849066212773" lon="9.166034823283553">
        <ele>989.814697265625</ele>
        <time>2007-11-11T10:25:48Z</time>
      </trkpt>
      <trkpt lat="45.82966323941946" lon="9.16616759262979">
        <ele>987.891845703125</ele>
        <time>2007-11-11T10:25:55Z</time>
      </trkpt>
      <trkpt lat="45.82946827635169" lon="9.166281837970018">
        <ele>985.96923828125</ele>
        <time>2007-11-11T10:26:01Z</time>
      </trkpt>
      <trkpt lat="45.829270295798779" lon="9.166397340595722">
        <ele>984.046630859375</ele>
        <time>2007-11-11T10:26:09Z</time>
      </trkpt>
      <trkpt lat="45.829077595844865" lon="9.166546035557985">
        <ele>980.201416015625</ele>
        <time>2007-11-11T10:26:54Z</time>
      </trkpt>
      <trkpt lat="45.829013725742698" lon="9.166808389127255">
        <ele>976.356201171875</ele>
        <time>2007-11-11T10:27:21Z</time>
      </trkpt>
      <trkpt lat="45.828859163448215" lon="9.166969740763307">
        <ele>971.06884765625</ele>
        <time>2007-11-11T10:27:39Z</time>
      </trkpt>
      <trkpt lat="45.828652046620846" lon="9.166926993057132">
        <ele>966.742919921875</ele>
        <time>2007-11-11T10:28:05Z</time>
      </trkpt>
      <trkpt lat="45.828464459627867" lon="9.166755750775337">
        <ele>963.37841796875</ele>
        <time>2007-11-11T10:28:14Z</time>
      </trkpt>
      <trkpt lat="45.828259438276291" lon="9.166761366650462">
        <ele>959.533203125</ele>
        <time>2007-11-11T10:28:23Z</time>
      </trkpt>
      <trkpt lat="45.82813773304224" lon="9.16696697473526">
        <ele>956.649169921875</ele>
        <time>2007-11-11T10:28:41Z</time>
      </trkpt>
      <trkpt lat="45.828178720548749" lon="9.167261179536581">
        <ele>955.687744140625</ele>
        <time>2007-11-11T10:28:49Z</time>
      </trkpt>
      <trkpt lat="45.82814016379416" lon="9.167580446228385">
        <ele>955.20703125</ele>
        <time>2007-11-11T10:29:23Z</time>
      </trkpt>
      <trkpt lat="45.828132536262274" lon="9.167855959385634">
        <ele>951.36181640625</ele>
        <time>2007-11-11T10:29:31Z</time>
      </trkpt>
      <trkpt lat="45.828117616474628" lon="9.168152594938874">
        <ele>949.919921875</ele>
        <time>2007-11-11T10:29:36Z</time>
      </trkpt>
      <trkpt lat="45.828144270926714" lon="9.168443363159895">
        <ele>948.95849609375</ele>
        <time>2007-11-11T10:29:42Z</time>
      </trkpt>
      <trkpt lat="45.82814309746027" lon="9.168746117502451">
        <ele>947.5166015625</ele>
        <time>2007-11-11T10:29:50Z</time>
      </trkpt>
      <trkpt lat="45.827979985624552" lon="9.168935632333159">
        <ele>946.555419921875</ele>
        <time>2007-11-11T10:30:03Z</time>
      </trkpt>
      <trkpt lat="45.827820226550102" lon="9.169129841029644">
        <ele>945.593994140625</ele>
        <time>2007-11-11T10:30:10Z</time>
      </trkpt>
      <trkpt lat="45.827713692560792" lon="9.169372664764524">
        <ele>942.2294921875</ele>
        <time>2007-11-11T10:30:16Z</time>
      </trkpt>
      <trkpt lat="45.827678069472313" lon="9.169663852080703">
        <ele>939.825927734375</ele>
        <time>2007-11-11T10:30:22Z</time>
      </trkpt>
      <trkpt lat="45.827611098065972" lon="9.169980185106397">
        <ele>938.384033203125</ele>
        <time>2007-11-11T10:30:27Z</time>
      </trkpt>
      <trkpt lat="45.827541444450617" lon="9.17024178430438">
        <ele>937.422607421875</ele>
        <time>2007-11-11T10:30:31Z</time>
      </trkpt>
      <trkpt lat="45.827436167746782" lon="9.17047874070704">
        <ele>937.422607421875</ele>
        <time>2007-11-11T10:30:35Z</time>
      </trkpt>
      <trkpt lat="45.827283784747124" lon="9.170645456761122">
        <ele>936.94189453125</ele>
        <time>2007-11-11T10:30:39Z</time>
      </trkpt>
      <trkpt lat="45.827092342078686" lon="9.170816531404853">
        <ele>936.94189453125</ele>
        <time>2007-11-11T10:30:44Z</time>
      </trkpt>
      <trkpt lat="45.826990250498056" lon="9.171067317947745">
        <ele>935.5</ele>
        <time>2007-11-11T10:30:49Z</time>
      </trkpt>
      <trkpt lat="45.82699921913445" lon="9.171378957107663">
        <ele>934.05810546875</ele>
        <time>2007-11-11T10:30:54Z</time>
      </trkpt>
      <trkpt lat="45.826999638229609" lon="9.171645920723677">
        <ele>932.135498046875</ele>
        <time>2007-11-11T10:30:58Z</time>
      </trkpt>
      <trkpt lat="45.826878771185875" lon="9.171872567385435">
        <ele>930.212890625</ele>
        <time>2007-11-11T10:31:06Z</time>
      </trkpt>
      <trkpt lat="45.826697554439306" lon="9.172025453299284">
        <ele>929.25146484375</ele>
        <time>2007-11-11T10:31:11Z</time>
      </trkpt>
      <trkpt lat="45.826574089005589" lon="9.172298368066549">
        <ele>928.290283203125</ele>
        <time>2007-11-11T10:31:18Z</time>
      </trkpt>
      <trkpt lat="45.826502256095409" lon="9.172577820718288">
        <ele>927.8095703125</ele>
        <time>2007-11-11T10:31:26Z</time>
      </trkpt>
      <trkpt lat="45.826478619128466" lon="9.172890884801745">
        <ele>924.92578125</ele>
        <time>2007-11-11T10:31:37Z</time>
      </trkpt>
      <trkpt lat="45.826508039608598" lon="9.173184083774686">
        <ele>922.522216796875</ele>
        <time>2007-11-11T10:31:45Z</time>
      </trkpt>
      <trkpt lat="45.826658997684717" lon="9.173219287768006">
        <ele>919.638427734375</ele>
        <time>2007-11-11T10:32:13Z</time>
      </trkpt>
      <trkpt lat="45.826834179461002" lon="9.173061959445477">
        <ele>920.599609375</ele>
        <time>2007-11-11T10:32:21Z</time>
      </trkpt>
      <trkpt lat="45.827019419521093" lon="9.172984343022108">
        <ele>923.0029296875</ele>
        <time>2007-11-11T10:32:34Z</time>
      </trkpt>
      <trkpt lat="45.827205330133438" lon="9.172853669151664">
        <ele>925.886962890625</ele>
        <time>2007-11-11T10:33:36Z</time>
      </trkpt>
      <trkpt lat="45.827350588515401" lon="9.172895662486553">
        <ele>925.886962890625</ele>
        <time>2007-11-11T10:34:40Z</time>
      </trkpt>
      <trkpt lat="45.827524261549115" lon="9.173082495108247">
        <ele>923.0029296875</ele>
        <time>2007-11-11T10:34:50Z</time>
      </trkpt>
      <trkpt lat="45.827704472467303" lon="9.173295898362994">
        <ele>921.560791015625</ele>
        <time>2007-11-11T10:34:57Z</time>
      </trkpt>
      <trkpt lat="45.827827686443925" lon="9.173560682684183">
        <ele>921.080322265625</ele>
        <time>2007-11-11T10:35:04Z</time>
      </trkpt>
      <trkpt lat="45.827946038916707" lon="9.1738136485219">
        <ele>920.118896484375</ele>
        <time>2007-11-11T10:35:10Z</time>
      </trkpt>
      <trkpt lat="45.828005718067288" lon="9.174091927707195">
        <ele>920.118896484375</ele>
        <time>2007-11-11T10:35:15Z</time>
      </trkpt>
      <trkpt lat="45.82813479937613" lon="9.174323184415698">
        <ele>920.599609375</ele>
        <time>2007-11-11T10:35:21Z</time>
      </trkpt>
      <trkpt lat="45.828301096335053" lon="9.174489229917526">
        <ele>922.522216796875</ele>
        <time>2007-11-11T10:35:33Z</time>
      </trkpt>
      <trkpt lat="45.828492622822523" lon="9.174491241574287">
        <ele>923.483642578125</ele>
        <time>2007-11-11T10:35:44Z</time>
      </trkpt>
      <trkpt lat="45.828717928379774" lon="9.174564080312848">
        <ele>921.080322265625</ele>
        <time>2007-11-11T10:35:53Z</time>
      </trkpt>
      <trkpt lat="45.829013222828507" lon="9.174621244892478">
        <ele>919.638427734375</ele>
        <time>2007-11-11T10:36:01Z</time>
      </trkpt>
      <trkpt lat="45.829308349639177" lon="9.174624597653747">
        <ele>919.15771484375</ele>
        <time>2007-11-11T10:36:06Z</time>
      </trkpt>
      <trkpt lat="45.8295454736799" lon="9.174678828567267">
        <ele>919.638427734375</ele>
        <time>2007-11-11T10:36:11Z</time>
      </trkpt>
      <trkpt lat="45.829782849177718" lon="9.174795923754573">
        <ele>921.560791015625</ele>
        <time>2007-11-11T10:36:24Z</time>
      </trkpt>
      <trkpt lat="45.829968340694904" lon="9.174928441643715">
        <ele>921.080322265625</ele>
        <time>2007-11-11T10:36:31Z</time>
      </trkpt>
      <trkpt lat="45.830172440037131" lon="9.174942187964916">
        <ele>918.677001953125</ele>
        <time>2007-11-11T10:36:37Z</time>
      </trkpt>
      <trkpt lat="45.830380143597722" lon="9.174769185483456">
        <ele>916.75439453125</ele>
        <time>2007-11-11T10:36:44Z</time>
      </trkpt>
      <trkpt lat="45.83061701618135" lon="9.174820063635707">
        <ele>919.15771484375</ele>
        <time>2007-11-11T10:36:55Z</time>
      </trkpt>
      <trkpt lat="45.830822791904211" lon="9.174751667305827">
        <ele>920.599609375</ele>
        <time>2007-11-11T10:37:08Z</time>
      </trkpt>
      <trkpt lat="45.831029238179326" lon="9.174712523818016">
        <ele>920.599609375</ele>
        <time>2007-11-11T10:37:22Z</time>
      </trkpt>
      <trkpt lat="45.831320341676474" lon="9.174722665920854">
        <ele>915.3125</ele>
        <time>2007-11-11T10:37:31Z</time>
      </trkpt>
      <trkpt lat="45.831542378291488" lon="9.174849819391966">
        <ele>910.025146484375</ele>
        <time>2007-11-11T10:37:40Z</time>
      </trkpt>
      <trkpt lat="45.831663077697158" lon="9.175043273717165">
        <ele>912.428466796875</ele>
        <time>2007-11-11T10:38:00Z</time>
      </trkpt>
      <trkpt lat="45.831554448232055" lon="9.175446443259716">
        <ele>918.1962890625</ele>
        <time>2007-11-11T10:38:40Z</time>
      </trkpt>
      <trkpt lat="45.831459062173963" lon="9.17577208019793">
        <ele>917.715576171875</ele>
        <time>2007-11-11T10:38:53Z</time>
      </trkpt>
      <trkpt lat="45.831437855958939" lon="9.17612043209374">
        <ele>915.3125</ele>
        <time>2007-11-11T10:39:14Z</time>
      </trkpt>
      <trkpt lat="45.831423187628388" lon="9.176410445943475">
        <ele>917.715576171875</ele>
        <time>2007-11-11T10:39:28Z</time>
      </trkpt>
      <trkpt lat="45.831400640308857" lon="9.176729880273342">
        <ele>921.080322265625</ele>
        <time>2007-11-11T10:39:52Z</time>
      </trkpt>
      <trkpt lat="45.831500133499503" lon="9.177002962678671">
        <ele>921.560791015625</ele>
        <time>2007-11-11T10:40:06Z</time>
      </trkpt>
      <trkpt lat="45.831652097404003" lon="9.17720127850771">
        <ele>925.40625</ele>
        <time>2007-11-11T10:40:19Z</time>
      </trkpt>
      <trkpt lat="45.831806743517518" lon="9.177395319566131">
        <ele>927.8095703125</ele>
        <time>2007-11-11T10:40:35Z</time>
      </trkpt>
      <trkpt lat="45.831662323325872" lon="9.177691787481308">
        <ele>928.290283203125</ele>
        <time>2007-11-11T10:41:08Z</time>
      </trkpt>
      <trkpt lat="45.831474987789989" lon="9.177873088046908">
        <ele>927.8095703125</ele>
        <time>2007-11-11T10:41:17Z</time>
      </trkpt>
      <trkpt lat="45.8313362672925" lon="9.178095040842891">
        <ele>928.290283203125</ele>
        <time>2007-11-11T10:41:24Z</time>
      </trkpt>
      <trkpt lat="45.831175586208701" lon="9.178237365558744">
        <ele>928.77099609375</ele>
        <time>2007-11-11T10:41:40Z</time>
      </trkpt>
      <trkpt lat="45.830991184338927" lon="9.178395448252559">
        <ele>929.732177734375</ele>
        <time>2007-11-11T10:41:52Z</time>
      </trkpt>
      <trkpt lat="45.830987161025405" lon="9.17869501747191">
        <ele>932.135498046875</ele>
        <time>2007-11-11T10:42:18Z</time>
      </trkpt>
      <trkpt lat="45.831092437729239" lon="9.178972793743014">
        <ele>934.538818359375</ele>
        <time>2007-11-11T10:42:33Z</time>
      </trkpt>
      <trkpt lat="45.831123618409038" lon="9.179242942482233">
        <ele>934.538818359375</ele>
        <time>2007-11-11T10:42:46Z</time>
      </trkpt>
      <trkpt lat="45.830906946212053" lon="9.179521137848496">
        <ele>937.9033203125</ele>
        <time>2007-11-11T10:43:01Z</time>
      </trkpt>
      <trkpt lat="45.830722963437438" lon="9.179736552760005">
        <ele>940.306884765625</ele>
        <time>2007-11-11T10:43:17Z</time>
      </trkpt>
      <trkpt lat="45.830445690080523" lon="9.179952973499894">
        <ele>941.748779296875</ele>
        <time>2007-11-11T10:43:44Z</time>
      </trkpt>
      <trkpt lat="45.83026179112494" lon="9.180196970701218">
        <ele>946.555419921875</ele>
        <time>2007-11-11T10:44:00Z</time>
      </trkpt>
      <trkpt lat="45.830100774765015" lon="9.180384390056133">
        <ele>944.152099609375</ele>
        <time>2007-11-11T10:44:09Z</time>
      </trkpt>
      <trkpt lat="45.82989483140409" lon="9.180546998977661">
        <ele>944.632568359375</ele>
        <time>2007-11-11T10:44:15Z</time>
      </trkpt>
      <trkpt lat="45.829706490039825" lon="9.180649928748608">
        <ele>944.152099609375</ele>
        <time>2007-11-11T10:44:23Z</time>
      </trkpt>
      <trkpt lat="45.829518064856529" lon="9.180750176310539">
        <ele>942.2294921875</ele>
        <time>2007-11-11T10:44:33Z</time>
      </trkpt>
      <trkpt lat="45.829494344070554" lon="9.181011188775301">
        <ele>939.34521484375</ele>
        <time>2007-11-11T10:44:40Z</time>
      </trkpt>
      <trkpt lat="45.829589730128646" lon="9.181261472404003">
        <ele>935.980712890625</ele>
        <time>2007-11-11T10:44:46Z</time>
      </trkpt>
      <trkpt lat="45.829710680991411" lon="9.1815085709095">
        <ele>931.17431640625</ele>
        <time>2007-11-11T10:44:52Z</time>
      </trkpt>
      <trkpt lat="45.829848228022456" lon="9.181714346632361">
        <ele>929.732177734375</ele>
        <time>2007-11-11T10:44:57Z</time>
      </trkpt>
      <trkpt lat="45.830004382878542" lon="9.181926241144538">
        <ele>926.36767578125</ele>
        <time>2007-11-11T10:45:03Z</time>
      </trkpt>
      <trkpt lat="45.830159951001406" lon="9.182156324386597">
        <ele>923.964111328125</ele>
        <time>2007-11-11T10:45:08Z</time>
      </trkpt>
      <trkpt lat="45.830308478325605" lon="9.182400656864047">
        <ele>920.118896484375</ele>
        <time>2007-11-11T10:45:13Z</time>
      </trkpt>
      <trkpt lat="45.830434877425432" lon="9.182650437578559">
        <ele>916.273681640625</ele>
        <time>2007-11-11T10:45:18Z</time>
      </trkpt>
      <trkpt lat="45.830574939027429" lon="9.182908181101084">
        <ele>911.46728515625</ele>
        <time>2007-11-11T10:45:25Z</time>
      </trkpt>
      <trkpt lat="45.83072941750288" lon="9.183164164423943">
        <ele>906.1796875</ele>
        <time>2007-11-11T10:45:34Z</time>
      </trkpt>
      <trkpt lat="45.830851374194026" lon="9.183461973443627">
        <ele>901.373291015625</ele>
        <time>2007-11-11T10:45:44Z</time>
      </trkpt>
      <trkpt lat="45.830745678395033" lon="9.183790292590857">
        <ele>904.73779296875</ele>
        <time>2007-11-11T10:46:32Z</time>
      </trkpt>
      <trkpt lat="45.830522133037448" lon="9.184049963951111">
        <ele>909.544677734375</ele>
        <time>2007-11-11T10:46:52Z</time>
      </trkpt>
      <trkpt lat="45.830299677327275" lon="9.184320950880647">
        <ele>910.505859375</ele>
        <time>2007-11-11T10:47:32Z</time>
      </trkpt>
      <trkpt lat="45.830239495262504" lon="9.184587327763438">
        <ele>908.583251953125</ele>
        <time>2007-11-11T10:47:45Z</time>
      </trkpt>
      <trkpt lat="45.830056434497237" lon="9.184576766565442">
        <ele>908.102783203125</ele>
        <time>2007-11-11T10:47:54Z</time>
      </trkpt>
      <trkpt lat="45.829861052334309" lon="9.184566289186478">
        <ele>907.621826171875</ele>
        <time>2007-11-11T10:48:00Z</time>
      </trkpt>
      <trkpt lat="45.82967983558774" lon="9.184642899781466">
        <ele>907.621826171875</ele>
        <time>2007-11-11T10:48:04Z</time>
      </trkpt>
      <trkpt lat="45.829453859478235" lon="9.184688245877624">
        <ele>907.14111328125</ele>
        <time>2007-11-11T10:48:09Z</time>
      </trkpt>
      <trkpt lat="45.829241881147027" lon="9.184734681621194">
        <ele>906.660400390625</ele>
        <time>2007-11-11T10:48:14Z</time>
      </trkpt>
      <trkpt lat="45.829020934179425" lon="9.184750691056252">
        <ele>906.660400390625</ele>
        <time>2007-11-11T10:48:19Z</time>
      </trkpt>
      <trkpt lat="45.82881448790431" lon="9.184805760160089">
        <ele>907.14111328125</ele>
        <time>2007-11-11T10:48:25Z</time>
      </trkpt>
      <trkpt lat="45.828606365248561" lon="9.184936434030533">
        <ele>907.14111328125</ele>
        <time>2007-11-11T10:48:34Z</time>
      </trkpt>
      <trkpt lat="45.828419029712677" lon="9.185042548924685">
        <ele>907.14111328125</ele>
        <time>2007-11-11T10:48:40Z</time>
      </trkpt>
      <trkpt lat="45.828232280910015" lon="9.185196021571755">
        <ele>906.1796875</ele>
        <time>2007-11-11T10:48:46Z</time>
      </trkpt>
      <trkpt lat="45.828085849061608" lon="9.185426691547036">
        <ele>906.1796875</ele>
        <time>2007-11-11T10:48:51Z</time>
      </trkpt>
      <trkpt lat="45.827924078330398" lon="9.185628863051534">
        <ele>905.69921875</ele>
        <time>2007-11-11T10:48:55Z</time>
      </trkpt>
      <trkpt lat="45.827762642875314" lon="9.185833046212792">
        <ele>904.25732421875</ele>
        <time>2007-11-11T10:48:59Z</time>
      </trkpt>
      <trkpt lat="45.827594166621566" lon="9.186040498316288">
        <ele>903.776611328125</ele>
        <time>2007-11-11T10:49:03Z</time>
      </trkpt>
      <trkpt lat="45.827429629862309" lon="9.186217691749334">
        <ele>902.815185546875</ele>
        <time>2007-11-11T10:49:07Z</time>
      </trkpt>
      <trkpt lat="45.827283952385187" lon="9.186338223516941">
        <ele>902.815185546875</ele>
        <time>2007-11-11T10:49:46Z</time>
      </trkpt>
      <trkpt lat="45.827050264924765" lon="9.186305198818445">
        <ele>900.892578125</ele>
        <time>2007-11-11T10:49:53Z</time>
      </trkpt>
      <trkpt lat="45.826845746487379" lon="9.18629564344883">
        <ele>897.528076171875</ele>
        <time>2007-11-11T10:49:58Z</time>
      </trkpt>
      <trkpt lat="45.826623877510428" lon="9.186354065313935">
        <ele>896.086181640625</ele>
        <time>2007-11-11T10:50:03Z</time>
      </trkpt>
      <trkpt lat="45.826305951923132" lon="9.186463197693229">
        <ele>895.60546875</ele>
        <time>2007-11-11T10:50:41Z</time>
      </trkpt>
      <trkpt lat="45.82612557336688" lon="9.186485828831792">
        <ele>894.64404296875</ele>
        <time>2007-11-11T10:50:46Z</time>
      </trkpt>
      <trkpt lat="45.825957180932164" lon="9.186362363398075">
        <ele>895.60546875</ele>
        <time>2007-11-11T10:50:51Z</time>
      </trkpt>
      <trkpt lat="45.825780322775245" lon="9.186246693134308">
        <ele>896.56689453125</ele>
        <time>2007-11-11T10:50:57Z</time>
      </trkpt>
      <trkpt lat="45.825593238696456" lon="9.186115097254515">
        <ele>897.04736328125</ele>
        <time>2007-11-11T10:51:03Z</time>
      </trkpt>
      <trkpt lat="45.825398443266749" lon="9.185966067016125">
        <ele>898.0087890625</ele>
        <time>2007-11-11T10:51:09Z</time>
      </trkpt>
      <trkpt lat="45.825191242620349" lon="9.185799937695265">
        <ele>897.528076171875</ele>
        <time>2007-11-11T10:51:15Z</time>
      </trkpt>
      <trkpt lat="45.825035171583295" lon="9.185614949092269">
        <ele>898.0087890625</ele>
        <time>2007-11-11T10:51:20Z</time>
      </trkpt>
      <trkpt lat="45.824885386973619" lon="9.185414286330342">
        <ele>897.04736328125</ele>
        <time>2007-11-11T10:51:25Z</time>
      </trkpt>
      <trkpt lat="45.82478228956461" lon="9.185461979359388">
        <ele>899.931396484375</ele>
        <time>2007-11-11T10:51:35Z</time>
      </trkpt>
      <trkpt lat="45.824666116386652" lon="9.185669263824821">
        <ele>901.85400390625</ele>
        <time>2007-11-11T10:51:44Z</time>
      </trkpt>
      <trkpt lat="45.824656477198005" lon="9.185914266854525">
        <ele>902.815185546875</ele>
        <time>2007-11-11T10:51:53Z</time>
      </trkpt>
      <trkpt lat="45.82478228956461" lon="9.186121886596084">
        <ele>902.815185546875</ele>
        <time>2007-11-11T10:52:02Z</time>
      </trkpt>
      <trkpt lat="45.824885638430715" lon="9.186350125819445">
        <ele>903.2958984375</ele>
        <time>2007-11-11T10:52:08Z</time>
      </trkpt>
      <trkpt lat="45.824994435533881" lon="9.18661767616868">
        <ele>903.776611328125</ele>
        <time>2007-11-11T10:52:15Z</time>
      </trkpt>
      <trkpt lat="45.825155284255743" lon="9.186833426356316">
        <ele>904.25732421875</ele>
        <time>2007-11-11T10:52:23Z</time>
      </trkpt>
      <trkpt lat="45.825286377221346" lon="9.187078261747956">
        <ele>904.25732421875</ele>
        <time>2007-11-11T10:52:31Z</time>
      </trkpt>
      <trkpt lat="45.825421577319503" lon="9.187333155423403">
        <ele>903.776611328125</ele>
        <time>2007-11-11T10:52:38Z</time>
      </trkpt>
      <trkpt lat="45.825562477111816" lon="9.187541361898184">
        <ele>903.2958984375</ele>
        <time>2007-11-11T10:52:44Z</time>
      </trkpt>
      <trkpt lat="45.825692899525166" lon="9.18774981983006">
        <ele>902.33447265625</ele>
        <time>2007-11-11T10:52:49Z</time>
      </trkpt>
      <trkpt lat="45.825836816802621" lon="9.187988620251417">
        <ele>903.2958984375</ele>
        <time>2007-11-11T10:52:55Z</time>
      </trkpt>
      <trkpt lat="45.82595843821764" lon="9.188235970214009">
        <ele>904.25732421875</ele>
        <time>2007-11-11T10:53:01Z</time>
      </trkpt>
      <trkpt lat="45.826119957491755" lon="9.188426490873098">
        <ele>905.69921875</ele>
        <time>2007-11-11T10:53:10Z</time>
      </trkpt>
      <trkpt lat="45.826331181451678" lon="9.188429424539208">
        <ele>907.621826171875</ele>
        <time>2007-11-11T10:53:22Z</time>
      </trkpt>
      <trkpt lat="45.826522540301085" lon="9.188455659896135">
        <ele>910.986572265625</ele>
        <time>2007-11-11T10:53:32Z</time>
      </trkpt>
      <trkpt lat="45.826706271618605" lon="9.188549788668752">
        <ele>911.46728515625</ele>
        <time>2007-11-11T10:53:43Z</time>
      </trkpt>
      <trkpt lat="45.826866198331118" lon="9.188711140304804">
        <ele>911.947998046875</ele>
        <time>2007-11-11T10:53:51Z</time>
      </trkpt>
      <trkpt lat="45.826971055939794" lon="9.188960669562221">
        <ele>908.583251953125</ele>
        <time>2007-11-11T10:54:00Z</time>
      </trkpt>
      <trkpt lat="45.827062167227268" lon="9.18922352604568">
        <ele>906.1796875</ele>
        <time>2007-11-11T10:54:13Z</time>
      </trkpt>
      <trkpt lat="45.827330136671662" lon="9.189408933743835">
        <ele>905.69921875</ele>
        <time>2007-11-11T10:54:50Z</time>
      </trkpt>
      <trkpt lat="45.827529123052955" lon="9.189493758603931">
        <ele>907.621826171875</ele>
        <time>2007-11-11T10:55:04Z</time>
      </trkpt>
      <trkpt lat="45.82772433757782" lon="9.189544385299087">
        <ele>912.428466796875</ele>
        <time>2007-11-11T10:55:21Z</time>
      </trkpt>
      <trkpt lat="45.827923323959112" lon="9.189707832410932">
        <ele>912.9091796875</ele>
        <time>2007-11-11T10:55:32Z</time>
      </trkpt>
      <trkpt lat="45.828086854889989" lon="9.189886283129454">
        <ele>913.389892578125</ele>
        <time>2007-11-11T10:55:40Z</time>
      </trkpt>
      <trkpt lat="45.828225240111351" lon="9.190082419663668">
        <ele>913.389892578125</ele>
        <time>2007-11-11T10:55:46Z</time>
      </trkpt>
      <trkpt lat="45.828375946730375" lon="9.190290961414576">
        <ele>913.389892578125</ele>
        <time>2007-11-11T10:55:52Z</time>
      </trkpt>
      <trkpt lat="45.82858239300549" lon="9.190412666648626">
        <ele>915.3125</ele>
        <time>2007-11-11T10:55:58Z</time>
      </trkpt>
      <trkpt lat="45.828785989433527" lon="9.190465053543448">
        <ele>917.235107421875</ele>
        <time>2007-11-11T10:56:06Z</time>
      </trkpt>
      <trkpt lat="45.828977935016155" lon="9.190524565055966">
        <ele>917.715576171875</ele>
        <time>2007-11-11T10:56:14Z</time>
      </trkpt>
      <trkpt lat="45.829181196168065" lon="9.190589273348451">
        <ele>918.1962890625</ele>
        <time>2007-11-11T10:56:21Z</time>
      </trkpt>
      <trkpt lat="45.82939887419343" lon="9.190601091831923">
        <ele>918.677001953125</ele>
        <time>2007-11-11T10:56:29Z</time>
      </trkpt>
      <trkpt lat="45.829600123688579" lon="9.190569994971156">
        <ele>920.118896484375</ele>
        <time>2007-11-11T10:56:42Z</time>
      </trkpt>
      <trkpt lat="45.829796344041824" lon="9.190400093793869">
        <ele>921.560791015625</ele>
        <time>2007-11-11T10:56:58Z</time>
      </trkpt>
      <trkpt lat="45.830076634883881" lon="9.190289620310068">
        <ele>925.886962890625</ele>
        <time>2007-11-11T10:57:16Z</time>
      </trkpt>
      <trkpt lat="45.830348627641797" lon="9.189972029998899">
        <ele>934.538818359375</ele>
        <time>2007-11-11T10:57:58Z</time>
      </trkpt>
      <trkpt lat="45.830623973160982" lon="9.189891228452325">
        <ele>938.86474609375</ele>
        <time>2007-11-11T11:04:37Z</time>
      </trkpt>
      <trkpt lat="45.830823043361306" lon="9.189888462424278">
        <ele>943.190673828125</ele>
        <time>2007-11-11T11:05:00Z</time>
      </trkpt>
      <trkpt lat="45.830952040851116" lon="9.190142182633281">
        <ele>946.555419921875</ele>
        <time>2007-11-11T11:05:20Z</time>
      </trkpt>
      <trkpt lat="45.831080283969641" lon="9.190366398543119">
        <ele>948.95849609375</ele>
        <time>2007-11-11T11:05:40Z</time>
      </trkpt>
      <trkpt lat="45.83121414296329" lon="9.190544597804546">
        <ele>952.8037109375</ele>
        <time>2007-11-11T11:05:59Z</time>
      </trkpt>
      <trkpt lat="45.831390917301178" lon="9.190596230328083">
        <ele>955.20703125</ele>
        <time>2007-11-11T11:06:22Z</time>
      </trkpt>
      <trkpt lat="45.831588143482804" lon="9.190498245880008">
        <ele>958.09130859375</ele>
        <time>2007-11-11T11:06:47Z</time>
      </trkpt>
      <trkpt lat="45.831803390756249" lon="9.190588854253292">
        <ele>959.533203125</ele>
        <time>2007-11-11T11:07:06Z</time>
      </trkpt>
      <trkpt lat="45.831994665786624" lon="9.19067619368434">
        <ele>960.97509765625</ele>
        <time>2007-11-11T11:07:22Z</time>
      </trkpt>
      <trkpt lat="45.832188874483109" lon="9.190673679113388">
        <ele>961.9365234375</ele>
        <time>2007-11-11T11:07:35Z</time>
      </trkpt>
      <trkpt lat="45.832400852814317" lon="9.190646521747112">
        <ele>961.9365234375</ele>
        <time>2007-11-11T11:07:48Z</time>
      </trkpt>
      <trkpt lat="45.83260185085237" lon="9.190749451518059">
        <ele>963.85888671875</ele>
        <time>2007-11-11T11:08:03Z</time>
      </trkpt>
      <trkpt lat="45.832754485309124" lon="9.19091415591538">
        <ele>967.2236328125</ele>
        <time>2007-11-11T11:08:21Z</time>
      </trkpt>
      <trkpt lat="45.832895720377564" lon="9.191063940525055">
        <ele>972.0302734375</ele>
        <time>2007-11-11T11:08:39Z</time>
      </trkpt>
      <trkpt lat="45.833045924082398" lon="9.191185142844915">
        <ele>976.356201171875</ele>
        <time>2007-11-11T11:09:22Z</time>
      </trkpt>
      <trkpt lat="45.833235690370202" lon="9.191059833392501">
        <ele>979.239990234375</ele>
        <time>2007-11-11T11:09:51Z</time>
      </trkpt>
      <trkpt lat="45.833415482193232" lon="9.190919185057282">
        <ele>981.162841796875</ele>
        <time>2007-11-11T11:10:08Z</time>
      </trkpt>
      <trkpt lat="45.833580773323774" lon="9.190711816772819">
        <ele>981.643310546875</ele>
        <time>2007-11-11T11:10:21Z</time>
      </trkpt>
      <trkpt lat="45.833666687831283" lon="9.190448541194201">
        <ele>984.046630859375</ele>
        <time>2007-11-11T11:10:37Z</time>
      </trkpt>
      <trkpt lat="45.833768360316753" lon="9.190188283100724">
        <ele>985.008056640625</ele>
        <time>2007-11-11T11:10:50Z</time>
      </trkpt>
      <trkpt lat="45.833920743316412" lon="9.189929952844977">
        <ele>985.488525390625</ele>
        <time>2007-11-11T11:11:05Z</time>
      </trkpt>
      <trkpt lat="45.834070276468992" lon="9.189673634245992">
        <ele>990.77587890625</ele>
        <time>2007-11-11T11:11:30Z</time>
      </trkpt>
      <trkpt lat="45.834290469065309" lon="9.189542792737484">
        <ele>992.69873046875</ele>
        <time>2007-11-11T11:11:52Z</time>
      </trkpt>
      <trkpt lat="45.834498591721058" lon="9.189239116385579">
        <ele>996.5439453125</ele>
        <time>2007-11-11T11:12:28Z</time>
      </trkpt>
      <trkpt lat="45.834711072966456" lon="9.189276080578566">
        <ele>998.947021484375</ele>
        <time>2007-11-11T11:12:43Z</time>
      </trkpt>
      <trkpt lat="45.834953980520368" lon="9.189254622906447">
        <ele>1000.86962890625</ele>
        <time>2007-11-11T11:13:01Z</time>
      </trkpt>
      <trkpt lat="45.835116589441895" lon="9.189447239041328">
        <ele>999.908447265625</ele>
        <time>2007-11-11T11:13:12Z</time>
      </trkpt>
      <trkpt lat="45.835271067917347" lon="9.189634993672371">
        <ele>999.908447265625</ele>
        <time>2007-11-11T11:13:24Z</time>
      </trkpt>
      <trkpt lat="45.835463097319007" lon="9.189775474369526">
        <ele>1000.38916015625</ele>
        <time>2007-11-11T11:13:32Z</time>
      </trkpt>
      <trkpt lat="45.835638362914324" lon="9.189940094947815">
        <ele>1001.8310546875</ele>
        <time>2007-11-11T11:13:43Z</time>
      </trkpt>
      <trkpt lat="45.835843635722995" lon="9.189999271184206">
        <ele>1002.3115234375</ele>
        <time>2007-11-11T11:13:53Z</time>
      </trkpt>
      <trkpt lat="45.835997192189097" lon="9.190167328342795">
        <ele>1002.3115234375</ele>
        <time>2007-11-11T11:14:00Z</time>
      </trkpt>
      <trkpt lat="45.836131554096937" lon="9.190380899235606">
        <ele>1003.27294921875</ele>
        <time>2007-11-11T11:14:10Z</time>
      </trkpt>
      <trkpt lat="45.836275052279234" lon="9.190558679401875">
        <ele>1004.715087890625</ele>
        <time>2007-11-11T11:14:28Z</time>
      </trkpt>
      <trkpt lat="45.836437745019794" lon="9.190583322197199">
        <ele>1007.118408203125</ele>
        <time>2007-11-11T11:14:45Z</time>
      </trkpt>
      <trkpt lat="45.836624074727297" lon="9.190397495403886">
        <ele>1008.560302734375</ele>
        <time>2007-11-11T11:15:04Z</time>
      </trkpt>
      <trkpt lat="45.836793724447489" lon="9.190234383568168">
        <ele>1010.002197265625</ele>
        <time>2007-11-11T11:15:17Z</time>
      </trkpt>
      <trkpt lat="45.836938144639134" lon="9.190055429935455">
        <ele>1011.4443359375</ele>
        <time>2007-11-11T11:15:27Z</time>
      </trkpt>
      <trkpt lat="45.83701022900641" lon="9.189786873757839">
        <ele>1011.925048828125</ele>
        <time>2007-11-11T11:15:39Z</time>
      </trkpt>
      <trkpt lat="45.83704543299973" lon="9.189488897100091">
        <ele>1013.847412109375</ele>
        <time>2007-11-11T11:15:52Z</time>
      </trkpt>
      <trkpt lat="45.837142830714583" lon="9.189183879643679">
        <ele>1017.212158203125</ele>
        <time>2007-11-11T11:16:17Z</time>
      </trkpt>
      <trkpt lat="45.837302589789033" lon="9.188954383134842">
        <ele>1018.17333984375</ele>
        <time>2007-11-11T11:16:41Z</time>
      </trkpt>
      <trkpt lat="45.837545497342944" lon="9.188874671235681">
        <ele>1019.615478515625</ele>
        <time>2007-11-11T11:17:01Z</time>
      </trkpt>
      <trkpt lat="45.837785638868809" lon="9.188865618780255">
        <ele>1020.09619140625</ele>
        <time>2007-11-11T11:17:27Z</time>
      </trkpt>
      <trkpt lat="45.838025277480483" lon="9.188864696770906">
        <ele>1025.38330078125</ele>
        <time>2007-11-11T11:17:56Z</time>
      </trkpt>
      <trkpt lat="45.838172631338239" lon="9.188670655712485">
        <ele>1026.3447265625</ele>
        <time>2007-11-11T11:18:11Z</time>
      </trkpt>
      <trkpt lat="45.838345298543572" lon="9.188498491421342">
        <ele>1026.825439453125</ele>
        <time>2007-11-11T11:18:22Z</time>
      </trkpt>
      <trkpt lat="45.838560797274113" lon="9.188409140333533">
        <ele>1027.78662109375</ele>
        <time>2007-11-11T11:18:33Z</time>
      </trkpt>
      <trkpt lat="45.838801357895136" lon="9.188361698761582">
        <ele>1028.267333984375</ele>
        <time>2007-11-11T11:18:51Z</time>
      </trkpt>
      <trkpt lat="45.839001266285777" lon="9.18826044537127">
        <ele>1029.709228515625</ele>
        <time>2007-11-11T11:19:08Z</time>
      </trkpt>
      <trkpt lat="45.839230343699455" lon="9.188119126483798">
        <ele>1030.670654296875</ele>
        <time>2007-11-11T11:19:27Z</time>
      </trkpt>
      <trkpt lat="45.839434023946524" lon="9.188017789274454">
        <ele>1032.59326171875</ele>
        <time>2007-11-11T11:19:47Z</time>
      </trkpt>
      <trkpt lat="45.839612139388919" lon="9.188157934695482">
        <ele>1034.03515625</ele>
        <time>2007-11-11T11:20:04Z</time>
      </trkpt>
      <trkpt lat="45.83978614769876" lon="9.188303779810667">
        <ele>1035.957763671875</ele>
        <time>2007-11-11T11:20:19Z</time>
      </trkpt>
      <trkpt lat="45.839969795197248" lon="9.188405117020011">
        <ele>1036.919189453125</ele>
        <time>2007-11-11T11:20:33Z</time>
      </trkpt>
      <trkpt lat="45.840032994747162" lon="9.188654646277428">
        <ele>1037.880615234375</ele>
        <time>2007-11-11T11:20:46Z</time>
      </trkpt>
      <trkpt lat="45.840155621990561" lon="9.188872659578919">
        <ele>1039.322509765625</ele>
        <time>2007-11-11T11:21:00Z</time>
      </trkpt>
      <trkpt lat="45.840257126837969" lon="9.189098468050361">
        <ele>1041.725830078125</ele>
        <time>2007-11-11T11:21:15Z</time>
      </trkpt>
      <trkpt lat="45.840331390500069" lon="9.189334334805608">
        <ele>1043.6484375</ele>
        <time>2007-11-11T11:21:32Z</time>
      </trkpt>
      <trkpt lat="45.840408084914088" lon="9.18956114910543">
        <ele>1046.0517578125</ele>
        <time>2007-11-11T11:21:51Z</time>
      </trkpt>
      <trkpt lat="45.840475726872683" lon="9.189788550138474">
        <ele>1049.89697265625</ele>
        <time>2007-11-11T11:22:12Z</time>
      </trkpt>
      <trkpt lat="45.84055476821959" lon="9.190028691664338">
        <ele>1052.781005859375</ele>
        <time>2007-11-11T11:22:30Z</time>
      </trkpt>
      <trkpt lat="45.840649735182524" lon="9.190262462943792">
        <ele>1054.70361328125</ele>
        <time>2007-11-11T11:22:46Z</time>
      </trkpt>
      <trkpt lat="45.84077169187367" lon="9.190445775166154">
        <ele>1055.6650390625</ele>
        <time>2007-11-11T11:23:03Z</time>
      </trkpt>
      <trkpt lat="45.840908819809556" lon="9.190613832324743">
        <ele>1057.587646484375</ele>
        <time>2007-11-11T11:23:25Z</time>
      </trkpt>
      <trkpt lat="45.841003451496363" lon="9.190829079598188">
        <ele>1060.9521484375</ele>
        <time>2007-11-11T11:23:46Z</time>
      </trkpt>
      <trkpt lat="45.841087941080332" lon="9.191062683239579">
        <ele>1064.316650390625</ele>
        <time>2007-11-11T11:24:06Z</time>
      </trkpt>
      <trkpt lat="45.841190535575151" lon="9.191270219162107">
        <ele>1067.20068359375</ele>
        <time>2007-11-11T11:24:26Z</time>
      </trkpt>
      <trkpt lat="45.841345936059952" lon="9.191376836970449">
        <ele>1072.488037109375</ele>
        <time>2007-11-11T11:24:50Z</time>
      </trkpt>
      <trkpt lat="45.84153788164258" lon="9.191433666273952">
        <ele>1073.929931640625</ele>
        <time>2007-11-11T11:25:14Z</time>
      </trkpt>
      <trkpt lat="45.841729491949081" lon="9.191528633236885">
        <ele>1074.41064453125</ele>
        <time>2007-11-11T11:25:37Z</time>
      </trkpt>
      <trkpt lat="45.841899728402495" lon="9.191655870527029">
        <ele>1076.333251953125</ele>
        <time>2007-11-11T11:25:56Z</time>
      </trkpt>
      <trkpt lat="45.842067366465926" lon="9.19177807867527">
        <ele>1078.736572265625</ele>
        <time>2007-11-11T11:26:15Z</time>
      </trkpt>
      <trkpt lat="45.842243051156402" lon="9.19189534150064">
        <ele>1083.062255859375</ele>
        <time>2007-11-11T11:26:37Z</time>
      </trkpt>
      <trkpt lat="45.842391075566411" lon="9.192043365910649">
        <ele>1083.54296875</ele>
        <time>2007-11-11T11:26:55Z</time>
      </trkpt>
      <trkpt lat="45.842536920681596" lon="9.192212428897619">
        <ele>1085.946533203125</ele>
        <time>2007-11-11T11:27:15Z</time>
      </trkpt>
      <trkpt lat="45.842680335044861" lon="9.192361794412136">
        <ele>1087.869140625</ele>
        <time>2007-11-11T11:27:38Z</time>
      </trkpt>
      <trkpt lat="45.842834142968059" lon="9.192498754709959">
        <ele>1091.71435546875</ele>
        <time>2007-11-11T11:28:02Z</time>
      </trkpt>
      <trkpt lat="45.843001864850521" lon="9.19262582436204">
        <ele>1095.078857421875</ele>
        <time>2007-11-11T11:28:26Z</time>
      </trkpt>
      <trkpt lat="45.843173274770379" lon="9.192748283967376">
        <ele>1099.40478515625</ele>
        <time>2007-11-11T11:28:48Z</time>
      </trkpt>
      <trkpt lat="45.843324232846498" lon="9.192890943959355">
        <ele>1104.211669921875</ele>
        <time>2007-11-11T11:29:06Z</time>
      </trkpt>
      <trkpt lat="45.843465635553002" lon="9.193039638921619">
        <ele>1108.056884765625</ele>
        <time>2007-11-11T11:34:57Z</time>
      </trkpt>
      <trkpt lat="45.843583568930626" lon="9.193225633352995">
        <ele>1112.382568359375</ele>
        <time>2007-11-11T11:35:14Z</time>
      </trkpt>
      <trkpt lat="45.843713572248816" lon="9.193407939746976">
        <ele>1114.785888671875</ele>
        <time>2007-11-11T11:37:06Z</time>
      </trkpt>
      <trkpt lat="45.843823123723269" lon="9.193586139008403">
        <ele>1117.189453125</ele>
        <time>2007-11-11T11:37:24Z</time>
      </trkpt>
      <trkpt lat="45.843884143978357" lon="9.193813623860478">
        <ele>1122.4765625</ele>
        <time>2007-11-11T11:37:44Z</time>
      </trkpt>
      <trkpt lat="45.843910882249475" lon="9.19405066408217">
        <ele>1126.32177734375</ele>
        <time>2007-11-11T11:38:58Z</time>
      </trkpt>
      <trkpt lat="45.844004089012742" lon="9.194262558594346">
        <ele>1130.1669921875</ele>
        <time>2007-11-11T11:39:14Z</time>
      </trkpt>
      <trkpt lat="45.844011968001723" lon="9.194494234398007">
        <ele>1134.012451171875</ele>
        <time>2007-11-11T11:43:45Z</time>
      </trkpt>
      <trkpt lat="45.84404407069087" lon="9.194414438679814">
        <ele>1132.08984375</ele>
        <time>2007-11-11T11:56:37Z</time>
      </trkpt>
      <trkpt lat="45.844067288562655" lon="9.19414303265512">
        <ele>1134.4931640625</ele>
        <time>2007-11-11T11:56:56Z</time>
      </trkpt>
      <trkpt lat="45.844093440100551" lon="9.193850168958306">
        <ele>1134.973876953125</ele>
        <time>2007-11-11T11:57:10Z</time>
      </trkpt>
      <trkpt lat="45.844138199463487" lon="9.193575074896216">
        <ele>1136.415771484375</ele>
        <time>2007-11-11T11:57:23Z</time>
      </trkpt>
      <trkpt lat="45.844141216948628" lon="9.193299729377031">
        <ele>1139.7802734375</ele>
        <time>2007-11-11T11:57:42Z</time>
      </trkpt>
      <trkpt lat="45.844092182815075" lon="9.193035364151001">
        <ele>1143.144775390625</ele>
        <time>2007-11-11T11:58:02Z</time>
      </trkpt>
      <trkpt lat="45.844026384875178" lon="9.192774686962366">
        <ele>1146.509521484375</ele>
        <time>2007-11-11T11:58:23Z</time>
      </trkpt>
      <trkpt lat="45.844066953286529" lon="9.192536473274231">
        <ele>1150.83544921875</ele>
        <time>2007-11-11T11:59:24Z</time>
      </trkpt>
      <trkpt lat="45.844168877229095" lon="9.192427424713969">
        <ele>1155.161376953125</ele>
        <time>2007-11-11T12:01:26Z</time>
      </trkpt>
      <trkpt lat="45.844310279935598" lon="9.192620795220137">
        <ele>1154.2001953125</ele>
        <time>2007-11-11T12:01:50Z</time>
      </trkpt>
      <trkpt lat="45.844469284638762" lon="9.192800838500261">
        <ele>1151.796875</ele>
        <time>2007-11-11T12:01:56Z</time>
      </trkpt>
      <trkpt lat="45.84463432431221" lon="9.192941235378385">
        <ele>1148.912841796875</ele>
        <time>2007-11-11T12:02:01Z</time>
      </trkpt>
      <trkpt lat="45.84481805562973" lon="9.193019438534975">
        <ele>1146.509521484375</ele>
        <time>2007-11-11T12:02:07Z</time>
      </trkpt>
      <trkpt lat="45.845007235184312" lon="9.193024635314941">
        <ele>1142.18359375</ele>
        <time>2007-11-11T12:02:13Z</time>
      </trkpt>
      <trkpt lat="45.845227343961596" lon="9.193041482940316">
        <ele>1136.415771484375</ele>
        <time>2007-11-11T12:02:19Z</time>
      </trkpt>
      <trkpt lat="45.845425575971603" lon="9.193122116848826">
        <ele>1132.570556640625</ele>
        <time>2007-11-11T12:02:25Z</time>
      </trkpt>
      <trkpt lat="45.845614084973931" lon="9.19320585206151">
        <ele>1128.244384765625</ele>
        <time>2007-11-11T12:02:32Z</time>
      </trkpt>
      <trkpt lat="45.845820866525173" lon="9.193338034674525">
        <ele>1123.91845703125</ele>
        <time>2007-11-11T12:02:39Z</time>
      </trkpt>
      <trkpt lat="45.846033347770572" lon="9.193413471803069">
        <ele>1119.5927734375</ele>
        <time>2007-11-11T12:02:47Z</time>
      </trkpt>
      <trkpt lat="45.846069725230336" lon="9.193279528990388">
        <ele>1116.708740234375</ele>
        <time>2007-11-11T12:06:30Z</time>
      </trkpt>
      <trkpt lat="45.845906194299459" lon="9.193104933947325">
        <ele>1116.22802734375</ele>
        <time>2007-11-11T12:06:46Z</time>
      </trkpt>
      <trkpt lat="45.84574987180531" lon="9.192933272570372">
        <ele>1114.30517578125</ele>
        <time>2007-11-11T12:06:54Z</time>
      </trkpt>
      <trkpt lat="45.845589945092797" lon="9.192759348079562">
        <ele>1113.343994140625</ele>
        <time>2007-11-11T12:07:03Z</time>
      </trkpt>
      <trkpt lat="45.845404118299484" lon="9.192592799663544">
        <ele>1110.4599609375</ele>
        <time>2007-11-11T12:07:13Z</time>
      </trkpt>
      <trkpt lat="45.845191385596991" lon="9.192487271502614">
        <ele>1109.979248046875</ele>
        <time>2007-11-11T12:07:20Z</time>
      </trkpt>
      <trkpt lat="45.845013773068786" lon="9.192347964271903">
        <ele>1109.979248046875</ele>
        <time>2007-11-11T12:07:27Z</time>
      </trkpt>
      <trkpt lat="45.844880165532231" lon="9.192128526046872">
        <ele>1109.01806640625</ele>
        <time>2007-11-11T12:07:32Z</time>
      </trkpt>
      <trkpt lat="45.844771871343255" lon="9.191847732290626">
        <ele>1107.576171875</ele>
        <time>2007-11-11T12:07:38Z</time>
      </trkpt>
      <trkpt lat="45.84469978697598" lon="9.191554030403495">
        <ele>1106.61474609375</ele>
        <time>2007-11-11T12:07:43Z</time>
      </trkpt>
      <trkpt lat="45.84462845697999" lon="9.191229650750756">
        <ele>1103.250244140625</ele>
        <time>2007-11-11T12:07:48Z</time>
      </trkpt>
      <trkpt lat="45.844580763950944" lon="9.190925052389503">
        <ele>1103.73095703125</ele>
        <time>2007-11-11T12:07:53Z</time>
      </trkpt>
      <trkpt lat="45.84444715641439" lon="9.190657250583172">
        <ele>1105.1728515625</ele>
        <time>2007-11-11T12:07:58Z</time>
      </trkpt>
      <trkpt lat="45.844301227480173" lon="9.190475782379508">
        <ele>1103.73095703125</ele>
        <time>2007-11-11T12:08:03Z</time>
      </trkpt>
      <trkpt lat="45.844215983524919" lon="9.190222062170506">
        <ele>1102.76953125</ele>
        <time>2007-11-11T12:08:08Z</time>
      </trkpt>
      <trkpt lat="45.84423509426415" lon="9.189919559285045">
        <ele>1099.885498046875</ele>
        <time>2007-11-11T12:08:16Z</time>
      </trkpt>
      <trkpt lat="45.84430986084044" lon="9.189643124118447">
        <ele>1098.924072265625</ele>
        <time>2007-11-11T12:08:21Z</time>
      </trkpt>
      <trkpt lat="45.844319919124246" lon="9.189326288178563">
        <ele>1096.040283203125</ele>
        <time>2007-11-11T12:08:26Z</time>
      </trkpt>
      <trkpt lat="45.844389069825411" lon="9.189032418653369">
        <ele>1094.11767578125</ele>
        <time>2007-11-11T12:08:30Z</time>
      </trkpt>
      <trkpt lat="45.844482779502869" lon="9.188721450045705">
        <ele>1095.078857421875</ele>
        <time>2007-11-11T12:08:35Z</time>
      </trkpt>
      <trkpt lat="45.844432152807713" lon="9.188456162810326">
        <ele>1092.67578125</ele>
        <time>2007-11-11T12:08:40Z</time>
      </trkpt>
      <trkpt lat="45.84433576092124" lon="9.188212919980288">
        <ele>1091.71435546875</ele>
        <time>2007-11-11T12:08:44Z</time>
      </trkpt>
      <trkpt lat="45.844216737896204" lon="9.187971688807011">
        <ele>1089.31103515625</ele>
        <time>2007-11-11T12:08:48Z</time>
      </trkpt>
      <trkpt lat="45.844145324081182" lon="9.187713861465454">
        <ele>1087.869140625</ele>
        <time>2007-11-11T12:08:52Z</time>
      </trkpt>
      <trkpt lat="45.844119172543287" lon="9.187401887029409">
        <ele>1087.388427734375</ele>
        <time>2007-11-11T12:08:57Z</time>
      </trkpt>
      <trkpt lat="45.844163848087192" lon="9.18706669472158">
        <ele>1085.4658203125</ele>
        <time>2007-11-11T12:09:03Z</time>
      </trkpt>
      <trkpt lat="45.844176253303885" lon="9.186765281483531">
        <ele>1081.620361328125</ele>
        <time>2007-11-11T12:09:13Z</time>
      </trkpt>
      <trkpt lat="45.844119088724256" lon="9.186377450823784">
        <ele>1080.178466796875</ele>
        <time>2007-11-11T12:09:20Z</time>
      </trkpt>
      <trkpt lat="45.844044238328934" lon="9.186082324013114">
        <ele>1076.333251953125</ele>
        <time>2007-11-11T12:09:27Z</time>
      </trkpt>
      <trkpt lat="45.844042897224426" lon="9.185758447274566">
        <ele>1072.96875</ele>
        <time>2007-11-11T12:09:33Z</time>
      </trkpt>
      <trkpt lat="45.843960335478187" lon="9.185416465625167">
        <ele>1071.526611328125</ele>
        <time>2007-11-11T12:09:45Z</time>
      </trkpt>
      <trkpt lat="45.843743579462171" lon="9.185333233326674">
        <ele>1065.7587890625</ele>
        <time>2007-11-11T12:10:09Z</time>
      </trkpt>
      <trkpt lat="45.843538390472531" lon="9.185271793976426">
        <ele>1064.79736328125</ele>
        <time>2007-11-11T12:10:18Z</time>
      </trkpt>
      <trkpt lat="45.843395898118615" lon="9.185042632743716">
        <ele>1061.91357421875</ele>
        <time>2007-11-11T12:10:27Z</time>
      </trkpt>
      <trkpt lat="45.843276120722294" lon="9.184792097657919">
        <ele>1057.10693359375</ele>
        <time>2007-11-11T12:10:35Z</time>
      </trkpt>
      <trkpt lat="45.843166569247842" lon="9.184508789330721">
        <ele>1055.184326171875</ele>
        <time>2007-11-11T12:10:43Z</time>
      </trkpt>
      <trkpt lat="45.84299792535603" lon="9.184298990294337">
        <ele>1051.819580078125</ele>
        <time>2007-11-11T12:10:51Z</time>
      </trkpt>
      <trkpt lat="45.842882171273232" lon="9.184025824069977">
        <ele>1046.0517578125</ele>
        <time>2007-11-11T12:10:57Z</time>
      </trkpt>
      <trkpt lat="45.842789132148027" lon="9.183725165203214">
        <ele>1047.012939453125</ele>
        <time>2007-11-11T12:11:02Z</time>
      </trkpt>
      <trkpt lat="45.842643957585096" lon="9.183505978435278">
        <ele>1048.454833984375</ele>
        <time>2007-11-11T12:11:10Z</time>
      </trkpt>
      <trkpt lat="45.842536920681596" lon="9.183210097253323">
        <ele>1049.89697265625</ele>
        <time>2007-11-11T12:11:20Z</time>
      </trkpt>
      <trkpt lat="45.8424779959023" lon="9.182946821674705">
        <ele>1051.819580078125</ele>
        <time>2007-11-11T12:11:30Z</time>
      </trkpt>
      <trkpt lat="45.842372886836529" lon="9.182661920785904">
        <ele>1054.22314453125</ele>
        <time>2007-11-11T12:12:01Z</time>
      </trkpt>
      <trkpt lat="45.842243889346719" lon="9.182451870292425">
        <ele>1057.587646484375</ele>
        <time>2007-11-11T12:12:18Z</time>
      </trkpt>
      <trkpt lat="45.842016320675611" lon="9.182381797581911">
        <ele>1059.51025390625</ele>
        <time>2007-11-11T12:12:37Z</time>
      </trkpt>
      <trkpt lat="45.841803420335054" lon="9.182254476472735">
        <ele>1061.432861328125</ele>
        <time>2007-11-11T12:12:52Z</time>
      </trkpt>
      <trkpt lat="45.841585323214531" lon="9.182120868936181">
        <ele>1065.278076171875</ele>
        <time>2007-11-11T12:13:14Z</time>
      </trkpt>
      <trkpt lat="45.841350629925728" lon="9.18208658695221">
        <ele>1066.2392578125</ele>
        <time>2007-11-11T12:13:52Z</time>
      </trkpt>
      <trkpt lat="45.841227499768138" lon="9.181821886450052">
        <ele>1066.2392578125</ele>
        <time>2007-11-11T12:14:03Z</time>
      </trkpt>
      <trkpt lat="45.84103949368" lon="9.181718872860074">
        <ele>1067.68115234375</ele>
        <time>2007-11-11T12:14:14Z</time>
      </trkpt>
      <trkpt lat="45.840926421806216" lon="9.181472361087799">
        <ele>1071.526611328125</ele>
        <time>2007-11-11T12:14:44Z</time>
      </trkpt>
      <trkpt lat="45.840882835909724" lon="9.181135157123208">
        <ele>1073.449462890625</ele>
        <time>2007-11-11T12:15:16Z</time>
      </trkpt>
      <trkpt lat="45.840773535892367" lon="9.180914461612701">
        <ele>1073.449462890625</ele>
        <time>2007-11-11T12:15:27Z</time>
      </trkpt>
      <trkpt lat="45.840650992467999" lon="9.18066518381238">
        <ele>1074.891357421875</ele>
        <time>2007-11-11T12:15:39Z</time>
      </trkpt>
      <trkpt lat="45.840672617778182" lon="9.180330326780677">
        <ele>1075.8525390625</ele>
        <time>2007-11-11T12:15:53Z</time>
      </trkpt>
      <trkpt lat="45.840740092098713" lon="9.180004857480526">
        <ele>1076.81396484375</ele>
        <time>2007-11-11T12:16:04Z</time>
      </trkpt>
      <trkpt lat="45.840689046308398" lon="9.17971576564014">
        <ele>1078.255859375</ele>
        <time>2007-11-11T12:16:14Z</time>
      </trkpt>
      <trkpt lat="45.840581841766834" lon="9.179487945511937">
        <ele>1080.178466796875</ele>
        <time>2007-11-11T12:16:26Z</time>
      </trkpt>
      <trkpt lat="45.84041646681726" lon="9.179332880303264">
        <ele>1080.178466796875</ele>
        <time>2007-11-11T12:16:37Z</time>
      </trkpt>
      <trkpt lat="45.840389560908079" lon="9.179071867838502">
        <ele>1080.6591796875</ele>
        <time>2007-11-11T12:16:51Z</time>
      </trkpt>
      <trkpt lat="45.840378999710083" lon="9.178742375224829">
        <ele>1080.178466796875</ele>
        <time>2007-11-11T12:16:59Z</time>
      </trkpt>
      <trkpt lat="45.840406827628613" lon="9.178431825712323">
        <ele>1081.139892578125</ele>
        <time>2007-11-11T12:17:09Z</time>
      </trkpt>
      <trkpt lat="45.840513864532113" lon="9.178084395825863">
        <ele>1083.062255859375</ele>
        <time>2007-11-11T12:17:25Z</time>
      </trkpt>
      <trkpt lat="45.840568849816918" lon="9.177781473845244">
        <ele>1082.10107421875</ele>
        <time>2007-11-11T12:17:33Z</time>
      </trkpt>
      <trkpt lat="45.840803543105721" lon="9.177531274035573">
        <ele>1080.178466796875</ele>
        <time>2007-11-11T12:17:41Z</time>
      </trkpt>
      <trkpt lat="45.841033961623907" lon="9.177377382293344">
        <ele>1083.062255859375</ele>
        <time>2007-11-11T12:17:50Z</time>
      </trkpt>
      <trkpt lat="45.841284999623895" lon="9.177299765869975">
        <ele>1084.9853515625</ele>
        <time>2007-11-11T12:18:11Z</time>
      </trkpt>
      <trkpt lat="45.841417433694005" lon="9.177040178328753">
        <ele>1086.90771484375</ele>
        <time>2007-11-11T12:18:42Z</time>
      </trkpt>
      <trkpt lat="45.841434868052602" lon="9.176709596067667">
        <ele>1086.90771484375</ele>
        <time>2007-11-11T12:19:02Z</time>
      </trkpt>
      <trkpt lat="45.841369656845927" lon="9.176448583602905">
        <ele>1088.349853515625</ele>
        <time>2007-11-11T12:19:14Z</time>
      </trkpt>
      <trkpt lat="45.841301763430238" lon="9.176176255568862">
        <ele>1091.233642578125</ele>
        <time>2007-11-11T12:19:28Z</time>
      </trkpt>
      <trkpt lat="45.84111912176013" lon="9.176101237535477">
        <ele>1091.71435546875</ele>
        <time>2007-11-11T12:20:22Z</time>
      </trkpt>
      <trkpt lat="45.840942431241274" lon="9.176013395190239">
        <ele>1091.71435546875</ele>
        <time>2007-11-11T12:20:32Z</time>
      </trkpt>
      <trkpt lat="45.840771272778511" lon="9.175895377993584">
        <ele>1091.233642578125</ele>
        <time>2007-11-11T12:20:41Z</time>
      </trkpt>
      <trkpt lat="45.840606819838285" lon="9.175734529271722">
        <ele>1091.233642578125</ele>
        <time>2007-11-11T12:20:48Z</time>
      </trkpt>
      <trkpt lat="45.840466255322099" lon="9.175534956157208">
        <ele>1093.636962890625</ele>
        <time>2007-11-11T12:20:58Z</time>
      </trkpt>
      <trkpt lat="45.840347064658999" lon="9.175313841551542">
        <ele>1096.040283203125</ele>
        <time>2007-11-11T12:21:10Z</time>
      </trkpt>
      <trkpt lat="45.8402019739151" lon="9.17516028508544">
        <ele>1097.962890625</ele>
        <time>2007-11-11T12:21:23Z</time>
      </trkpt>
      <trkpt lat="45.84003534168005" lon="9.174985941499472">
        <ele>1099.40478515625</ele>
        <time>2007-11-11T12:21:37Z</time>
      </trkpt>
      <trkpt lat="45.839906595647335" lon="9.174757283180952">
        <ele>1098.924072265625</ele>
        <time>2007-11-11T12:21:48Z</time>
      </trkpt>
      <trkpt lat="45.839812718331814" lon="9.174483446404338">
        <ele>1098.924072265625</ele>
        <time>2007-11-11T12:21:57Z</time>
      </trkpt>
      <trkpt lat="45.839669639244676" lon="9.174292841926217">
        <ele>1101.32763671875</ele>
        <time>2007-11-11T12:22:07Z</time>
      </trkpt>
      <trkpt lat="45.839512562379241" lon="9.174117157235742">
        <ele>1103.73095703125</ele>
        <time>2007-11-11T12:22:21Z</time>
      </trkpt>
      <trkpt lat="45.839444836601615" lon="9.173901993781328">
        <ele>1104.211669921875</ele>
        <time>2007-11-11T12:22:36Z</time>
      </trkpt>
      <trkpt lat="45.839327741414309" lon="9.173673251643777">
        <ele>1103.250244140625</ele>
        <time>2007-11-11T12:22:46Z</time>
      </trkpt>
      <trkpt lat="45.839473837986588" lon="9.17337535880506">
        <ele>1105.1728515625</ele>
        <time>2007-11-11T12:23:05Z</time>
      </trkpt>
      <trkpt lat="45.839598728343844" lon="9.173062378540635">
        <ele>1107.095458984375</ele>
        <time>2007-11-11T12:23:23Z</time>
      </trkpt>
      <trkpt lat="45.839763851836324" lon="9.172821985557675">
        <ele>1109.01806640625</ele>
        <time>2007-11-11T12:23:40Z</time>
      </trkpt>
      <trkpt lat="45.839749183505774" lon="9.172516465187073">
        <ele>1111.902099609375</ele>
        <time>2007-11-11T12:24:29Z</time>
      </trkpt>
      <trkpt lat="45.839642146602273" lon="9.17227397672832">
        <ele>1112.382568359375</ele>
        <time>2007-11-11T12:24:40Z</time>
      </trkpt>
      <trkpt lat="45.839552376419306" lon="9.172037439420819">
        <ele>1112.86328125</ele>
        <time>2007-11-11T12:24:48Z</time>
      </trkpt>
      <trkpt lat="45.839461768046021" lon="9.17175798676908">
        <ele>1112.86328125</ele>
        <time>2007-11-11T12:24:59Z</time>
      </trkpt>
      <trkpt lat="45.83947635255754" lon="9.17151658795774">
        <ele>1113.343994140625</ele>
        <time>2007-11-11T12:25:10Z</time>
      </trkpt>
      <trkpt lat="45.839674081653357" lon="9.171190531924367">
        <ele>1115.747314453125</ele>
        <time>2007-11-11T12:25:29Z</time>
      </trkpt>
      <trkpt lat="45.839701239019632" lon="9.170909570530057">
        <ele>1115.747314453125</ele>
        <time>2007-11-11T12:25:43Z</time>
      </trkpt>
      <trkpt lat="45.839621778577566" lon="9.170647133141756">
        <ele>1115.747314453125</ele>
        <time>2007-11-11T12:25:55Z</time>
      </trkpt>
      <trkpt lat="45.83953645080328" lon="9.170381762087345">
        <ele>1116.22802734375</ele>
        <time>2007-11-11T12:26:06Z</time>
      </trkpt>
      <trkpt lat="45.83948565647006" lon="9.17006341740489">
        <ele>1118.150634765625</ele>
        <time>2007-11-11T12:26:34Z</time>
      </trkpt>
      <trkpt lat="45.839481046423316" lon="9.169787066057324">
        <ele>1122.957275390625</ele>
        <time>2007-11-11T12:27:16Z</time>
      </trkpt>
      <trkpt lat="45.839645750820637" lon="9.169503673911095">
        <ele>1124.8798828125</ele>
        <time>2007-11-11T12:27:47Z</time>
      </trkpt>
      <trkpt lat="45.839846916496754" lon="9.169327234849334">
        <ele>1126.32177734375</ele>
        <time>2007-11-11T12:28:02Z</time>
      </trkpt>
      <trkpt lat="45.839942637830973" lon="9.169061528518796">
        <ele>1125.841064453125</ele>
        <time>2007-11-11T12:28:16Z</time>
      </trkpt>
      <trkpt lat="45.839881366118789" lon="9.168733293190599">
        <ele>1123.91845703125</ele>
        <time>2007-11-11T12:28:23Z</time>
      </trkpt>
      <trkpt lat="45.839863596484065" lon="9.168443866074085">
        <ele>1121.995849609375</ele>
        <time>2007-11-11T12:28:32Z</time>
      </trkpt>
      <trkpt lat="45.840027378872037" lon="9.168113367632031">
        <ele>1121.995849609375</ele>
        <time>2007-11-11T12:28:42Z</time>
      </trkpt>
      <trkpt lat="45.840246230363846" lon="9.167799968272448">
        <ele>1123.43798828125</ele>
        <time>2007-11-11T12:28:56Z</time>
      </trkpt>
      <trkpt lat="45.840479582548141" lon="9.167563430964947">
        <ele>1126.32177734375</ele>
        <time>2007-11-11T12:29:10Z</time>
      </trkpt>
      <trkpt lat="45.840422166511416" lon="9.167341394349933">
        <ele>1127.283203125</ele>
        <time>2007-11-11T12:29:22Z</time>
      </trkpt>
      <trkpt lat="45.840290738269687" lon="9.16711944155395">
        <ele>1124.399169921875</ele>
        <time>2007-11-11T12:29:30Z</time>
      </trkpt>
      <trkpt lat="45.840161070227623" lon="9.166922634467483">
        <ele>1123.91845703125</ele>
        <time>2007-11-11T12:29:34Z</time>
      </trkpt>
      <trkpt lat="45.840043053030968" lon="9.166618958115578">
        <ele>1124.8798828125</ele>
        <time>2007-11-11T12:29:50Z</time>
      </trkpt>
      <trkpt lat="45.840005753561854" lon="9.166317628696561">
        <ele>1125.3603515625</ele>
        <time>2007-11-11T12:29:58Z</time>
      </trkpt>
      <trkpt lat="45.84002654068172" lon="9.166013617068529">
        <ele>1125.841064453125</ele>
        <time>2007-11-11T12:30:05Z</time>
      </trkpt>
      <trkpt lat="45.840059146285057" lon="9.165700552985072">
        <ele>1127.283203125</ele>
        <time>2007-11-11T12:30:20Z</time>
      </trkpt>
      <trkpt lat="45.840132236480713" lon="9.165398385375738">
        <ele>1127.283203125</ele>
        <time>2007-11-11T12:30:33Z</time>
      </trkpt>
      <trkpt lat="45.840208679437637" lon="9.165131924673915">
        <ele>1128.244384765625</ele>
        <time>2007-11-11T12:30:44Z</time>
      </trkpt>
      <trkpt lat="45.84030993282795" lon="9.164865296334028">
        <ele>1129.20556640625</ele>
        <time>2007-11-11T12:30:58Z</time>
      </trkpt>
      <trkpt lat="45.840405821800232" lon="9.164603278040886">
        <ele>1133.051025390625</ele>
        <time>2007-11-11T12:31:13Z</time>
      </trkpt>
      <trkpt lat="45.840270286425948" lon="9.164417199790478">
        <ele>1132.08984375</ele>
        <time>2007-11-11T12:31:26Z</time>
      </trkpt>
      <trkpt lat="45.83998748101294" lon="9.164137663319707">
        <ele>1131.12841796875</ele>
        <time>2007-11-11T12:31:37Z</time>
      </trkpt>
      <trkpt lat="45.839885892346501" lon="9.163857037201524">
        <ele>1132.08984375</ele>
        <time>2007-11-11T12:31:44Z</time>
      </trkpt>
      <trkpt lat="45.839838618412614" lon="9.163573896512389">
        <ele>1132.08984375</ele>
        <time>2007-11-11T12:31:51Z</time>
      </trkpt>
      <trkpt lat="45.839803162962198" lon="9.163278769701719">
        <ele>1132.570556640625</ele>
        <time>2007-11-11T12:32:21Z</time>
      </trkpt>
      <trkpt lat="45.839739963412285" lon="9.162995545193553">
        <ele>1133.051025390625</ele>
        <time>2007-11-11T12:32:29Z</time>
      </trkpt>
      <trkpt lat="45.839731665328145" lon="9.16270419023931">
        <ele>1133.051025390625</ele>
        <time>2007-11-11T12:32:36Z</time>
      </trkpt>
      <trkpt lat="45.839716494083405" lon="9.162407387048006">
        <ele>1133.051025390625</ele>
        <time>2007-11-11T12:32:55Z</time>
      </trkpt>
      <trkpt lat="45.839603589847684" lon="9.162183590233326">
        <ele>1133.051025390625</ele>
        <time>2007-11-11T12:33:05Z</time>
      </trkpt>
      <trkpt lat="45.83945388905704" lon="9.161990471184254">
        <ele>1133.051025390625</ele>
        <time>2007-11-11T12:33:12Z</time>
      </trkpt>
      <trkpt lat="45.839312737807631" lon="9.16174546815455">
        <ele>1132.570556640625</ele>
        <time>2007-11-11T12:33:19Z</time>
      </trkpt>
      <trkpt lat="45.839219279587269" lon="9.161481186747551">
        <ele>1131.60888671875</ele>
        <time>2007-11-11T12:33:24Z</time>
      </trkpt>
      <trkpt lat="45.839143842458725" lon="9.161251271143556">
        <ele>1131.12841796875</ele>
        <time>2007-11-11T12:33:53Z</time>
      </trkpt>
      <trkpt lat="45.839113751426339" lon="9.160951869562268">
        <ele>1127.763671875</ele>
        <time>2007-11-11T12:34:02Z</time>
      </trkpt>
      <trkpt lat="45.83905566483736" lon="9.160678954795003">
        <ele>1127.763671875</ele>
        <time>2007-11-11T12:34:08Z</time>
      </trkpt>
      <trkpt lat="45.839039823040366" lon="9.160409644246101">
        <ele>1126.802490234375</ele>
        <time>2007-11-11T12:34:14Z</time>
      </trkpt>
      <trkpt lat="45.83899506367743" lon="9.160134382545948">
        <ele>1126.802490234375</ele>
        <time>2007-11-11T12:34:21Z</time>
      </trkpt>
      <trkpt lat="45.838869921863079" lon="9.159907316789031">
        <ele>1122.957275390625</ele>
        <time>2007-11-11T12:35:14Z</time>
      </trkpt>
      <trkpt lat="45.838750060647726" lon="9.159674635156989">
        <ele>1121.03466796875</ele>
        <time>2007-11-11T12:35:24Z</time>
      </trkpt>
      <trkpt lat="45.838671186938882" lon="9.159393087029457">
        <ele>1120.553955078125</ele>
        <time>2007-11-11T12:35:30Z</time>
      </trkpt>
      <trkpt lat="45.838592480868101" lon="9.159132996574044">
        <ele>1120.0732421875</ele>
        <time>2007-11-11T12:35:36Z</time>
      </trkpt>
      <trkpt lat="45.838537327945232" lon="9.158864943310618">
        <ele>1119.5927734375</ele>
        <time>2007-11-11T12:35:43Z</time>
      </trkpt>
      <trkpt lat="45.838521653786302" lon="9.158582137897611">
        <ele>1119.5927734375</ele>
        <time>2007-11-11T12:35:52Z</time>
      </trkpt>
      <trkpt lat="45.838445294648409" lon="9.158350797370076">
        <ele>1119.112060546875</ele>
        <time>2007-11-11T12:36:01Z</time>
      </trkpt>
      <trkpt lat="45.838264748454094" lon="9.15817896835506">
        <ele>1118.63134765625</ele>
        <time>2007-11-11T12:38:58Z</time>
      </trkpt>
      <trkpt lat="45.838074646890163" lon="9.158182153478265">
        <ele>1118.150634765625</ele>
        <time>2007-11-11T12:39:05Z</time>
      </trkpt>
      <trkpt lat="45.837887730449438" lon="9.158189445734024">
        <ele>1116.22802734375</ele>
        <time>2007-11-11T12:39:10Z</time>
      </trkpt>
      <trkpt lat="45.837668376043439" lon="9.158173268660903">
        <ele>1114.30517578125</ele>
        <time>2007-11-11T12:39:15Z</time>
      </trkpt>
      <trkpt lat="45.837466539815068" lon="9.158126665279269">
        <ele>1112.86328125</ele>
        <time>2007-11-11T12:39:20Z</time>
      </trkpt>
      <trkpt lat="45.837331172078848" lon="9.157957769930363">
        <ele>1112.382568359375</ele>
        <time>2007-11-11T12:39:25Z</time>
      </trkpt>
      <trkpt lat="45.83722379989922" lon="9.157725675031543">
        <ele>1111.42138671875</ele>
        <time>2007-11-11T12:39:31Z</time>
      </trkpt>
      <trkpt lat="45.837228242307901" lon="9.157383441925049">
        <ele>1106.134033203125</ele>
        <time>2007-11-11T12:39:37Z</time>
      </trkpt>
      <trkpt lat="45.837248526513577" lon="9.157050345093012">
        <ele>1104.211669921875</ele>
        <time>2007-11-11T12:39:41Z</time>
      </trkpt>
      <trkpt lat="45.837267469614744" lon="9.15673753246665">
        <ele>1103.250244140625</ele>
        <time>2007-11-11T12:39:45Z</time>
      </trkpt>
      <trkpt lat="45.837278617545962" lon="9.156443830579519">
        <ele>1103.250244140625</ele>
        <time>2007-11-11T12:39:49Z</time>
      </trkpt>
      <trkpt lat="45.837277779355645" lon="9.156156331300736">
        <ele>1102.288818359375</ele>
        <time>2007-11-11T12:39:55Z</time>
      </trkpt>
      <trkpt lat="45.837275180965662" lon="9.155874531716108">
        <ele>1101.808349609375</ele>
        <time>2007-11-11T12:40:01Z</time>
      </trkpt>
      <trkpt lat="45.837252298370004" lon="9.155592899769545">
        <ele>1101.32763671875</ele>
        <time>2007-11-11T12:40:06Z</time>
      </trkpt>
      <trkpt lat="45.837232684716582" lon="9.155314955860376">
        <ele>1100.846923828125</ele>
        <time>2007-11-11T12:40:11Z</time>
      </trkpt>
      <trkpt lat="45.837191697210073" lon="9.155031396076083">
        <ele>1100.846923828125</ele>
        <time>2007-11-11T12:40:17Z</time>
      </trkpt>
      <trkpt lat="45.837130341678858" lon="9.154771137982607">
        <ele>1099.40478515625</ele>
        <time>2007-11-11T12:40:23Z</time>
      </trkpt>
      <trkpt lat="45.837084827944636" lon="9.154507191851735">
        <ele>1098.924072265625</ele>
        <time>2007-11-11T12:40:30Z</time>
      </trkpt>
      <trkpt lat="45.837020874023438" lon="9.154244670644403">
        <ele>1095.5595703125</ele>
        <time>2007-11-11T12:40:39Z</time>
      </trkpt>
      <trkpt lat="45.836907299235463" lon="9.154027663171291">
        <ele>1091.233642578125</ele>
        <time>2007-11-11T12:40:57Z</time>
      </trkpt>
      <trkpt lat="45.836748378351331" lon="9.153833035379648">
        <ele>1084.02392578125</ele>
        <time>2007-11-11T12:41:22Z</time>
      </trkpt>
      <trkpt lat="45.836549727246165" lon="9.15366698987782">
        <ele>1080.178466796875</ele>
        <time>2007-11-11T12:41:31Z</time>
      </trkpt>
      <trkpt lat="45.836322661489248" lon="9.153638323768973">
        <ele>1072.00732421875</ele>
        <time>2007-11-11T12:41:49Z</time>
      </trkpt>
      <trkpt lat="45.836116718128324" lon="9.153670761734247">
        <ele>1066.2392578125</ele>
        <time>2007-11-11T12:42:50Z</time>
      </trkpt>
      <trkpt lat="45.835901387035847" lon="9.153706720098853">
        <ele>1059.99072265625</ele>
        <time>2007-11-11T12:43:02Z</time>
      </trkpt>
      <trkpt lat="45.835683373734355" lon="9.153734380379319">
        <ele>1056.626220703125</ele>
        <time>2007-11-11T12:43:12Z</time>
      </trkpt>
      <trkpt lat="45.835483968257904" lon="9.153692051768303">
        <ele>1052.781005859375</ele>
        <time>2007-11-11T12:43:21Z</time>
      </trkpt>
      <trkpt lat="45.835381038486958" lon="9.153393656015396">
        <ele>1045.09033203125</ele>
        <time>2007-11-11T12:43:48Z</time>
      </trkpt>
      <trkpt lat="45.835316330194473" lon="9.153086878359318">
        <ele>1039.322509765625</ele>
        <time>2007-11-11T12:44:05Z</time>
      </trkpt>
      <trkpt lat="45.835365951061249" lon="9.152722684666514">
        <ele>1036.438720703125</ele>
        <time>2007-11-11T12:44:17Z</time>
      </trkpt>
      <trkpt lat="45.83535966463387" lon="9.152448261156678">
        <ele>1035.957763671875</ele>
        <time>2007-11-11T12:44:22Z</time>
      </trkpt>
      <trkpt lat="45.835167467594147" lon="9.152492433786392">
        <ele>1034.515869140625</ele>
        <time>2007-11-11T12:44:28Z</time>
      </trkpt>
      <trkpt lat="45.834964793175459" lon="9.1524937748909">
        <ele>1034.03515625</ele>
        <time>2007-11-11T12:44:33Z</time>
      </trkpt>
      <trkpt lat="45.83475474268198" lon="9.152450021356344">
        <ele>1034.515869140625</ele>
        <time>2007-11-11T12:44:39Z</time>
      </trkpt>
      <trkpt lat="45.834555923938751" lon="9.15237944573164">
        <ele>1034.515869140625</ele>
        <time>2007-11-11T12:44:45Z</time>
      </trkpt>
      <trkpt lat="45.834356853738427" lon="9.15236234664917">
        <ele>1035.47705078125</ele>
        <time>2007-11-11T12:44:52Z</time>
      </trkpt>
      <trkpt lat="45.834156526252627" lon="9.152373829856515">
        <ele>1035.957763671875</ele>
        <time>2007-11-11T12:45:00Z</time>
      </trkpt>
      <trkpt lat="45.833971537649632" lon="9.152312641963363">
        <ele>1036.438720703125</ele>
        <time>2007-11-11T12:45:07Z</time>
      </trkpt>
      <trkpt lat="45.833788141608238" lon="9.152207281440496">
        <ele>1035.957763671875</ele>
        <time>2007-11-11T12:45:14Z</time>
      </trkpt>
      <trkpt lat="45.833641961216927" lon="9.152049785479903">
        <ele>1034.99658203125</ele>
        <time>2007-11-11T12:45:23Z</time>
      </trkpt>
      <trkpt lat="45.833519836887717" lon="9.151833951473236">
        <ele>1031.1513671875</ele>
        <time>2007-11-11T12:45:43Z</time>
      </trkpt>
      <trkpt lat="45.833380864933133" lon="9.151632785797119">
        <ele>1029.228515625</ele>
        <time>2007-11-11T12:45:49Z</time>
      </trkpt>
      <trkpt lat="45.833219429478049" lon="9.151458190754056">
        <ele>1028.267333984375</ele>
        <time>2007-11-11T12:45:55Z</time>
      </trkpt>
      <trkpt lat="45.833105435594916" lon="9.151240345090628">
        <ele>1028.267333984375</ele>
        <time>2007-11-11T12:46:01Z</time>
      </trkpt>
      <trkpt lat="45.832996387034655" lon="9.150999030098319">
        <ele>1024.90283203125</ele>
        <time>2007-11-11T12:46:14Z</time>
      </trkpt>
      <trkpt lat="45.832890858873725" lon="9.15075427852571">
        <ele>1023.4609375</ele>
        <time>2007-11-11T12:46:22Z</time>
      </trkpt>
      <trkpt lat="45.832820953801274" lon="9.150486141443253">
        <ele>1020.576904296875</ele>
        <time>2007-11-11T12:46:33Z</time>
      </trkpt>
      <trkpt lat="45.83270251750946" lon="9.150252034887672">
        <ele>1019.134765625</ele>
        <time>2007-11-11T12:46:39Z</time>
      </trkpt>
      <trkpt lat="45.832606377080083" lon="9.149992950260639">
        <ele>1018.654052734375</ele>
        <time>2007-11-11T12:46:46Z</time>
      </trkpt>
      <trkpt lat="45.832484252750874" lon="9.149697069078684">
        <ele>1013.366943359375</ele>
        <time>2007-11-11T12:47:03Z</time>
      </trkpt>
      <trkpt lat="45.832393895834684" lon="9.149377467110753">
        <ele>1011.925048828125</ele>
        <time>2007-11-11T12:47:20Z</time>
      </trkpt>
      <trkpt lat="45.832208655774593" lon="9.149362044408917">
        <ele>1011.4443359375</ele>
        <time>2007-11-11T12:47:28Z</time>
      </trkpt>
      <trkpt lat="45.832083597779274" lon="9.149580392986536">
        <ele>1008.560302734375</ele>
        <time>2007-11-11T12:47:36Z</time>
      </trkpt>
      <trkpt lat="45.831968178972602" lon="9.149832436814904">
        <ele>1005.676513671875</ele>
        <time>2007-11-11T12:47:42Z</time>
      </trkpt>
      <trkpt lat="45.831839935854077" lon="9.15009998716414">
        <ele>1004.234619140625</ele>
        <time>2007-11-11T12:47:48Z</time>
      </trkpt>
      <trkpt lat="45.831743041053414" lon="9.150374578312039">
        <ele>1003.753662109375</ele>
        <time>2007-11-11T12:47:53Z</time>
      </trkpt>
      <trkpt lat="45.83166123367846" lon="9.150631651282311">
        <ele>1003.753662109375</ele>
        <time>2007-11-11T12:47:57Z</time>
      </trkpt>
      <trkpt lat="45.83158303052187" lon="9.150913199409843">
        <ele>1003.27294921875</ele>
        <time>2007-11-11T12:48:02Z</time>
      </trkpt>
      <trkpt lat="45.831467946991324" lon="9.151133392006159">
        <ele>1004.715087890625</ele>
        <time>2007-11-11T12:48:09Z</time>
      </trkpt>
      <trkpt lat="45.831347582861781" lon="9.151364397257567">
        <ele>1005.19580078125</ele>
        <time>2007-11-11T12:48:17Z</time>
      </trkpt>
      <trkpt lat="45.831229984760284" lon="9.15160303004086">
        <ele>1004.234619140625</ele>
        <time>2007-11-11T12:48:26Z</time>
      </trkpt>
      <trkpt lat="45.83111297339201" lon="9.151850631460547">
        <ele>1004.715087890625</ele>
        <time>2007-11-11T12:48:32Z</time>
      </trkpt>
      <trkpt lat="45.830959668383002" lon="9.152070069685578">
        <ele>1005.19580078125</ele>
        <time>2007-11-11T12:48:39Z</time>
      </trkpt>
      <trkpt lat="45.830791359767318" lon="9.15216444991529">
        <ele>1004.715087890625</ele>
        <time>2007-11-11T12:48:45Z</time>
      </trkpt>
      <trkpt lat="45.830575358122587" lon="9.152124719694257">
        <ele>1004.234619140625</ele>
        <time>2007-11-11T12:49:59Z</time>
      </trkpt>
      <trkpt lat="45.830390620976686" lon="9.152077781036496">
        <ele>1003.27294921875</ele>
        <time>2007-11-11T12:50:05Z</time>
      </trkpt>
      <trkpt lat="45.830212254077196" lon="9.152192361652851">
        <ele>1000.86962890625</ele>
        <time>2007-11-11T12:50:12Z</time>
      </trkpt>
      <trkpt lat="45.830125249922276" lon="9.15245178155601">
        <ele>996.5439453125</ele>
        <time>2007-11-11T12:50:22Z</time>
      </trkpt>
      <trkpt lat="45.829985020682216" lon="9.152647834271193">
        <ele>992.218017578125</ele>
        <time>2007-11-11T12:50:33Z</time>
      </trkpt>
      <trkpt lat="45.829771533608437" lon="9.152685888111591">
        <ele>985.008056640625</ele>
        <time>2007-11-11T12:51:10Z</time>
      </trkpt>
      <trkpt lat="45.829566596075892" lon="9.152600560337305">
        <ele>980.68212890625</ele>
        <time>2007-11-11T12:51:20Z</time>
      </trkpt>
      <trkpt lat="45.829375321045518" lon="9.152517579495907">
        <ele>978.27880859375</ele>
        <time>2007-11-11T12:51:27Z</time>
      </trkpt>
      <trkpt lat="45.829155128449202" lon="9.152445578947663">
        <ele>976.356201171875</ele>
        <time>2007-11-11T12:51:34Z</time>
      </trkpt>
      <trkpt lat="45.828919429332018" lon="9.152402747422457">
        <ele>973.472412109375</ele>
        <time>2007-11-11T12:51:53Z</time>
      </trkpt>
      <trkpt lat="45.828752880915999" lon="9.152185572311282">
        <ele>967.2236328125</ele>
        <time>2007-11-11T12:52:25Z</time>
      </trkpt>
      <trkpt lat="45.828731590881944" lon="9.151890277862549">
        <ele>962.897705078125</ele>
        <time>2007-11-11T12:52:35Z</time>
      </trkpt>
      <trkpt lat="45.82865129224956" lon="9.151628678664565">
        <ele>959.052490234375</ele>
        <time>2007-11-11T12:52:42Z</time>
      </trkpt>
      <trkpt lat="45.828530844300985" lon="9.151381747797132">
        <ele>956.649169921875</ele>
        <time>2007-11-11T12:52:48Z</time>
      </trkpt>
      <trkpt lat="45.828388184309006" lon="9.151172619313002">
        <ele>953.76513671875</ele>
        <time>2007-11-11T12:52:53Z</time>
      </trkpt>
      <trkpt lat="45.828213589265943" lon="9.150960221886635">
        <ele>952.322998046875</ele>
        <time>2007-11-11T12:52:58Z</time>
      </trkpt>
      <trkpt lat="45.828019883483648" lon="9.150841534137726">
        <ele>950.881103515625</ele>
        <time>2007-11-11T12:53:03Z</time>
      </trkpt>
      <trkpt lat="45.827836487442255" lon="9.150721337646246">
        <ele>949.919921875</ele>
        <time>2007-11-11T12:53:08Z</time>
      </trkpt>
      <trkpt lat="45.827623922377825" lon="9.15061991661787">
        <ele>948.95849609375</ele>
        <time>2007-11-11T12:53:13Z</time>
      </trkpt>
      <trkpt lat="45.827403897419572" lon="9.150533666834235">
        <ele>948.95849609375</ele>
        <time>2007-11-11T12:53:18Z</time>
      </trkpt>
      <trkpt lat="45.827201139181852" lon="9.150451021268964">
        <ele>947.997314453125</ele>
        <time>2007-11-11T12:53:23Z</time>
      </trkpt>
      <trkpt lat="45.827007852494717" lon="9.150414727628231">
        <ele>947.035888671875</ele>
        <time>2007-11-11T12:53:28Z</time>
      </trkpt>
      <trkpt lat="45.826796125620604" lon="9.150388659909368">
        <ele>945.11328125</ele>
        <time>2007-11-11T12:53:34Z</time>
      </trkpt>
      <trkpt lat="45.82658875733614" lon="9.150367621332407">
        <ele>943.190673828125</ele>
        <time>2007-11-11T12:53:39Z</time>
      </trkpt>
      <trkpt lat="45.826364541426301" lon="9.150393269956112">
        <ele>940.306884765625</ele>
        <time>2007-11-11T12:53:44Z</time>
      </trkpt>
      <trkpt lat="45.82612557336688" lon="9.150387989357114">
        <ele>938.384033203125</ele>
        <time>2007-11-11T12:53:49Z</time>
      </trkpt>
      <trkpt lat="45.826006382703781" lon="9.150193780660629">
        <ele>937.9033203125</ele>
        <time>2007-11-11T12:53:58Z</time>
      </trkpt>
      <trkpt lat="45.826023649424314" lon="9.149891529232264">
        <ele>937.9033203125</ele>
        <time>2007-11-11T12:54:05Z</time>
      </trkpt>
      <trkpt lat="45.826086765155196" lon="9.149691620841622">
        <ele>938.86474609375</ele>
        <time>2007-11-11T12:54:24Z</time>
      </trkpt>
      <trkpt lat="45.826193718239665" lon="9.149461789056659">
        <ele>940.787353515625</ele>
        <time>2007-11-11T12:54:34Z</time>
      </trkpt>
      <trkpt lat="45.826324056833982" lon="9.14922583848238">
        <ele>941.26806640625</ele>
        <time>2007-11-11T12:54:40Z</time>
      </trkpt>
      <trkpt lat="45.826476188376546" lon="9.149028025567532">
        <ele>940.787353515625</ele>
        <time>2007-11-11T12:54:46Z</time>
      </trkpt>
      <trkpt lat="45.826602838933468" lon="9.148748740553856">
        <ele>939.825927734375</ele>
        <time>2007-11-11T12:54:52Z</time>
      </trkpt>
      <trkpt lat="45.826582973822951" lon="9.148442298173904">
        <ele>937.9033203125</ele>
        <time>2007-11-11T12:54:57Z</time>
      </trkpt>
      <trkpt lat="45.826600659638643" lon="9.14817382581532">
        <ele>936.94189453125</ele>
        <time>2007-11-11T12:55:02Z</time>
      </trkpt>
      <trkpt lat="45.826656566932797" lon="9.147877525538206">
        <ele>935.980712890625</ele>
        <time>2007-11-11T12:55:08Z</time>
      </trkpt>
      <trkpt lat="45.826732339337468" lon="9.14759723469615">
        <ele>935.980712890625</ele>
        <time>2007-11-11T12:55:13Z</time>
      </trkpt>
      <trkpt lat="45.826877178624272" lon="9.147383579984307">
        <ele>935.980712890625</ele>
        <time>2007-11-11T12:55:18Z</time>
      </trkpt>
      <trkpt lat="45.82675589248538" lon="9.147179983556271">
        <ele>934.05810546875</ele>
        <time>2007-11-11T12:55:24Z</time>
      </trkpt>
      <trkpt lat="45.826633349061012" lon="9.146978398784995">
        <ele>931.17431640625</ele>
        <time>2007-11-11T12:55:28Z</time>
      </trkpt>
      <trkpt lat="45.826438972726464" lon="9.146800534799695">
        <ele>929.25146484375</ele>
        <time>2007-11-11T12:55:33Z</time>
      </trkpt>
      <trkpt lat="45.826236885040998" lon="9.146671034395695">
        <ele>927.3291015625</ele>
        <time>2007-11-11T12:55:37Z</time>
      </trkpt>
      <trkpt lat="45.826046196743846" lon="9.146484453231096">
        <ele>926.848388671875</ele>
        <time>2007-11-11T12:55:42Z</time>
      </trkpt>
      <trkpt lat="45.825916277244687" lon="9.14623886346817">
        <ele>925.886962890625</ele>
        <time>2007-11-11T12:55:47Z</time>
      </trkpt>
      <trkpt lat="45.825721733272076" lon="9.146174574270845">
        <ele>923.964111328125</ele>
        <time>2007-11-11T12:55:51Z</time>
      </trkpt>
      <trkpt lat="45.825506737455726" lon="9.146165773272514">
        <ele>922.522216796875</ele>
        <time>2007-11-11T12:55:56Z</time>
      </trkpt>
      <trkpt lat="45.825301129370928" lon="9.146238695830107">
        <ele>921.080322265625</ele>
        <time>2007-11-11T12:56:01Z</time>
      </trkpt>
      <trkpt lat="45.825122175738215" lon="9.146409267559648">
        <ele>918.677001953125</ele>
        <time>2007-11-11T12:56:06Z</time>
      </trkpt>
      <trkpt lat="45.824916232377291" lon="9.146500127390027">
        <ele>916.273681640625</ele>
        <time>2007-11-11T12:56:11Z</time>
      </trkpt>
      <trkpt lat="45.824711043387651" lon="9.146509347483516">
        <ele>914.35107421875</ele>
        <time>2007-11-11T12:56:15Z</time>
      </trkpt>
      <trkpt lat="45.82451113499701" lon="9.146497026085854">
        <ele>913.389892578125</ele>
        <time>2007-11-11T12:56:19Z</time>
      </trkpt>
      <trkpt lat="45.82428976893425" lon="9.146503061056137">
        <ele>911.947998046875</ele>
        <time>2007-11-11T12:56:23Z</time>
      </trkpt>
      <trkpt lat="45.824074940755963" lon="9.146466935053468">
        <ele>911.46728515625</ele>
        <time>2007-11-11T12:56:27Z</time>
      </trkpt>
      <trkpt lat="45.823858436197042" lon="9.146418739110231">
        <ele>911.46728515625</ele>
        <time>2007-11-11T12:56:32Z</time>
      </trkpt>
      <trkpt lat="45.823638159781694" lon="9.146459894254804">
        <ele>910.986572265625</ele>
        <time>2007-11-11T12:56:37Z</time>
      </trkpt>
      <trkpt lat="45.823414446786046" lon="9.146537259221077">
        <ele>910.505859375</ele>
        <time>2007-11-11T12:57:03Z</time>
      </trkpt>
      <trkpt lat="45.823225937783718" lon="9.146619820967317">
        <ele>908.102783203125</ele>
        <time>2007-11-11T12:57:09Z</time>
      </trkpt>
      <trkpt lat="45.823035920038819" lon="9.146674135699868">
        <ele>907.14111328125</ele>
        <time>2007-11-11T12:57:14Z</time>
      </trkpt>
      <trkpt lat="45.822851350530982" lon="9.146732557564974">
        <ele>905.69921875</ele>
        <time>2007-11-11T12:57:19Z</time>
      </trkpt>
      <trkpt lat="45.822684047743678" lon="9.146856022998691">
        <ele>903.776611328125</ele>
        <time>2007-11-11T12:57:24Z</time>
      </trkpt>
      <trkpt lat="45.822502076625824" lon="9.147050399333239">
        <ele>900.412109375</ele>
        <time>2007-11-11T12:57:29Z</time>
      </trkpt>
      <trkpt lat="45.822304598987103" lon="9.147110246121883">
        <ele>898.969970703125</ele>
        <time>2007-11-11T12:57:34Z</time>
      </trkpt>
      <trkpt lat="45.822076527401805" lon="9.147142935544252">
        <ele>898.4892578125</ele>
        <time>2007-11-11T12:57:39Z</time>
      </trkpt>
      <trkpt lat="45.821885336190462" lon="9.147063139826059">
        <ele>898.0087890625</ele>
        <time>2007-11-11T12:57:46Z</time>
      </trkpt>
      <trkpt lat="45.821913750842214" lon="9.146807072684169">
        <ele>893.682861328125</ele>
        <time>2007-11-11T12:57:54Z</time>
      </trkpt>
      <trkpt lat="45.822086585685611" lon="9.146629627794027">
        <ele>891.760009765625</ele>
        <time>2007-11-11T12:57:59Z</time>
      </trkpt>
      <trkpt lat="45.822242489084601" lon="9.146428126841784">
        <ele>889.356689453125</ele>
        <time>2007-11-11T12:58:04Z</time>
      </trkpt>
      <trkpt lat="45.822411635890603" lon="9.146223524585366">
        <ele>886.472900390625</ele>
        <time>2007-11-11T12:58:13Z</time>
      </trkpt>
      <trkpt lat="45.822576591745019" lon="9.146047588437796">
        <ele>881.185791015625</ele>
        <time>2007-11-11T12:58:21Z</time>
      </trkpt>
      <trkpt lat="45.82275009714067" lon="9.145854720845819">
        <ele>873.9755859375</ele>
        <time>2007-11-11T12:58:28Z</time>
      </trkpt>
      <trkpt lat="45.822936343029141" lon="9.14564416743815">
        <ele>871.091796875</ele>
        <time>2007-11-11T12:58:33Z</time>
      </trkpt>
      <trkpt lat="45.823076236993074" lon="9.145401427522302">
        <ele>868.6884765625</ele>
        <time>2007-11-11T12:58:37Z</time>
      </trkpt>
      <trkpt lat="45.823118146508932" lon="9.145116358995438">
        <ele>866.765869140625</ele>
        <time>2007-11-11T12:58:41Z</time>
      </trkpt>
      <trkpt lat="45.823117475956678" lon="9.144815364852548">
        <ele>865.323974609375</ele>
        <time>2007-11-11T12:58:46Z</time>
      </trkpt>
      <trkpt lat="45.823225686326623" lon="9.14454379118979">
        <ele>862.920654296875</ele>
        <time>2007-11-11T12:58:51Z</time>
      </trkpt>
      <trkpt lat="45.823258040472865" lon="9.144260482862592">
        <ele>860.998046875</ele>
        <time>2007-11-11T12:58:55Z</time>
      </trkpt>
      <trkpt lat="45.823190482333302" lon="9.143960494548082">
        <ele>859.0751953125</ele>
        <time>2007-11-11T12:58:59Z</time>
      </trkpt>
      <trkpt lat="45.823146058246493" lon="9.143670564517379">
        <ele>858.594482421875</ele>
        <time>2007-11-11T12:59:04Z</time>
      </trkpt>
      <trkpt lat="45.823239097371697" lon="9.143416676670313">
        <ele>855.22998046875</ele>
        <time>2007-11-11T12:59:10Z</time>
      </trkpt>
      <trkpt lat="45.823442190885544" lon="9.143279967829585">
        <ele>853.7880859375</ele>
        <time>2007-11-11T12:59:16Z</time>
      </trkpt>
      <trkpt lat="45.823654336854815" lon="9.143238561227918">
        <ele>852.345947265625</ele>
        <time>2007-11-11T12:59:20Z</time>
      </trkpt>
      <trkpt lat="45.823850557208061" lon="9.14319665171206">
        <ele>851.865478515625</ele>
        <time>2007-11-11T12:59:24Z</time>
      </trkpt>
      <trkpt lat="45.823996067047119" lon="9.142968161031604">
        <ele>849.94287109375</ele>
        <time>2007-11-11T12:59:30Z</time>
      </trkpt>
      <trkpt lat="45.824131853878498" lon="9.142623161897063">
        <ele>848.500732421875</ele>
        <time>2007-11-11T12:59:37Z</time>
      </trkpt>
      <trkpt lat="45.824358835816383" lon="9.142405819147825">
        <ele>847.53955078125</ele>
        <time>2007-11-11T12:59:42Z</time>
      </trkpt>
      <trkpt lat="45.824528150260448" lon="9.142113626003265">
        <ele>847.53955078125</ele>
        <time>2007-11-11T12:59:47Z</time>
      </trkpt>
      <trkpt lat="45.824414743110538" lon="9.141874490305781">
        <ele>845.13623046875</ele>
        <time>2007-11-11T12:59:52Z</time>
      </trkpt>
      <trkpt lat="45.824194718152285" lon="9.141747085377574">
        <ele>843.21337890625</ele>
        <time>2007-11-11T12:59:57Z</time>
      </trkpt>
      <trkpt lat="45.824035461992025" lon="9.141498226672411">
        <ele>842.73291015625</ele>
        <time>2007-11-11T13:00:02Z</time>
      </trkpt>
      <trkpt lat="45.823827255517244" lon="9.141414491459727">
        <ele>840.81005859375</ele>
        <time>2007-11-11T13:00:07Z</time>
      </trkpt>
      <trkpt lat="45.823638746514916" lon="9.141319943591952">
        <ele>840.81005859375</ele>
        <time>2007-11-11T13:00:11Z</time>
      </trkpt>
      <trkpt lat="45.823446549475193" lon="9.141212068498135">
        <ele>839.848876953125</ele>
        <time>2007-11-11T13:00:15Z</time>
      </trkpt>
      <trkpt lat="45.823263572528958" lon="9.141125399619341">
        <ele>838.8876953125</ele>
        <time>2007-11-11T13:00:19Z</time>
      </trkpt>
      <trkpt lat="45.823116637766361" lon="9.140948038548231">
        <ele>836.96484375</ele>
        <time>2007-11-11T13:00:23Z</time>
      </trkpt>
      <trkpt lat="45.82295143045485" lon="9.140799092128873">
        <ele>835.04248046875</ele>
        <time>2007-11-11T13:00:27Z</time>
      </trkpt>
      <trkpt lat="45.822706343606114" lon="9.14078475907445">
        <ele>834.0810546875</ele>
        <time>2007-11-11T13:00:32Z</time>
      </trkpt>
      <trkpt lat="45.822516493499279" lon="9.140723152086139">
        <ele>833.600341796875</ele>
        <time>2007-11-11T13:00:36Z</time>
      </trkpt>
      <trkpt lat="45.822291858494282" lon="9.140678057447076">
        <ele>832.158447265625</ele>
        <time>2007-11-11T13:00:41Z</time>
      </trkpt>
      <trkpt lat="45.822043670341372" lon="9.140650648623705">
        <ele>830.716552734375</ele>
        <time>2007-11-11T13:00:46Z</time>
      </trkpt>
      <trkpt lat="45.821812748908997" lon="9.140713093802333">
        <ele>829.755126953125</ele>
        <time>2007-11-11T13:00:50Z</time>
      </trkpt>
      <trkpt lat="45.82163019105792" lon="9.140842594206333">
        <ele>829.2744140625</ele>
        <time>2007-11-11T13:00:54Z</time>
      </trkpt>
      <trkpt lat="45.821407232433558" lon="9.14102615788579">
        <ele>828.7939453125</ele>
        <time>2007-11-11T13:00:58Z</time>
      </trkpt>
      <trkpt lat="45.821221238002181" lon="9.141157753765583">
        <ele>829.755126953125</ele>
        <time>2007-11-11T13:01:02Z</time>
      </trkpt>
      <trkpt lat="45.82103306427598" lon="9.141329666599631">
        <ele>823.02587890625</ele>
        <time>2007-11-11T13:01:09Z</time>
      </trkpt>
      <trkpt lat="45.820835251361132" lon="9.14137601852417">
        <ele>820.62255859375</ele>
        <time>2007-11-11T13:01:14Z</time>
      </trkpt>
      <trkpt lat="45.820631990209222" lon="9.141429578885436">
        <ele>819.1806640625</ele>
        <time>2007-11-11T13:01:18Z</time>
      </trkpt>
      <trkpt lat="45.820391597226262" lon="9.141493197530508">
        <ele>817.738525390625</ele>
        <time>2007-11-11T13:01:22Z</time>
      </trkpt>
      <trkpt lat="45.820139218121767" lon="9.141569137573242">
        <ele>816.296630859375</ele>
        <time>2007-11-11T13:01:26Z</time>
      </trkpt>
      <trkpt lat="45.81993704661727" lon="9.141614232212305">
        <ele>815.33544921875</ele>
        <time>2007-11-11T13:01:29Z</time>
      </trkpt>
      <trkpt lat="45.819729175418615" lon="9.141680616885424">
        <ele>814.3740234375</ele>
        <time>2007-11-11T13:01:32Z</time>
      </trkpt>
      <trkpt lat="45.819538235664368" lon="9.141719173640013">
        <ele>813.412841796875</ele>
        <time>2007-11-11T13:01:35Z</time>
      </trkpt>
      <trkpt lat="45.819311840459704" lon="9.141673995181918">
        <ele>813.412841796875</ele>
        <time>2007-11-11T13:01:39Z</time>
      </trkpt>
      <trkpt lat="45.81911226734519" lon="9.141563018783927">
        <ele>813.412841796875</ele>
        <time>2007-11-11T13:01:43Z</time>
      </trkpt>
      <trkpt lat="45.81891973502934" lon="9.141369061544538">
        <ele>810.0478515625</ele>
        <time>2007-11-11T13:01:48Z</time>
      </trkpt>
      <trkpt lat="45.818723347038031" lon="9.141437457874417">
        <ele>802.357421875</ele>
        <time>2007-11-11T13:01:55Z</time>
      </trkpt>
      <trkpt lat="45.818513548001647" lon="9.141588751226664">
        <ele>801.396240234375</ele>
        <time>2007-11-11T13:02:01Z</time>
      </trkpt>
      <trkpt lat="45.818376420065761" lon="9.141439134255052">
        <ele>792.263671875</ele>
        <time>2007-11-11T13:02:11Z</time>
      </trkpt>
      <trkpt lat="45.818513967096806" lon="9.141136547550559">
        <ele>784.5732421875</ele>
        <time>2007-11-11T13:02:20Z</time>
      </trkpt>
      <trkpt lat="45.818592924624681" lon="9.140719380229712">
        <ele>778.80517578125</ele>
        <time>2007-11-11T13:02:26Z</time>
      </trkpt>
      <trkpt lat="45.818668194115162" lon="9.140381086617708">
        <ele>775.921142578125</ele>
        <time>2007-11-11T13:02:30Z</time>
      </trkpt>
      <trkpt lat="45.818705577403307" lon="9.140047822147608">
        <ele>774.479248046875</ele>
        <time>2007-11-11T13:02:34Z</time>
      </trkpt>
      <trkpt lat="45.818763161078095" lon="9.139794269576669">
        <ele>772.075927734375</ele>
        <time>2007-11-11T13:02:38Z</time>
      </trkpt>
      <trkpt lat="45.818746145814657" lon="9.139522947371006">
        <ele>766.788818359375</ele>
        <time>2007-11-11T13:02:42Z</time>
      </trkpt>
      <trkpt lat="45.818775817751884" lon="9.139232933521271">
        <ele>762.943359375</ele>
        <time>2007-11-11T13:02:47Z</time>
      </trkpt>
      <trkpt lat="45.818831389769912" lon="9.13897393271327">
        <ele>759.578857421875</ele>
        <time>2007-11-11T13:02:51Z</time>
      </trkpt>
      <trkpt lat="45.818904228508472" lon="9.13866707123816">
        <ele>758.617431640625</ele>
        <time>2007-11-11T13:02:56Z</time>
      </trkpt>
      <trkpt lat="45.819010427221656" lon="9.138421565294266">
        <ele>756.69482421875</ele>
        <time>2007-11-11T13:03:01Z</time>
      </trkpt>
      <trkpt lat="45.819181250408292" lon="9.138185027986765">
        <ele>755.2529296875</ele>
        <time>2007-11-11T13:03:06Z</time>
      </trkpt>
      <trkpt lat="45.819375794380903" lon="9.137987550348043">
        <ele>754.772216796875</ele>
        <time>2007-11-11T13:03:11Z</time>
      </trkpt>
      <trkpt lat="45.819540750235319" lon="9.137763418257237">
        <ele>753.81103515625</ele>
        <time>2007-11-11T13:03:30Z</time>
      </trkpt>
      <trkpt lat="45.819575786590576" lon="9.137544985860586">
        <ele>752.368896484375</ele>
        <time>2007-11-11T13:03:36Z</time>
      </trkpt>
      <trkpt lat="45.819417452439666" lon="9.137399392202497">
        <ele>750.446533203125</ele>
        <time>2007-11-11T13:03:41Z</time>
      </trkpt>
      <trkpt lat="45.819222573190928" lon="9.137290343642235">
        <ele>749.00439453125</ele>
        <time>2007-11-11T13:03:46Z</time>
      </trkpt>
      <trkpt lat="45.819001290947199" lon="9.137207195162773">
        <ele>746.60107421875</ele>
        <time>2007-11-11T13:03:51Z</time>
      </trkpt>
      <trkpt lat="45.818824684247375" lon="9.137132847681642">
        <ele>746.120361328125</ele>
        <time>2007-11-11T13:03:55Z</time>
      </trkpt>
      <trkpt lat="45.818629888817668" lon="9.137116754427552">
        <ele>743.236328125</ele>
        <time>2007-11-11T13:03:59Z</time>
      </trkpt>
      <trkpt lat="45.818403577432036" lon="9.137018183246255">
        <ele>742.275146484375</ele>
        <time>2007-11-11T13:04:04Z</time>
      </trkpt>
      <trkpt lat="45.81819755025208" lon="9.136954648420215">
        <ele>741.313720703125</ele>
        <time>2007-11-11T13:04:10Z</time>
      </trkpt>
      <trkpt lat="45.817991271615028" lon="9.136975267902017">
        <ele>738.429931640625</ele>
        <time>2007-11-11T13:04:15Z</time>
      </trkpt>
      <trkpt lat="45.817762948572636" lon="9.136998150497675">
        <ele>737.94921875</ele>
        <time>2007-11-11T13:04:19Z</time>
      </trkpt>
      <trkpt lat="45.817545270547271" lon="9.137032683938742">
        <ele>733.142578125</ele>
        <time>2007-11-11T13:04:25Z</time>
      </trkpt>
      <trkpt lat="45.817268248647451" lon="9.137093285098672">
        <ele>729.77783203125</ele>
        <time>2007-11-11T13:04:31Z</time>
      </trkpt>
      <trkpt lat="45.817026095464826" lon="9.137084065005183">
        <ele>728.3359375</ele>
        <time>2007-11-11T13:04:36Z</time>
      </trkpt>
      <trkpt lat="45.81681227311492" lon="9.13705606944859">
        <ele>726.89404296875</ele>
        <time>2007-11-11T13:04:41Z</time>
      </trkpt>
      <trkpt lat="45.816583279520273" lon="9.136999323964119">
        <ele>724.010009765625</ele>
        <time>2007-11-11T13:04:48Z</time>
      </trkpt>
      <trkpt lat="45.816354872658849" lon="9.137016255408526">
        <ele>717.761474609375</ele>
        <time>2007-11-11T13:04:56Z</time>
      </trkpt>
      <trkpt lat="45.816146079450846" lon="9.137033857405186">
        <ele>714.396728515625</ele>
        <time>2007-11-11T13:05:00Z</time>
      </trkpt>
      <trkpt lat="45.815929742529988" lon="9.137023631483316">
        <ele>711.99365234375</ele>
        <time>2007-11-11T13:05:04Z</time>
      </trkpt>
      <trkpt lat="45.815687337890267" lon="9.136973926797509">
        <ele>709.109619140625</ele>
        <time>2007-11-11T13:05:08Z</time>
      </trkpt>
      <trkpt lat="45.815476784482598" lon="9.136934699490666">
        <ele>707.667724609375</ele>
        <time>2007-11-11T13:05:12Z</time>
      </trkpt>
      <trkpt lat="45.815280899405479" lon="9.136905530467629">
        <ele>706.2255859375</ele>
        <time>2007-11-11T13:05:16Z</time>
      </trkpt>
      <trkpt lat="45.815058192238212" lon="9.136858256533742">
        <ele>702.861083984375</ele>
        <time>2007-11-11T13:05:21Z</time>
      </trkpt>
      <trkpt lat="45.814822828397155" lon="9.136783741414547">
        <ele>699.015625</ele>
        <time>2007-11-11T13:05:27Z</time>
      </trkpt>
      <trkpt lat="45.81465938128531" lon="9.136579725891352">
        <ele>694.689697265625</ele>
        <time>2007-11-11T13:05:33Z</time>
      </trkpt>
      <trkpt lat="45.814535832032561" lon="9.136295327916741">
        <ele>689.402587890625</ele>
        <time>2007-11-11T13:05:39Z</time>
      </trkpt>
      <trkpt lat="45.814349083229899" lon="9.136101957410574">
        <ele>685.557373046875</ele>
        <time>2007-11-11T13:05:44Z</time>
      </trkpt>
      <trkpt lat="45.814120592549443" lon="9.136067256331444">
        <ele>680.27001953125</ele>
        <time>2007-11-11T13:05:50Z</time>
      </trkpt>
      <trkpt lat="45.813937364146113" lon="9.136132635176182">
        <ele>676.4248046875</ele>
        <time>2007-11-11T13:05:54Z</time>
      </trkpt>
      <trkpt lat="45.813715746626258" lon="9.136145124211907">
        <ele>672.57958984375</ele>
        <time>2007-11-11T13:05:59Z</time>
      </trkpt>
      <trkpt lat="45.813514078035951" lon="9.136122660711408">
        <ele>669.69580078125</ele>
        <time>2007-11-11T13:06:03Z</time>
      </trkpt>
      <trkpt lat="45.813313499093056" lon="9.136093240231276">
        <ele>666.8115234375</ele>
        <time>2007-11-11T13:06:08Z</time>
      </trkpt>
      <trkpt lat="45.813115183264017" lon="9.135984443128109">
        <ele>664.888916015625</ele>
        <time>2007-11-11T13:06:13Z</time>
      </trkpt>
      <trkpt lat="45.812935642898083" lon="9.135763496160507">
        <ele>663.927490234375</ele>
        <time>2007-11-11T13:06:18Z</time>
      </trkpt>
      <trkpt lat="45.812817038968205" lon="9.135459316894412">
        <ele>660.56298828125</ele>
        <time>2007-11-11T13:06:24Z</time>
      </trkpt>
      <trkpt lat="45.81257832236588" lon="9.135450264438987">
        <ele>655.27587890625</ele>
        <time>2007-11-11T13:06:29Z</time>
      </trkpt>
      <trkpt lat="45.812344551086426" lon="9.1355134639889">
        <ele>649.5078125</ele>
        <time>2007-11-11T13:06:34Z</time>
      </trkpt>
      <trkpt lat="45.812164256349206" lon="9.135642880573869">
        <ele>647.1044921875</ele>
        <time>2007-11-11T13:06:38Z</time>
      </trkpt>
      <trkpt lat="45.811954122036695" lon="9.13568152114749">
        <ele>644.220703125</ele>
        <time>2007-11-11T13:06:43Z</time>
      </trkpt>
      <trkpt lat="45.811755387112498" lon="9.135806998237968">
        <ele>638.93359375</ele>
        <time>2007-11-11T13:06:49Z</time>
      </trkpt>
      <trkpt lat="45.811536954715848" lon="9.135878495872021">
        <ele>633.64599609375</ele>
        <time>2007-11-11T13:06:56Z</time>
      </trkpt>
      <trkpt lat="45.811339896172285" lon="9.135938175022602">
        <ele>630.76220703125</ele>
        <time>2007-11-11T13:07:03Z</time>
      </trkpt>
      <trkpt lat="45.811140658333898" lon="9.1358364187181">
        <ele>624.513671875</ele>
        <time>2007-11-11T13:07:12Z</time>
      </trkpt>
      <trkpt lat="45.81087838858366" lon="9.135780930519104">
        <ele>617.3037109375</ele>
        <time>2007-11-11T13:07:19Z</time>
      </trkpt>
      <trkpt lat="45.810645371675491" lon="9.135784031823278">
        <ele>613.93896484375</ele>
        <time>2007-11-11T13:07:23Z</time>
      </trkpt>
      <trkpt lat="45.810369020327926" lon="9.135801885277033">
        <ele>612.4970703125</ele>
        <time>2007-11-11T13:07:27Z</time>
      </trkpt>
      <trkpt lat="45.810165591537952" lon="9.135783528909087">
        <ele>611.535888671875</ele>
        <time>2007-11-11T13:07:31Z</time>
      </trkpt>
      <trkpt lat="45.809969371184707" lon="9.135712282732129">
        <ele>608.65185546875</ele>
        <time>2007-11-11T13:07:35Z</time>
      </trkpt>
      <trkpt lat="45.809760997071862" lon="9.135579261928797">
        <ele>605.287353515625</ele>
        <time>2007-11-11T13:07:40Z</time>
      </trkpt>
      <trkpt lat="45.80958154052496" lon="9.135426124557853">
        <ele>603.364501953125</ele>
        <time>2007-11-11T13:07:44Z</time>
      </trkpt>
      <trkpt lat="45.809365538880229" lon="9.135300731286407">
        <ele>599.519287109375</ele>
        <time>2007-11-11T13:07:50Z</time>
      </trkpt>
      <trkpt lat="45.809157080948353" lon="9.135267622768879">
        <ele>595.674072265625</ele>
        <time>2007-11-11T13:07:55Z</time>
      </trkpt>
      <trkpt lat="45.808986341580749" lon="9.135107276961207">
        <ele>592.3095703125</ele>
        <time>2007-11-11T13:08:00Z</time>
      </trkpt>
      <trkpt lat="45.808896655216813" lon="9.134858753532171">
        <ele>588.46435546875</ele>
        <time>2007-11-11T13:08:04Z</time>
      </trkpt>
      <trkpt lat="45.808798251673579" lon="9.134610146284103">
        <ele>585.580078125</ele>
        <time>2007-11-11T13:08:08Z</time>
      </trkpt>
      <trkpt lat="45.808709738776088" lon="9.134341590106487">
        <ele>581.25439453125</ele>
        <time>2007-11-11T13:08:12Z</time>
      </trkpt>
      <trkpt lat="45.808566324412823" lon="9.134056270122528">
        <ele>577.8896484375</ele>
        <time>2007-11-11T13:08:17Z</time>
      </trkpt>
      <trkpt lat="45.80831796862185" lon="9.134090133011341">
        <ele>574.525146484375</ele>
        <time>2007-11-11T13:08:23Z</time>
      </trkpt>
      <trkpt lat="45.808180421590805" lon="9.134445525705814">
        <ele>571.160400390625</ele>
        <time>2007-11-11T13:08:27Z</time>
      </trkpt>
      <trkpt lat="45.808127280324697" lon="9.134728331118822">
        <ele>570.198974609375</ele>
        <time>2007-11-11T13:08:31Z</time>
      </trkpt>
      <trkpt lat="45.808098698034883" lon="9.135023038834333">
        <ele>566.83447265625</ele>
        <time>2007-11-11T13:08:52Z</time>
      </trkpt>
      <trkpt lat="45.808075396344066" lon="9.135335767641664">
        <ele>563.469970703125</ele>
        <time>2007-11-11T13:08:56Z</time>
      </trkpt>
      <trkpt lat="45.807992164045572" lon="9.135574735701084">
        <ele>560.105224609375</ele>
        <time>2007-11-11T13:09:00Z</time>
      </trkpt>
      <trkpt lat="45.807848749682307" lon="9.135799622163177">
        <ele>555.779296875</ele>
        <time>2007-11-11T13:09:06Z</time>
      </trkpt>
      <trkpt lat="45.807700725272298" lon="9.135995842516422">
        <ele>553.856689453125</ele>
        <time>2007-11-11T13:09:25Z</time>
      </trkpt>
      <trkpt lat="45.807547252625227" lon="9.136205725371838">
        <ele>550.4921875</ele>
        <time>2007-11-11T13:09:30Z</time>
      </trkpt>
      <trkpt lat="45.80739738419652" lon="9.136392055079341">
        <ele>548.5693359375</ele>
        <time>2007-11-11T13:09:33Z</time>
      </trkpt>
      <trkpt lat="45.807215832173824" lon="9.136591963469982">
        <ele>547.12744140625</ele>
        <time>2007-11-11T13:09:36Z</time>
      </trkpt>
      <trkpt lat="45.807025730609894" lon="9.136740323156118">
        <ele>547.12744140625</ele>
        <time>2007-11-11T13:09:39Z</time>
      </trkpt>
      <trkpt lat="45.80682716332376" lon="9.136816430836916">
        <ele>547.12744140625</ele>
        <time>2007-11-11T13:09:42Z</time>
      </trkpt>
      <trkpt lat="45.806658519431949" lon="9.136731773614883">
        <ele>546.166259765625</ele>
        <time>2007-11-11T13:09:45Z</time>
      </trkpt>
      <trkpt lat="45.806532790884376" lon="9.136532284319401">
        <ele>547.608154296875</ele>
        <time>2007-11-11T13:09:49Z</time>
      </trkpt>
      <trkpt lat="45.806395160034299" lon="9.136320054531097">
        <ele>544.7242431640625</ele>
        <time>2007-11-11T13:10:28Z</time>
      </trkpt>
      <trkpt lat="45.806263480335474" lon="9.136085696518421">
        <ele>539.4368896484375</ele>
        <time>2007-11-11T13:10:32Z</time>
      </trkpt>
      <trkpt lat="45.806203885003924" lon="9.135814290493727">
        <ele>534.63037109375</ele>
        <time>2007-11-11T13:10:35Z</time>
      </trkpt>
      <trkpt lat="45.806174296885729" lon="9.135433835908771">
        <ele>529.82373046875</ele>
        <time>2007-11-11T13:10:38Z</time>
      </trkpt>
      <trkpt lat="45.806120233610272" lon="9.135184390470386">
        <ele>527.9010009765625</ele>
        <time>2007-11-11T13:10:40Z</time>
      </trkpt>
      <trkpt lat="45.806025937199593" lon="9.134950870648027">
        <ele>525.0172119140625</ele>
        <time>2007-11-11T13:10:42Z</time>
      </trkpt>
      <trkpt lat="45.80587288364768" lon="9.134785076603293">
        <ele>524.5364990234375</ele>
        <time>2007-11-11T13:10:44Z</time>
      </trkpt>
      <trkpt lat="45.80562804825604" lon="9.134830171242356">
        <ele>523.5751953125</ele>
        <time>2007-11-11T13:10:47Z</time>
      </trkpt>
      <trkpt lat="45.805492429062724" lon="9.135116077959538">
        <ele>523.0946044921875</ele>
        <time>2007-11-11T13:10:50Z</time>
      </trkpt>
      <trkpt lat="45.805337531492114" lon="9.135359739884734">
        <ele>523.0946044921875</ele>
        <time>2007-11-11T13:10:53Z</time>
      </trkpt>
      <trkpt lat="45.805160421878099" lon="9.135551853105426">
        <ele>522.6138916015625</ele>
        <time>2007-11-11T13:10:57Z</time>
      </trkpt>
      <trkpt lat="45.804937966167927" lon="9.135661739856005">
        <ele>519.249267578125</ele>
        <time>2007-11-11T13:11:22Z</time>
      </trkpt>
      <trkpt lat="45.804710481315851" lon="9.135729549452663">
        <ele>515.404052734375</ele>
        <time>2007-11-11T13:11:26Z</time>
      </trkpt>
      <trkpt lat="45.80452423542738" lon="9.135968768969178">
        <ele>508.6746826171875</ele>
        <time>2007-11-11T13:11:29Z</time>
      </trkpt>
      <trkpt lat="45.804409319534898" lon="9.136204216629267">
        <ele>505.3101806640625</ele>
        <time>2007-11-11T13:11:31Z</time>
      </trkpt>
      <trkpt lat="45.80425257794559" lon="9.136515688151121">
        <ele>500.02294921875</ele>
        <time>2007-11-11T13:11:34Z</time>
      </trkpt>
      <trkpt lat="45.804140847176313" lon="9.136733952909708">
        <ele>497.61962890625</ele>
        <time>2007-11-11T13:11:36Z</time>
      </trkpt>
      <trkpt lat="45.80401805229485" lon="9.136956157162786">
        <ele>493.2935791015625</ele>
        <time>2007-11-11T13:11:38Z</time>
      </trkpt>
      <trkpt lat="45.803883438929915" lon="9.137189676985145">
        <ele>490.890380859375</ele>
        <time>2007-11-11T13:11:40Z</time>
      </trkpt>
      <trkpt lat="45.80375611782074" lon="9.137420766055584">
        <ele>487.525634765625</ele>
        <time>2007-11-11T13:11:42Z</time>
      </trkpt>
      <trkpt lat="45.803642459213734" lon="9.137671384960413">
        <ele>485.1224365234375</ele>
        <time>2007-11-11T13:11:44Z</time>
      </trkpt>
      <trkpt lat="45.803548665717244" lon="9.137902976945043">
        <ele>483.1998291015625</ele>
        <time>2007-11-11T13:11:46Z</time>
      </trkpt>
      <trkpt lat="45.803411621600389" lon="9.138214280828834">
        <ele>480.796630859375</ele>
        <time>2007-11-11T13:11:49Z</time>
      </trkpt>
      <trkpt lat="45.803238451480865" lon="9.138502785935998">
        <ele>474.0672607421875</ele>
        <time>2007-11-11T13:11:52Z</time>
      </trkpt>
      <trkpt lat="45.80313409678638" lon="9.138756757602096">
        <ele>470.221923828125</ele>
        <time>2007-11-11T13:11:54Z</time>
      </trkpt>
      <trkpt lat="45.803026724606752" lon="9.139053141698241">
        <ele>468.29931640625</ele>
        <time>2007-11-11T13:11:57Z</time>
      </trkpt>
      <trkpt lat="45.802882639691234" lon="9.139215247705579">
        <ele>467.8187255859375</ele>
        <time>2007-11-11T13:12:01Z</time>
      </trkpt>
      <trkpt lat="45.802860343828797" lon="9.139018440619111">
        <ele>466.857421875</ele>
        <time>2007-11-11T13:12:28Z</time>
      </trkpt>
      <trkpt lat="45.802869061008096" lon="9.138744855299592">
        <ele>464.934814453125</ele>
        <time>2007-11-11T13:12:33Z</time>
      </trkpt>
      <trkpt lat="45.802880544215441" lon="9.138470264151692">
        <ele>462.05078125</ele>
        <time>2007-11-11T13:12:36Z</time>
      </trkpt>
      <trkpt lat="45.80287124030292" lon="9.138163570314646">
        <ele>459.1668701171875</ele>
        <time>2007-11-11T13:12:39Z</time>
      </trkpt>
      <trkpt lat="45.802854644134641" lon="9.13786961697042">
        <ele>458.6861572265625</ele>
        <time>2007-11-11T13:12:43Z</time>
      </trkpt>
      <trkpt lat="45.80285263247788" lon="9.138058964163065">
        <ele>460.128173828125</ele>
        <time>2007-11-11T13:12:55Z</time>
      </trkpt>
      <trkpt lat="45.802885238081217" lon="9.138363478705287">
        <ele>461.0894775390625</ele>
        <time>2007-11-11T13:13:04Z</time>
      </trkpt>
      <trkpt lat="45.802885992452502" lon="9.138628263026476">
        <ele>463.973388671875</ele>
        <time>2007-11-11T13:13:11Z</time>
      </trkpt>
      <trkpt lat="45.8028619363904" lon="9.138916935771704">
        <ele>466.857421875</ele>
        <time>2007-11-11T13:13:18Z</time>
      </trkpt>
      <trkpt lat="45.802849363535643" lon="9.139183228835464">
        <ele>467.8187255859375</ele>
        <time>2007-11-11T13:13:24Z</time>
      </trkpt>
      <trkpt lat="45.802793288603425" lon="9.139479948207736">
        <ele>465.41552734375</ele>
        <time>2007-11-11T13:13:29Z</time>
      </trkpt>
      <trkpt lat="45.802722880616784" lon="9.139740793034434">
        <ele>461.5701904296875</ele>
        <time>2007-11-11T13:13:32Z</time>
      </trkpt>
      <trkpt lat="45.802580891177058" lon="9.139879178255796">
        <ele>457.7249755859375</ele>
        <time>2007-11-11T13:13:35Z</time>
      </trkpt>
      <trkpt lat="45.802367990836501" lon="9.139899546280503">
        <ele>454.3602294921875</ele>
        <time>2007-11-11T13:13:38Z</time>
      </trkpt>
      <trkpt lat="45.802188031375408" lon="9.13980851881206">
        <ele>450.5150146484375</ele>
        <time>2007-11-11T13:13:41Z</time>
      </trkpt>
      <trkpt lat="45.80211435444653" lon="9.139514984562993">
        <ele>446.1890869140625</ele>
        <time>2007-11-11T13:13:44Z</time>
      </trkpt>
      <trkpt lat="45.802106140181422" lon="9.139160765334964">
        <ele>444.7470703125</ele>
        <time>2007-11-11T13:13:47Z</time>
      </trkpt>
      <trkpt lat="45.802139416337013" lon="9.138867734000087">
        <ele>442.824462890625</ele>
        <time>2007-11-11T13:13:50Z</time>
      </trkpt>
      <trkpt lat="45.802061464637518" lon="9.138631783425808">
        <ele>442.824462890625</ele>
        <time>2007-11-11T13:13:55Z</time>
      </trkpt>
      <trkpt lat="45.801995247602463" lon="9.138363981619477">
        <ele>443.7857666015625</ele>
        <time>2007-11-11T13:14:02Z</time>
      </trkpt>
      <trkpt lat="45.802012095227838" lon="9.138097520917654">
        <ele>446.669677734375</ele>
        <time>2007-11-11T13:14:09Z</time>
      </trkpt>
      <trkpt lat="45.802044868469238" lon="9.137810692191124">
        <ele>445.7083740234375</ele>
        <time>2007-11-11T13:14:16Z</time>
      </trkpt>
      <trkpt lat="45.802031792700291" lon="9.137493437156081">
        <ele>444.7470703125</ele>
        <time>2007-11-11T13:14:21Z</time>
      </trkpt>
      <trkpt lat="45.802045958116651" lon="9.137137373909354">
        <ele>442.824462890625</ele>
        <time>2007-11-11T13:14:25Z</time>
      </trkpt>
      <trkpt lat="45.802123323082924" lon="9.136876445263624">
        <ele>441.3824462890625</ele>
        <time>2007-11-11T13:14:28Z</time>
      </trkpt>
      <trkpt lat="45.802246453240514" lon="9.136679219081998">
        <ele>441.8631591796875</ele>
        <time>2007-11-11T13:14:31Z</time>
      </trkpt>
      <trkpt lat="45.802379054948688" lon="9.136496242135763">
        <ele>442.3438720703125</ele>
        <time>2007-11-11T13:14:34Z</time>
      </trkpt>
      <trkpt lat="45.802493719384074" lon="9.136211760342121">
        <ele>442.3438720703125</ele>
        <time>2007-11-11T13:14:38Z</time>
      </trkpt>
      <trkpt lat="45.802537053823471" lon="9.13594588637352">
        <ele>443.7857666015625</ele>
        <time>2007-11-11T13:14:42Z</time>
      </trkpt>
      <trkpt lat="45.802604025229812" lon="9.13564782589674">
        <ele>445.7083740234375</ele>
        <time>2007-11-11T13:14:47Z</time>
      </trkpt>
      <trkpt lat="45.802695890888572" lon="9.135365858674049">
        <ele>447.6309814453125</ele>
        <time>2007-11-11T13:14:52Z</time>
      </trkpt>
      <trkpt lat="45.802782559767365" lon="9.135073162615299">
        <ele>449.072998046875</ele>
        <time>2007-11-11T13:14:57Z</time>
      </trkpt>
      <trkpt lat="45.802857745438814" lon="9.134819693863392">
        <ele>450.5150146484375</ele>
        <time>2007-11-11T13:15:02Z</time>
      </trkpt>
      <trkpt lat="45.802932679653168" lon="9.134576199576259">
        <ele>450.5150146484375</ele>
        <time>2007-11-11T13:15:07Z</time>
      </trkpt>
      <trkpt lat="45.803034352138638" lon="9.134363969787955">
        <ele>450.99560546875</ele>
        <time>2007-11-11T13:15:12Z</time>
      </trkpt>
      <trkpt lat="45.803165193647146" lon="9.134175963699818">
        <ele>450.99560546875</ele>
        <time>2007-11-11T13:15:19Z</time>
      </trkpt>
      <trkpt lat="45.803287150338292" lon="9.133980581536889">
        <ele>449.072998046875</ele>
        <time>2007-11-11T13:15:31Z</time>
      </trkpt>
      <trkpt lat="45.80341556109488" lon="9.133682772517204">
        <ele>448.11181640625</ele>
        <time>2007-11-11T13:15:36Z</time>
      </trkpt>
      <trkpt lat="45.80351228825748" lon="9.133401224389672">
        <ele>446.1890869140625</ele>
        <time>2007-11-11T13:15:39Z</time>
      </trkpt>
      <trkpt lat="45.803598035126925" lon="9.133060835301876">
        <ele>443.3050537109375</ele>
        <time>2007-11-11T13:15:42Z</time>
      </trkpt>
      <trkpt lat="45.80365939065814" lon="9.132696893066168">
        <ele>442.3438720703125</ele>
        <time>2007-11-11T13:15:45Z</time>
      </trkpt>
      <trkpt lat="45.803712280467153" lon="9.132445687428117">
        <ele>440.90185546875</ele>
        <time>2007-11-11T13:15:47Z</time>
      </trkpt>
      <trkpt lat="45.803770367056131" lon="9.132195822894573">
        <ele>439.9404296875</ele>
        <time>2007-11-11T13:15:49Z</time>
      </trkpt>
      <trkpt lat="45.803835242986679" lon="9.131939336657524">
        <ele>438.49853515625</ele>
        <time>2007-11-11T13:15:51Z</time>
      </trkpt>
      <trkpt lat="45.803890228271484" lon="9.131676983088255">
        <ele>438.017822265625</ele>
        <time>2007-11-11T13:15:53Z</time>
      </trkpt>
      <trkpt lat="45.803877487778664" lon="9.131394261494279">
        <ele>437.0565185546875</ele>
        <time>2007-11-11T13:15:55Z</time>
      </trkpt>
      <trkpt lat="45.803760979324579" lon="9.131176499649882">
        <ele>435.614501953125</ele>
        <time>2007-11-11T13:15:57Z</time>
      </trkpt>
      <trkpt lat="45.803595520555973" lon="9.131033336743712">
        <ele>435.614501953125</ele>
        <time>2007-11-11T13:15:59Z</time>
      </trkpt>
      <trkpt lat="45.80345026217401" lon="9.130737036466599">
        <ele>436.09521484375</ele>
        <time>2007-11-11T13:16:02Z</time>
      </trkpt>
      <trkpt lat="45.803420674055815" lon="9.130379296839237">
        <ele>436.09521484375</ele>
        <time>2007-11-11T13:16:05Z</time>
      </trkpt>
      <trkpt lat="45.80342335626483" lon="9.130023317411542">
        <ele>436.09521484375</ele>
        <time>2007-11-11T13:16:08Z</time>
      </trkpt>
      <trkpt lat="45.803435677662492" lon="9.129686364904046">
        <ele>436.09521484375</ele>
        <time>2007-11-11T13:16:11Z</time>
      </trkpt>
      <trkpt lat="45.803449423983693" lon="9.1293381806463">
        <ele>431.7691650390625</ele>
        <time>2007-11-11T13:16:14Z</time>
      </trkpt>
      <trkpt lat="45.803448753431439" lon="9.128948589786887">
        <ele>430.3272705078125</ele>
        <time>2007-11-11T13:16:17Z</time>
      </trkpt>
      <trkpt lat="45.803454788401723" lon="9.128663688898087">
        <ele>427.9239501953125</ele>
        <time>2007-11-11T13:16:19Z</time>
      </trkpt>
      <trkpt lat="45.803465098142624" lon="9.128361856564879">
        <ele>425.520751953125</ele>
        <time>2007-11-11T13:16:21Z</time>
      </trkpt>
      <trkpt lat="45.803484879434109" lon="9.12804963067174">
        <ele>422.63671875</ele>
        <time>2007-11-11T13:16:23Z</time>
      </trkpt>
      <trkpt lat="45.803505834192038" lon="9.127726843580604">
        <ele>421.6754150390625</ele>
        <time>2007-11-11T13:16:25Z</time>
      </trkpt>
      <trkpt lat="45.803533997386694" lon="9.127387795597315">
        <ele>419.272216796875</ele>
        <time>2007-11-11T13:16:27Z</time>
      </trkpt>
      <trkpt lat="45.803570123389363" lon="9.127025362104178">
        <ele>414.4654541015625</ele>
        <time>2007-11-11T13:16:29Z</time>
      </trkpt>
      <trkpt lat="45.803606165573001" lon="9.126646248623729">
        <ele>410.6202392578125</ele>
        <time>2007-11-11T13:16:31Z</time>
      </trkpt>
      <trkpt lat="45.80363986082375" lon="9.126260597258806">
        <ele>408.217041015625</ele>
        <time>2007-11-11T13:16:33Z</time>
      </trkpt>
      <trkpt lat="45.803659558296204" lon="9.125866647809744">
        <ele>405.813720703125</ele>
        <time>2007-11-11T13:16:35Z</time>
      </trkpt>
      <trkpt lat="45.803689984604716" lon="9.125465322285891">
        <ele>402.4490966796875</ele>
        <time>2007-11-11T13:16:37Z</time>
      </trkpt>
      <trkpt lat="45.803715046495199" lon="9.125068690627813">
        <ele>400.0458984375</ele>
        <time>2007-11-11T13:16:39Z</time>
      </trkpt>
      <trkpt lat="45.803705072030425" lon="9.1246981266886">
        <ele>398.1231689453125</ele>
        <time>2007-11-11T13:16:41Z</time>
      </trkpt>
      <trkpt lat="45.803688475862145" lon="9.124378524720669">
        <ele>397.1617431640625</ele>
        <time>2007-11-11T13:16:43Z</time>
      </trkpt>
      <trkpt lat="45.803680764511228" lon="9.124100329354405">
        <ele>395.2391357421875</ele>
        <time>2007-11-11T13:16:45Z</time>
      </trkpt>
      <trkpt lat="45.803758883848786" lon="9.123761365190148">
        <ele>394.2779541015625</ele>
        <time>2007-11-11T13:16:48Z</time>
      </trkpt>
      <trkpt lat="45.803893078118563" lon="9.123585093766451">
        <ele>391.393798828125</ele>
        <time>2007-11-11T13:16:50Z</time>
      </trkpt>
      <trkpt lat="45.804038252681494" lon="9.123387532308698">
        <ele>387.548583984375</ele>
        <time>2007-11-11T13:16:52Z</time>
      </trkpt>
      <trkpt lat="45.804144199937582" lon="9.12311595864594">
        <ele>384.18408203125</ele>
        <time>2007-11-11T13:16:54Z</time>
      </trkpt>
      <trkpt lat="45.804253332316875" lon="9.122824352234602">
        <ele>381.7806396484375</ele>
        <time>2007-11-11T13:16:56Z</time>
      </trkpt>
      <trkpt lat="45.804410995915532" lon="9.12256577052176">
        <ele>378.8968505859375</ele>
        <time>2007-11-11T13:16:58Z</time>
      </trkpt>
      <trkpt lat="45.804494731128216" lon="9.122241642326117">
        <ele>376.0128173828125</ele>
        <time>2007-11-11T13:17:00Z</time>
      </trkpt>
      <trkpt lat="45.804492635652423" lon="9.12187677808106">
        <ele>371.6868896484375</ele>
        <time>2007-11-11T13:17:02Z</time>
      </trkpt>
      <trkpt lat="45.804505543783307" lon="9.121502777561545">
        <ele>368.322265625</ele>
        <time>2007-11-11T13:17:04Z</time>
      </trkpt>
      <trkpt lat="45.804538317024708" lon="9.121124250814319">
        <ele>365.9189453125</ele>
        <time>2007-11-11T13:17:06Z</time>
      </trkpt>
      <trkpt lat="45.804583663120866" lon="9.120767181739211">
        <ele>364.4769287109375</ele>
        <time>2007-11-11T13:17:08Z</time>
      </trkpt>
      <trkpt lat="45.804628925397992" lon="9.120459230616689">
        <ele>365.4383544921875</ele>
        <time>2007-11-11T13:17:10Z</time>
      </trkpt>
      <trkpt lat="45.804683994501829" lon="9.120214395225048">
        <ele>364.4769287109375</ele>
        <time>2007-11-11T13:17:12Z</time>
      </trkpt>
      <trkpt lat="45.804724646732211" lon="9.119852967560291">
        <ele>362.5543212890625</ele>
        <time>2007-11-11T13:17:15Z</time>
      </trkpt>
      <trkpt lat="45.804694723337889" lon="9.119594218209386">
        <ele>360.151123046875</ele>
        <time>2007-11-11T13:17:17Z</time>
      </trkpt>
      <trkpt lat="45.804668152704835" lon="9.119313172996044">
        <ele>357.26708984375</ele>
        <time>2007-11-11T13:17:19Z</time>
      </trkpt>
      <trkpt lat="45.80464887432754" lon="9.119006646797061">
        <ele>355.344482421875</ele>
        <time>2007-11-11T13:17:21Z</time>
      </trkpt>
      <trkpt lat="45.804643174633384" lon="9.118700288236141">
        <ele>353.902587890625</ele>
        <time>2007-11-11T13:17:23Z</time>
      </trkpt>
      <trkpt lat="45.804638480767608" lon="9.118421589955688">
        <ele>352.941162109375</ele>
        <time>2007-11-11T13:17:25Z</time>
      </trkpt>
      <trkpt lat="45.804640660062432" lon="9.118162170052528">
        <ele>351.0184326171875</ele>
        <time>2007-11-11T13:17:27Z</time>
      </trkpt>
      <trkpt lat="45.80470209941268" lon="9.117804933339357">
        <ele>348.615234375</ele>
        <time>2007-11-11T13:17:30Z</time>
      </trkpt>
      <trkpt lat="45.804800586774945" lon="9.117513997480273">
        <ele>348.615234375</ele>
        <time>2007-11-11T13:17:33Z</time>
      </trkpt>
      <trkpt lat="45.804820116609335" lon="9.117190120741725">
        <ele>345.7313232421875</ele>
        <time>2007-11-11T13:17:36Z</time>
      </trkpt>
      <trkpt lat="45.804794551804662" lon="9.116821233183146">
        <ele>342.36669921875</ele>
        <time>2007-11-11T13:17:39Z</time>
      </trkpt>
      <trkpt lat="45.804775189608335" lon="9.116547228768468">
        <ele>337.56005859375</ele>
        <time>2007-11-11T13:17:41Z</time>
      </trkpt>
      <trkpt lat="45.804762365296483" lon="9.116266435012221">
        <ele>336.1181640625</ele>
        <time>2007-11-11T13:17:43Z</time>
      </trkpt>
      <trkpt lat="45.804769825190306" lon="9.11593752913177">
        <ele>336.1181640625</ele>
        <time>2007-11-11T13:17:46Z</time>
      </trkpt>
      <trkpt lat="45.804659686982632" lon="9.115828648209572">
        <ele>334.6761474609375</ele>
        <time>2007-11-11T13:17:51Z</time>
      </trkpt>
      <trkpt lat="45.804555080831051" lon="9.116063425317407">
        <ele>333.7147216796875</ele>
        <time>2007-11-11T13:17:55Z</time>
      </trkpt>
      <trkpt lat="45.804451229050756" lon="9.116301219910383">
        <ele>332.2728271484375</ele>
        <time>2007-11-11T13:18:00Z</time>
      </trkpt>
      <trkpt lat="45.804425161331892" lon="9.116044230759144">
        <ele>329.388916015625</ele>
        <time>2007-11-11T13:18:05Z</time>
      </trkpt>
      <trkpt lat="45.80449297092855" lon="9.11577726714313">
        <ele>327.4661865234375</ele>
        <time>2007-11-11T13:18:08Z</time>
      </trkpt>
      <trkpt lat="45.804573437198997" lon="9.115518433973193">
        <ele>328.4276123046875</ele>
        <time>2007-11-11T13:18:11Z</time>
      </trkpt>
      <trkpt lat="45.804635044187307" lon="9.115269659087062">
        <ele>327.4661865234375</ele>
        <time>2007-11-11T13:18:14Z</time>
      </trkpt>
      <trkpt lat="45.804719533771276" lon="9.115017196163535">
        <ele>326.985595703125</ele>
        <time>2007-11-11T13:18:17Z</time>
      </trkpt>
      <trkpt lat="45.804874934256077" lon="9.114796919748187">
        <ele>326.024169921875</ele>
        <time>2007-11-11T13:18:20Z</time>
      </trkpt>
      <trkpt lat="45.805032597854733" lon="9.114528028294444">
        <ele>324.582275390625</ele>
        <time>2007-11-11T13:18:23Z</time>
      </trkpt>
      <trkpt lat="45.805073920637369" lon="9.114160565659404">
        <ele>323.140380859375</ele>
        <time>2007-11-11T13:18:26Z</time>
      </trkpt>
      <trkpt lat="45.80494936555624" lon="9.113909360021353">
        <ele>322.65966796875</ele>
        <time>2007-11-11T13:18:29Z</time>
      </trkpt>
      <trkpt lat="45.804780721664429" lon="9.113777177408338">
        <ele>322.178955078125</ele>
        <time>2007-11-11T13:18:32Z</time>
      </trkpt>
      <trkpt lat="45.804639235138893" lon="9.113536952063441">
        <ele>320.25634765625</ele>
        <time>2007-11-11T13:18:35Z</time>
      </trkpt>
      <trkpt lat="45.804514763876796" lon="9.113201340660453">
        <ele>318.3336181640625</ele>
        <time>2007-11-11T13:18:38Z</time>
      </trkpt>
      <trkpt lat="45.804399764165282" lon="9.112975029274821">
        <ele>314.0078125</ele>
        <time>2007-11-11T13:18:40Z</time>
      </trkpt>
      <trkpt lat="45.804251236841083" lon="9.112777216359973">
        <ele>314.0078125</ele>
        <time>2007-11-11T13:18:42Z</time>
      </trkpt>
      <trkpt lat="45.804117042571306" lon="9.112577978521586">
        <ele>312.085205078125</ele>
        <time>2007-11-11T13:18:44Z</time>
      </trkpt>
      <trkpt lat="45.804031128063798" lon="9.11233582533896">
        <ele>311.123779296875</ele>
        <time>2007-11-11T13:18:46Z</time>
      </trkpt>
      <trkpt lat="45.803982177749276" lon="9.112065844237804">
        <ele>309.681884765625</ele>
        <time>2007-11-11T13:18:48Z</time>
      </trkpt>
      <trkpt lat="45.803968431428075" lon="9.111781865358353">
        <ele>308.720458984375</ele>
        <time>2007-11-11T13:18:50Z</time>
      </trkpt>
      <trkpt lat="45.803933897987008" lon="9.111511465162039">
        <ele>304.875244140625</ele>
        <time>2007-11-11T13:18:52Z</time>
      </trkpt>
      <trkpt lat="45.803858377039433" lon="9.111267048865557">
        <ele>304.3946533203125</ele>
        <time>2007-11-11T13:18:54Z</time>
      </trkpt>
      <trkpt lat="45.803741617128253" lon="9.11106395535171">
        <ele>303.4332275390625</ele>
        <time>2007-11-11T13:18:56Z</time>
      </trkpt>
      <trkpt lat="45.803596694022417" lon="9.110884079709649">
        <ele>302.9525146484375</ele>
        <time>2007-11-11T13:18:58Z</time>
      </trkpt>
      <trkpt lat="45.80346493050456" lon="9.110675370320678">
        <ele>301.5106201171875</ele>
        <time>2007-11-11T13:19:00Z</time>
      </trkpt>
      <trkpt lat="45.803363341838121" lon="9.110426092520356">
        <ele>300.0687255859375</ele>
        <time>2007-11-11T13:19:02Z</time>
      </trkpt>
      <trkpt lat="45.803333837538958" lon="9.11015116609633">
        <ele>299.5880126953125</ele>
        <time>2007-11-11T13:19:04Z</time>
      </trkpt>
      <trkpt lat="45.803391421213746" lon="9.109894093126059">
        <ele>297.6654052734375</ele>
        <time>2007-11-11T13:19:06Z</time>
      </trkpt>
      <trkpt lat="45.80349518917501" lon="9.109655627980828">
        <ele>296.2235107421875</ele>
        <time>2007-11-11T13:19:08Z</time>
      </trkpt>
      <trkpt lat="45.803579427301884" lon="9.109386652708054">
        <ele>293.820068359375</ele>
        <time>2007-11-11T13:19:10Z</time>
      </trkpt>
      <trkpt lat="45.803633825853467" lon="9.109098985791206">
        <ele>291.8974609375</ele>
        <time>2007-11-11T13:19:12Z</time>
      </trkpt>
      <trkpt lat="45.803658552467823" lon="9.108824478462338">
        <ele>292.8587646484375</ele>
        <time>2007-11-11T13:19:14Z</time>
      </trkpt>
      <trkpt lat="45.803778665140271" lon="9.108555167913437">
        <ele>290.45556640625</ele>
        <time>2007-11-11T13:19:17Z</time>
      </trkpt>
      <trkpt lat="45.804004389792681" lon="9.108488699421287">
        <ele>288.05224609375</ele>
        <time>2007-11-11T13:19:20Z</time>
      </trkpt>
      <trkpt lat="45.804275460541248" lon="9.108468247577548">
        <ele>286.6102294921875</ele>
        <time>2007-11-11T13:19:23Z</time>
      </trkpt>
      <trkpt lat="45.804443852975965" lon="9.108351655304432">
        <ele>284.6876220703125</ele>
        <time>2007-11-11T13:19:25Z</time>
      </trkpt>
      <trkpt lat="45.804582573473454" lon="9.10816247574985">
        <ele>282.2843017578125</ele>
        <time>2007-11-11T13:19:27Z</time>
      </trkpt>
      <trkpt lat="45.804691789671779" lon="9.107924345880747">
        <ele>282.2843017578125</ele>
        <time>2007-11-11T13:19:29Z</time>
      </trkpt>
      <trkpt lat="45.804787678644061" lon="9.107702141627669">
        <ele>281.8035888671875</ele>
        <time>2007-11-11T13:19:31Z</time>
      </trkpt>
      <trkpt lat="45.804920364171267" lon="9.107518326491118">
        <ele>279.4002685546875</ele>
        <time>2007-11-11T13:19:33Z</time>
      </trkpt>
      <trkpt lat="45.80508423037827" lon="9.107381198555231">
        <ele>277.958251953125</ele>
        <time>2007-11-11T13:19:35Z</time>
      </trkpt>
      <trkpt lat="45.805270643904805" lon="9.107309365645051">
        <ele>276.516357421875</ele>
        <time>2007-11-11T13:19:37Z</time>
      </trkpt>
      <trkpt lat="45.805523190647364" lon="9.107201071456075">
        <ele>273.15185546875</ele>
        <time>2007-11-11T13:19:40Z</time>
      </trkpt>
      <trkpt lat="45.805681776255369" lon="9.106960594654083">
        <ele>271.2291259765625</ele>
        <time>2007-11-11T13:19:43Z</time>
      </trkpt>
      <trkpt lat="45.805668029934168" lon="9.106563460081816">
        <ele>268.8258056640625</ele>
        <time>2007-11-11T13:19:46Z</time>
      </trkpt>
      <trkpt lat="45.805653864517808" lon="9.106267746537924">
        <ele>267.3839111328125</ele>
        <time>2007-11-11T13:19:48Z</time>
      </trkpt>
      <trkpt lat="45.805639531463385" lon="9.105958454310894">
        <ele>265.4613037109375</ele>
        <time>2007-11-11T13:19:50Z</time>
      </trkpt>
      <trkpt lat="45.805612122640014" lon="9.105664836242795">
        <ele>263.057861328125</ele>
        <time>2007-11-11T13:19:52Z</time>
      </trkpt>
      <trkpt lat="45.805566273629665" lon="9.105408517643809">
        <ele>261.13525390625</ele>
        <time>2007-11-11T13:19:54Z</time>
      </trkpt>
      <trkpt lat="45.805567447096109" lon="9.105148762464523">
        <ele>260.654541015625</ele>
        <time>2007-11-11T13:19:56Z</time>
      </trkpt>
      <trkpt lat="45.805623773485422" lon="9.104879451915622">
        <ele>258.73193359375</ele>
        <time>2007-11-11T13:19:58Z</time>
      </trkpt>
      <trkpt lat="45.805688230320811" lon="9.104591952636838">
        <ele>257.2900390625</ele>
        <time>2007-11-11T13:20:00Z</time>
      </trkpt>
      <trkpt lat="45.805728882551193" lon="9.104288527742028">
        <ele>254.8865966796875</ele>
        <time>2007-11-11T13:20:02Z</time>
      </trkpt>
      <trkpt lat="45.805750088766217" lon="9.103982169181109">
        <ele>251.5220947265625</ele>
        <time>2007-11-11T13:20:04Z</time>
      </trkpt>
      <trkpt lat="45.805754195898771" lon="9.103664327412844">
        <ele>251.5220947265625</ele>
        <time>2007-11-11T13:20:06Z</time>
      </trkpt>
      <trkpt lat="45.805774983018637" lon="9.103336846455932">
        <ele>250.0802001953125</ele>
        <time>2007-11-11T13:20:08Z</time>
      </trkpt>
      <trkpt lat="45.805814126506448" lon="9.103029482066631">
        <ele>249.1187744140625</ele>
        <time>2007-11-11T13:20:10Z</time>
      </trkpt>
      <trkpt lat="45.805851425975561" lon="9.102740725502372">
        <ele>247.6767578125</ele>
        <time>2007-11-11T13:20:12Z</time>
      </trkpt>
      <trkpt lat="45.805853521451354" lon="9.102437552064657">
        <ele>245.754150390625</ele>
        <time>2007-11-11T13:20:14Z</time>
      </trkpt>
      <trkpt lat="45.805815048515797" lon="9.102142089977861">
        <ele>243.83154296875</ele>
        <time>2007-11-11T13:20:16Z</time>
      </trkpt>
      <trkpt lat="45.805765260010958" lon="9.101899852976203">
        <ele>242.8702392578125</ele>
        <time>2007-11-11T13:20:18Z</time>
      </trkpt>
      <trkpt lat="45.805778587237" lon="9.101534318178892">
        <ele>239.9862060546875</ele>
        <time>2007-11-11T13:20:21Z</time>
      </trkpt>
      <trkpt lat="45.805836338549852" lon="9.101274898275733">
        <ele>239.02490234375</ele>
        <time>2007-11-11T13:20:23Z</time>
      </trkpt>
      <trkpt lat="45.80584698356688" lon="9.101009191945195">
        <ele>238.0635986328125</ele>
        <time>2007-11-11T13:20:25Z</time>
      </trkpt>
      <trkpt lat="45.805795770138502" lon="9.100749520584941">
        <ele>237.5828857421875</ele>
        <time>2007-11-11T13:20:27Z</time>
      </trkpt>
      <trkpt lat="45.805734666064382" lon="9.100476941093803">
        <ele>237.102294921875</ele>
        <time>2007-11-11T13:20:29Z</time>
      </trkpt>
      <trkpt lat="45.805684374645352" lon="9.100211150944233">
        <ele>237.102294921875</ele>
        <time>2007-11-11T13:20:31Z</time>
      </trkpt>
      <trkpt lat="45.805629892274737" lon="9.099955838173628">
        <ele>236.6217041015625</ele>
        <time>2007-11-11T13:20:33Z</time>
      </trkpt>
      <trkpt lat="45.805565435439348" lon="9.099712930619717">
        <ele>235.6602783203125</ele>
        <time>2007-11-11T13:20:35Z</time>
      </trkpt>
      <trkpt lat="45.805471893399954" lon="9.099357118830085">
        <ele>233.7376708984375</ele>
        <time>2007-11-11T13:20:38Z</time>
      </trkpt>
      <trkpt lat="45.805436773225665" lon="9.099098453298211">
        <ele>232.2957763671875</ele>
        <time>2007-11-11T13:20:40Z</time>
      </trkpt>
      <trkpt lat="45.805483125150204" lon="9.098841631785035">
        <ele>231.81494140625</ele>
        <time>2007-11-11T13:20:42Z</time>
      </trkpt>
      <trkpt lat="45.80556065775454" lon="9.098514653742313">
        <ele>230.853759765625</ele>
        <time>2007-11-11T13:20:45Z</time>
      </trkpt>
      <trkpt lat="45.805617151781917" lon="9.09824131987989">
        <ele>229.892333984375</ele>
        <time>2007-11-11T13:20:50Z</time>
      </trkpt>
      <trkpt lat="45.805683536455035" lon="9.097988856956363">
        <ele>228.93115234375</ele>
        <time>2007-11-11T13:20:57Z</time>
      </trkpt>
      <trkpt lat="45.805768193677068" lon="9.097704458981752">
        <ele>228.450439453125</ele>
        <time>2007-11-11T13:21:01Z</time>
      </trkpt>
      <trkpt lat="45.805877828970551" lon="9.097541179507971">
        <ele>228.450439453125</ele>
        <time>2007-11-11T13:21:05Z</time>
      </trkpt>
      <trkpt lat="45.806067427620292" lon="9.09749667160213">
        <ele>228.93115234375</ele>
        <time>2007-11-11T13:21:11Z</time>
      </trkpt>
      <trkpt lat="45.806266749277711" lon="9.097396088764072">
        <ele>227.4891357421875</ele>
        <time>2007-11-11T13:21:15Z</time>
      </trkpt>
      <trkpt lat="45.806450396776199" lon="9.097317550331354">
        <ele>227.008544921875</ele>
        <time>2007-11-11T13:21:18Z</time>
      </trkpt>
      <trkpt lat="45.806621722877026" lon="9.097141530364752">
        <ele>227.4891357421875</ele>
        <time>2007-11-11T13:21:21Z</time>
      </trkpt>
      <trkpt lat="45.806797575205564" lon="9.096971796825528">
        <ele>227.008544921875</ele>
        <time>2007-11-11T13:21:24Z</time>
      </trkpt>
      <trkpt lat="45.806982396170497" lon="9.0968765784055">
        <ele>227.4891357421875</ele>
        <time>2007-11-11T13:21:27Z</time>
      </trkpt>
      <trkpt lat="45.807199319824576" lon="9.096751688048244">
        <ele>227.9697265625</ele>
        <time>2007-11-11T13:21:31Z</time>
      </trkpt>
      <trkpt lat="45.8073915168643" lon="9.096601316705346">
        <ele>229.4117431640625</ele>
        <time>2007-11-11T13:21:35Z</time>
      </trkpt>
      <trkpt lat="45.807556556537747" lon="9.096347177401185">
        <ele>229.892333984375</ele>
        <time>2007-11-11T13:21:39Z</time>
      </trkpt>
      <trkpt lat="45.807686392217875" lon="9.096154728904367">
        <ele>229.4117431640625</ele>
        <time>2007-11-11T13:21:42Z</time>
      </trkpt>
      <trkpt lat="45.807809354737401" lon="9.095963034778833">
        <ele>229.892333984375</ele>
        <time>2007-11-11T13:21:45Z</time>
      </trkpt>
      <trkpt lat="45.807955283671618" lon="9.095725072547793">
        <ele>230.853759765625</ele>
        <time>2007-11-11T13:21:49Z</time>
      </trkpt>
      <trkpt lat="45.808109259232879" lon="9.095533294603229">
        <ele>231.81494140625</ele>
        <time>2007-11-11T13:21:53Z</time>
      </trkpt>
      <trkpt lat="45.808248482644558" lon="9.095349982380867">
        <ele>232.2957763671875</ele>
        <time>2007-11-11T13:21:57Z</time>
      </trkpt>
      <trkpt lat="45.808399943634868" lon="9.095151079818606">
        <ele>232.7764892578125</ele>
        <time>2007-11-11T13:22:01Z</time>
      </trkpt>
      <trkpt lat="45.808554338291287" lon="9.094955194741488">
        <ele>233.257080078125</ele>
        <time>2007-11-11T13:22:05Z</time>
      </trkpt>
      <trkpt lat="45.808709068223834" lon="9.094745730981231">
        <ele>233.257080078125</ele>
        <time>2007-11-11T13:22:09Z</time>
      </trkpt>
      <trkpt lat="45.808845022693276" lon="9.094539117068052">
        <ele>234.2183837890625</ele>
        <time>2007-11-11T13:22:14Z</time>
      </trkpt>
    </trkseg>
  </trk>

</gpx>
